     2              OBSERVATION DATA    GPS                 RINEX VERSION / TYPE
teqc 1997Jul24 19970814                                     PGM / RUN BY / DATE
                                                            COMMENT
Original Marker Name: 0502                                  COMMENT
Campaign Name: HPGN 1991                                    COMMENT
4-Character Station Name: 0502                              COMMENT
6-Character Antenna Code: TRMSST                            COMMENT
Vertical Measurement Point: BPA                             COMMENT
Vertical Offset to Rinex Ref. Point: 0.0000                 COMMENT
Radial Measurement Point: RRP                               COMMENT
Radial Offset to Rinex Ref. Point: 0.0000                   COMMENT
Antenna Height from Field Measurement: 2.2200 m             COMMENT
Original XYZ: -2657519.9208 -4539533.5937 3595205.3195      COMMENT
New XYZ position is based on association with SCEC monument COMMENT
E1E9D7F9+0011. Position of that monument is believed to be  COMMENT
valid to within 1 m horizontally; vertical accuracy         COMMENT
should be no worse than 3-times this value.                 COMMENT
                                                            COMMENT
Revised Rinex header created by UCSD GPS archive for        COMMENT
GSAC on 19-Apr-1999 (1999:109) 07:05:43 GMT                 COMMENT
For assistance contact dagnew@ucsd.edu or hjohnson@ucsd.edu COMMENT
                                                            COMMENT
HPGN-CALIF STA 05-02 1990                                   MARKER NAME
unknown NATIONAL GEODETIC SURVEY                            OBSERVER / AGENCY
482 TRIMBLE 4000 SST NP 4.30 / SP 4.20                      REC # / TYPE / VERS
20 TR 4000SST L1/L2 GEO                                     ANT # / TYPE
 -2657527.0000 -4539533.0000  3595208.0000                  APPROX POSITION XYZ
        2.2200        0.0000        0.0000                  ANTENNA: DELTA H/E/N
     1     1     0                                          WAVELENGTH FACT L1/2
     3    C1    L1    L2                                    # / TYPES OF OBSERV
     0                                                      INTERVAL
  1991     4    25    19    48    0.000000                  TIME OF FIRST OBS
  1991     4    26     1    37   60.000000                  TIME OF LAST OBS
     0                                                      # OF SATELLITES
                                                            END OF HEADER
 91  4 25 19 48  0.0000000  0  4G18G 2G11G19
  20797442.969          -0.18718
  23702882.8594         -0.49256
  23965782.2194         -0.84656
  20925810.0314         -0.15957
 91  4 25 19 48 15.0000000  0  4G18G 2G11G19
  20799664.852       11675.787 8
  23692548.297      -54304.565 6
  23958452.7344     -38567.94846
  20924314.1484      -7863.70547
 91  4 25 19 48 30.0000000  0  4G18G 2G11G19
  20801901.070       23431.805 8        -0.11133
  23682219.9844    -108588.48646
  23951121.484      -77070.050 6
  20922823.109      -15711.895 7
 91  4 25 19 48 45.0000000  0  4G18G 2G11G19
  20804158.758       35292.476 8      9241.96024
  23671894.7504    -162827.25446        -0.04571
  23943813.0634    -115482.06546        -0.49271
  20921336.883      -23520.088 7        -0.33133
 91  4 25 19 49  0.0000000  0  4G18G 2G11G19
  20806434.055       47248.602 8     18558.39823
  23661581.547     -217030.086 6    -42235.79221
  23936523.1724    -153813.02946    -29868.74561
  20919857.4924     -31297.57346     -6060.69363
 91  4 25 19 49 15.0000000  0  4G18G 2G11G19
  20808728.680       59306.825 8     27954.40024
  23651273.523     -271190.299 5    -84438.32521
  23929241.602     -192056.027 6    -59668.46321
  20918382.3444     -39038.00147    -12092.18663
 91  4 25 19 49 30.0000000  0  4G18G 2G11G19
  20811045.016       71482.027 8     37441.55324
  23640979.023     -325292.491 6   -126595.63521
  23921985.828     -230195.469 6    -89387.48321
  20916918.5864     -46726.05647    -18082.86563
 91  4 25 19 49 45.0000000  0  4G18G 2G11G19
  20813385.516       83775.619 8     47020.95624
  23630695.539     -379335.052 6   -168706.50421
  23914743.984     -268229.425 6   -119024.30721
  20915466.414      -54360.282 7    -24031.60123
 91  4 25 19 50  0.0000000  0  4G18G 2G11G19
  20815745.680       96179.248 8     56686.09824
  23620419.422     -433326.355 6   -210777.42121
  23907524.1174    -306166.11046   -148585.33861
  20914023.1174     -61949.25847    -29945.07762
 91  4 25 19 50 15.0000000  0  4G18G 2G11G19
  20818126.492      108693.334 8     66437.31624
  23610155.938     -487265.777 6   -252807.91421
  23900327.5554    -344004.76546   -178069.97361
  20912587.5634     -69492.41047    -35822.84963
 91  4 25 19 50 30.0000000  0  4G18G 2G11G19
  20820529.414      121319.195 8     76275.63124
  23599902.563     -541151.605 6   -294796.64421
  23893143.391     -381743.524 6   -207476.80121
  20911160.7664     -76988.48947    -41663.94063
 91  4 25 19 50 45.0000000  0  4G18G 2G11G19
  20822954.258      134065.827 8     86208.04324
  23589663.313     -594974.781 6   -336736.55521
  23885987.8364    -419373.05846   -236798.48061
  20909744.7814     -84428.61247    -47461.42763
 91  4 25 19 51  0.0000000  0  4G18G 2G11G19
  20825402.875      146932.721 8     96234.18024
  23579426.219     -648735.511 6   -378627.81521
  23878844.492     -456893.311 6   -266035.02421
  20908341.6724     -91813.18847    -53215.63463
 91  4 25 19 51 15.0000000  0  4G18G 2G11G19
  20827872.852      159911.166 8    106347.23424
  23569211.633     -702442.370 6   -420477.09121
  23871729.211     -494312.836 6   -295193.08321
  20906944.8674     -99150.94747    -58933.35863
 91  4 25 19 51 30.0000000  0  4G18G 2G11G19
  20830363.828      173002.203 8    116548.02324
  23558997.6644    -756093.71946   -462283.12161
  23864623.930     -531629.831 6   -324271.24021
  20905557.047     -106440.612 7    -64613.60123
 91  4 25 19 51 45.0000000  0  4G18G 2G11G19
  20832877.016      186209.658 8    126839.52324
  23548799.859     -809685.862 6   -504043.02121
  23857545.695     -568840.381 6   -353266.45421
  20904177.6174    -113678.59247    -70253.57963
 91  4 25 19 52  0.0000000  0  4G18G 2G11G19
  20835416.531      199552.602 8    137236.60324
  23538619.828     -863199.540 6   -545741.77421
  23850485.9694    -605925.02546   -382163.57361
  20902816.3674    -120845.88547    -75838.47763
 91  4 25 19 52 15.0000000  0  4G18G 2G11G19
  20837979.109      213019.230 8    147730.06024
  23528448.0314    -916646.57846   -587388.59861
  23843449.000     -642895.329 6   -410971.58421
  20901463.258     -127954.401 7    -81377.56323
 91  4 25 19 52 30.0000000  0  4G18G 2G11G19
  20840563.070      226598.370 8    158311.18824
  23518287.6644    -970037.77746   -628991.92061
  23836429.7034    -679761.91046   -439698.77361
  20900118.1024    -135015.13947    -86879.42562
 91  4 25 19 52 45.0000000  0  4G18G 2G11G19
  20843167.352      240280.548 8    168972.60524
  23508136.3444   -1023382.49946   -670559.02561
  23829438.8674    -716533.89446   -468352.25661
  20898783.0164    -142037.61247    -92351.47663
 91  4 25 19 53  0.0000000  0  4G18G 2G11G19
  20845793.867      254084.982 8    179729.28624
  23497995.711    -1076661.064 6   -712074.56521
  23822463.633     -753191.412 6   -496916.54421
  20897456.2194    -149002.33247    -97778.52163
 91  4 25 19 53 15.0000000  0  4G18G 2G11G19
  20848442.047      268004.732 8    190575.82124
  23487869.438    -1129879.984 6   -753543.63421
  23815509.242     -789740.913 6   -525396.65821
  20896143.297     -155915.965 7   -103165.75423
 91  4 25 19 53 30.0000000  0  4G18G 2G11G19
  20851111.766      282028.957 8    201503.76924
  23477750.398    -1183050.150 6   -794974.72921
  23808573.0634    -826193.11846   -553800.95661
  20894833.5634    -162789.78347   -108521.96963
 91  4 25 19 53 45.0000000  0  4G18G 2G11G19
  20853801.727      296165.167 8    212518.97824
  23467648.797    -1236163.949 6   -836361.88221
  23801655.391     -862540.131 6   -582123.28921
  20893534.750     -169616.215 7   -113841.25223
 91  4 25 19 54  0.0000000  0  4G18G 2G11G19
  20856515.344      310428.761 8    223633.44424
  23457550.1884   -1289205.78746   -877692.97361
  23794755.953     -898766.287 6   -610351.45421
  20892248.1954    -176379.93547   -119111.67363
 91  4 25 19 54 15.0000000  0  5G18G 2G16G11G19
  20859251.992      324811.258 8    234840.56624
  23447470.656    -1342183.879 6   -918974.38621
  24339857.6094         -0.37255
  23787886.516     -934879.589 6   -638491.66721
  20890969.9534    -183089.39247   -124339.81063
 91  4 25 19 54 30.0000000  0  5G18G 2G16G11G19
  20862011.000      339306.130 8    246135.25024
  23437395.8444   -1395104.48746   -960211.01461
  24332556.6414     -38389.77145
  23781034.6174    -970886.17046   -666548.73561
  20889703.1414    -189751.09647   -129530.74063
 91  4 25 19 54 45.0000000  0  5G18G 2G16G11G19
  20864790.547      353913.675 8    257517.73024
  23427336.805    -1447966.959 6  -1001402.33121
  24325275.9924     -76662.44045
  23774202.664    -1006785.158 6   -694521.95721
  20888446.2194    -196364.46647   -134684.00263
 91  4 25 19 55  0.0000000  0  5G18G 2G16G11G19
  20867590.703      368633.683 8    268987.84524
  23417290.0474   -1500771.32146  -1042548.37861
  24318021.1414    -114818.74946
  23767394.664    -1042576.366 6   -722411.18921
  20887194.7734    -202929.77647   -139799.81963
 91  4 25 19 55 15.0000000  0  5G18G 2G16G11G19
  20870415.172      383470.149 8    280548.70824
  23407252.1724   -1553513.52246  -1083645.97661
  24310783.9694    -152854.59546
  23760605.195    -1078255.515 6   -750213.10521
  20885955.1484    -209443.05847   -144875.09163
 91  4 25 19 55 30.0000000  0  5G18G 2G16G11G19
  20873259.102      398419.451 8    292197.48024
  23397226.664    -1606197.296 6  -1124698.05521
  24303562.563     -190773.290 5        -0.19231
  23753834.6334   -1113825.91846   -777930.29261
  20884724.1414    -215908.21847   -149912.87063
 91  4 25 19 55 45.0000000  0  5G18G 2G16G11G19
  20876125.984      413478.843 8    303932.05924
  23387212.383    -1658824.685 6  -1165706.20821
  24296365.9614    -228577.16545    -29457.69261
  23747086.742    -1149289.741 6   -805564.43621
  20883503.6884    -222327.62647   -154914.99962
 91  4 25 19 56  0.0000000  0  5G18G 2G16G11G19
  20879012.813      428654.840 8    315757.49124
  23377210.4304   -1711388.99946  -1206665.19561
  24289195.1414    -266259.29245    -58820.34661
  23740359.7584   -1184639.99046   -833110.06461
  20882294.6174    -228694.75747   -159876.39463
 91  4 25 19 56 15.0000000  0  5G18G 2G16G11G19
  20881923.469      443947.198 8    327673.59324
  23367224.648    -1763890.533 6  -1247575.26521
  24282056.3834    -303819.84646    -88088.26061
  23733654.977    -1219876.740 6   -860567.26321
  20881089.8984    -235009.83147   -164797.22263
 91  4 25 19 56 30.0000000  0  5G18G 2G16G11G19
  20884853.102      459344.947 8    339671.81624
  23357235.9614   -1816339.78346  -1288444.60061
  24274925.547     -341269.452 6   -117269.71021
  23726968.9304   -1255010.60646   -887944.29061
  20879896.8204    -241283.97047   -169686.14963
 91  4 25 19 56 45.0000000  0  5G18G 2G16G11G19
  20887805.445      474859.513 8    351761.06624
  23347270.1804   -1868724.99646  -1329264.04461
  24267824.9304    -378596.41646   -146355.62261
  23720304.4144   -1290029.62946   -915231.83561
  20878713.281     -247505.506 7   -174534.08823
 91  4 25 19 57  0.0000000  0  5G18G 2G16G11G19
  20890780.047      490485.694 8    363937.28324
  23337311.0164   -1921051.22546  -1370037.51761
  24260731.1954    -415805.61845   -175349.76361
  23713661.336    -1324938.442 6   -942433.48821
  20877537.8444    -253679.54047   -179345.01663
 91  4 25 19 57 15.0000000  0  5G18G 2G16G11G19
  20893774.961      506225.711 8    376202.20724
  23327361.3444   -1973315.92446  -1410763.05061
  24253683.141     -452894.277 5   -204249.93721
  23707042.180    -1359734.399 6   -969547.20221
  20876372.3674    -259803.79947   -184117.15762
 91  4 25 19 57 30.0000000  0  5G18G 2G16G11G19
  20896792.922      522078.525 8    388555.02424
  23317432.352    -2025519.966 6  -1451441.31221
  24246643.266     -489863.206 5   -233056.83721
  23700437.492    -1394418.220 6   -996573.54121
  20875215.0784    -265879.30447   -188851.30962
 91  4 25 19 57 45.0000000  0  5G18G 2G16G11G19
  20899828.367      538037.087 8    400990.24424
  23307508.938    -2077670.167 6  -1492077.63721
  24239632.2194    -526719.37645   -261775.90261
  23693857.914    -1428996.538 6  -1023517.67121
  20874068.4454    -271913.10847   -193552.97163
 91  4 25 19 58  0.0000000  0  5G18G 2G16G11G19
  20902886.258      554108.736 8    413513.58024
  23297594.3054   -2129759.14446  -1532666.24561
  24232643.281     -563455.163 5   -290401.14721
  23687302.5084   -1463461.80646  -1050373.70461
  20872929.9064    -277897.88247   -198216.42263
 91  4 25 19 58 15.0000000  0  5G18G 2G16G11G19
  20905967.797      570302.125 8    426131.78224
  23287693.1644   -2181778.15746  -1573200.33161
  24225672.2344    -600062.14545   -318925.99561
  23680766.0474   -1497805.17046  -1077134.74961
  20871801.5634    -283825.00247   -202834.95063
 91  4 25 19 58 30.0000000  0  5G18G 2G16G11G19
  20909072.7344     586613.97048    438842.28463
  23277808.3914   -2233730.26646  -1613682.28761
  24218731.1484    -636543.07945   -347352.64961
  23674251.7114   -1532029.32846  -1103802.89961
  20870684.4924    -289697.62947   -207411.01363
 91  4 25 19 58 45.0000000  0  5G18G 2G16G11G19
  20912196.563      603033.351 8    451636.58024
  23267936.1954   -2285625.93846  -1654120.26461
  24211816.7114    -672908.12445   -375689.00161
  23667757.781    -1566144.570 6  -1130386.18821
  20869574.6724    -295526.52647   -211953.00363
 91  4 25 19 59  0.0000000  0  5G18G 2G16G11G19
  20915342.1094     619560.39348    464514.76663
  23258069.664    -2337464.763 6  -1694513.95121
  24204916.2894    -709156.98745   -403934.81161
  23661289.711    -1600150.449 6  -1156884.25821
  20868473.1094    -301311.66747   -216460.90463
 91  4 25 19 59 15.0000000  0  5G18G 2G16G11G19
  20918508.906      636204.624 8    477484.27224
  23248220.1334   -2389236.86146  -1734855.64561
  24198038.477     -745279.952 5   -432082.52221
  23654841.5474   -1634036.97746  -1183289.31461
  20867383.117     -307043.305 7   -220927.10123
 91  4 25 19 59 30.0000000  0  5G18G 2G16G11G19
  20921698.6334     652966.47948    490545.42664
  23238379.0084   -2440941.77046  -1775144.98061
  24191193.719     -781276.519 5   -460131.73321
  23648413.852    -1667803.571 6  -1209600.92221
  20866303.2274    -312721.17847   -225351.41162
 91  4 25 19 59 45.0000000  0  5G18G 2G16G11G19
  20924910.539      669846.125 8    503698.37423
  23228548.703    -2492578.966 6  -1815381.55821
  24184364.734     -817146.150 5   -488082.04421
  23642011.7424   -1701449.36646  -1235818.40561
  20865231.8594    -318344.87747   -229733.50662
 91  4 25 20  0  0.0000000  0  5G18G 2G16G11G19
  20928143.3754     686836.35548    516937.48463
  23218736.766    -2544155.745 6  -1855571.05421
  24177560.6484    -852896.03245   -515939.05361
  23635631.133    -1734981.574 6  -1261947.37321
  20864172.5704    -323921.68547   -234079.06563
 91  4 25 20  0 15.0000000  0  5G18G 2G16G11G19
  20931398.7584     703939.24648    530264.38363
  23208933.523    -2595669.673 6  -1895711.58321
  24170780.047     -888523.738 5   -543700.84921
  23629271.492    -1768397.507 6  -1287985.74021
  20863120.3284    -329449.39247   -238386.36363
 91  4 25 20  0 30.0000000  0  5G18G 2G16G11G19
  20934675.0634     721155.28248    543679.44563
  23199143.125    -2647119.816 6  -1935802.40521
  24164017.695     -924028.114 5   -571366.54521
  23622936.680    -1801696.012 6  -1313932.59221
  20862076.3674    -334927.27847   -242654.83963
 91  4 25 20  0 45.0000000  0  5G18G 2G16G11G19
  20937971.109      738476.706 8    557176.63223
  23189365.7114   -2698513.88446  -1975849.53561
  24157289.984     -959416.717 5   -598942.02721
  23616621.0944   -1834884.61746  -1339793.81561
  20861044.0474    -340363.21747   -246890.62662
 91  4 25 20  1  0.0000000  0  5G18G 2G16G11G19
  20941287.8444     755902.82548    570755.39563
  23179592.008    -2749852.547 6  -2015853.49721
  24150579.820     -994690.232 5   -626427.83021
  23610328.1804   -1867963.99846  -1365569.93261
  20860016.1564    -345758.00147   -251094.35063
 91  4 25 20  1 15.0000000  0  5G18G 2G16G11G19
  20944623.109      773436.154 8    584417.70624
  23169834.602    -2801132.877 6  -2055812.00821
  24143891.813    -1029845.914 5   -653821.81721
  23604055.4694   -1900931.03946  -1391258.50161
  20858998.3364    -351108.92347   -255263.88763
 91  4 25 20  1 30.0000000  0  5G18G 2G16G11G19
  20947982.2974     791085.79948    598170.64263
  23160091.516    -2852345.413 6  -2095717.68521
  24137224.898    -1064874.233 5   -681116.55121
  23597804.1254   -1933776.06746  -1416852.01061
  20857991.5084    -356406.65747   -259391.98962
 91  4 25 20  1 45.0000000  0  5G18G 2G16G11G19
  20951362.797      808845.624 8    612009.44524
  23150356.305    -2903496.190 6  -2135575.24721
  24130580.680    -1099780.930 5   -708316.52721
  23591571.813    -1966505.026 6  -1442355.06321
  20856991.7664    -361657.64347   -263483.65862
 91  4 25 20  2  0.0000000  0  5G18G 2G16G11G19
  20954763.4064     826719.67748    625937.25164
  23140635.3444   -2954580.92046  -2175381.34461
  24123961.789    -1134561.659 5   -735418.33821
  23585368.586    -1999113.383 6  -1467764.15421
  20856001.3134    -366857.50447   -267535.48962
 91  4 25 20  2 15.0000000  0  5G18G 2G16G11G19
  20958186.2344     844705.23548    639951.94263
  23130927.9454   -3005602.08446  -2215137.90061
  24117368.7584   -1169218.87445   -762423.91061
  23579186.148    -2031603.427 6  -1493081.03721
  20855021.3674    -372009.10147   -271549.71462
 91  4 25 20  2 30.0000000  0  5G18G 2G16G11G19
  20961629.1254     862800.89048    654052.41963
  23121226.1644   -3056560.78846  -2254845.80161
  24110797.680    -1203753.786 5   -789334.19321
  23573028.6254   -2063976.04646  -1518306.42561
  20854050.5314    -377113.55847   -275527.20562
 91  4 25 20  2 45.0000000  0  5G18G 2G16G11G19
  20965094.1804     881007.06248    668239.01564
  23111540.1644   -3107456.55646  -2294504.65361
  24104249.2424   -1238165.87145   -816148.75061
  23566889.0394   -2096230.58946  -1543439.79961
  20853087.7894    -382170.56547   -279467.72562
 91  4 25 20  3  0.0000000  0  5G18G 2G16G11G19
  20968580.3594     899327.83848    682514.91264
  23101871.1254   -3158284.80146  -2334110.89861
  24097726.617    -1272450.438 5   -842863.93021
  23560772.375    -2128362.531 6  -1568477.65421
  20852134.8984    -387175.91847   -283367.99362
 91  4 25 20  3 15.0000000  0  5G18G 2G16G11G19
  20972087.2894     917759.93448    696877.55564
  23092214.2664   -3209048.78246  -2373667.06761
  24091219.9144   -1306610.71545   -869482.27161
  23554683.336    -2160374.703 6  -1593422.16621
  20851192.2274    -392132.80847   -287230.50062
 91  4 25 20  3 30.0000000  0  5G18G 2G16G11G19
  20975616.180      936299.532 8    711323.96524
  23082563.4534   -3259752.16946  -2413176.01961
  24084742.594    -1340650.494 5   -896006.72421
  23548611.1484   -2192270.82446  -1618276.25061
  20850257.3054    -397045.05247   -291058.21762
 91  4 25 20  3 45.0000000  0  5G18G 2G16G11G19
  20979165.5084     954955.84148    725861.31964
  23072924.6414   -3310385.40446  -2452630.31561
  24078293.375    -1374559.987 5   -922429.64121
  23542570.2814   -2224041.14946  -1643032.32561
  20849333.4534    -401903.37147   -294843.91062
 91  4 25 20  4  0.0000000  0  5G18G 2G16G11G19
  20982738.0234     973723.35048    740485.32263
  23063302.430    -3360953.855 6  -2492034.12021
  24071868.453    -1408344.382 5   -948755.08321
  23536544.1804   -2255690.71746  -1667694.29661
  20848416.3594    -406713.25847   -298591.86762
 91  4 25 20  4 15.0000000  0  5G18G 2G16G11G19
  20986331.1334     992605.52448    755198.67164
  23053694.1484   -3411453.52146  -2531384.33661
  24065462.039    -1441999.865 5   -974980.08621
  23530548.641    -2287215.466 6  -1692259.01221
  20847512.5864    -411470.65547   -302298.92862
 91  4 25 20  4 30.0000000  0  5G18G 2G16G11G19
  20989944.4064    1011597.04048    769997.22364
  23044096.422    -3461889.544 6  -2570684.95921
  24059076.367    -1475531.851 5  -1001108.87221
  23524567.9694   -2318620.39146  -1716730.34761
  20846615.1024    -416181.11147   -305969.40462
 91  4 25 20  4 45.0000000  0  5G18G 2G16G11G19
  20993579.5944    1030700.06348    784882.66564
  23034508.1174   -3512259.53846  -2609934.12861
  24052719.3204   -1508937.81545  -1027139.41661
  23518614.8284   -2349902.90246  -1741106.29961
  20845728.5394    -420842.45247   -309601.61362
 91  4 25 20  5  0.0000000  0  5G18G 2G16G11G19
  20997235.9064    1049911.20348    799852.35564
  23024939.5944   -3562566.79246  -2649134.41061
  24046386.9534   -1542220.61245  -1053074.02061
  23512689.781    -2381066.118 6  -1765389.30421
  20844849.5554    -425457.89347   -313198.05462
 91  4 25 20  5 15.0000000  0  5G18G 2G16G11G19
  21000912.3594    1069232.29848    814907.72264
  23015376.516    -3612809.285 6  -2688284.23621
  24040077.8444   -1575378.02845  -1078910.90761
  23506778.3754   -2412107.90246  -1789577.67161
  20843981.4924    -430025.70447   -316757.37762
 91  4 25 20  5 30.0000000  0  5G18G 2G16G11G19
  21004609.9384    1088667.49148    830051.99864
  23005829.648    -3662982.665 6  -2727380.20521
  24033794.492    -1608405.936 5  -1104646.86821
  23500894.0004   -2443023.69146  -1813667.86461
  20843120.6334    -434541.59747   -320276.24862
 91  4 25 20  5 45.0000000  0  5G18G 2G16G11G19
  21008330.3524    1108213.29148    845282.46364
  22996291.5004   -3713089.94846  -2766424.67161
  24027529.945    -1641307.704 5  -1130284.54121
  23495038.4844   -2473816.46446  -1837662.19861
  20842271.9304    -439008.87447   -323757.23862
 91  4 25 20  6  0.0000000  0  5G18G 2G16G11G19
  21012071.4224    1127874.33548    860602.72664
  22986774.742    -3763126.451 6  -2805413.98121
  24021293.4924   -1674078.22445  -1155819.95761
  23489199.758    -2504481.267 6  -1861556.82521
  20841430.4224    -443423.00247   -327196.81162
 91  4 25 20  6 15.0000000  0  5G18G 2G16G11G19
  21015834.4224    1147646.29448    876009.41664
  22977263.586    -3813096.258 6  -2844351.33721
  24015087.664    -1706721.799 5  -1181256.45821
  23483386.203    -2535022.138 6  -1885354.88521
  20840601.3204    -447788.29947   -330598.33462
 91  4 25 20  6 30.0000000  0  5G18G 2G16G11G19
  21019617.6024    1167531.76448    891504.55664
  22967770.2424   -3862996.56346  -2883234.51361
  24008894.109    -1739235.325 5  -1206591.60521
  23477601.5234   -2565436.18946  -1909054.12161
  20839776.9304    -452101.86347   -333959.54262
 91  4 25 20  6 45.0000000  0  6G18G 2G16G11G 6G19
  21023423.8594    1187529.82648    907087.43064
  22958286.3444   -3912827.81246  -2922063.89561
  24002731.203    -1771619.214 5  -1231825.75321
  23471840.1954   -2595723.52746  -1932654.61261
  24452592.7194         -0.54255
  20838968.7894    -456364.23347   -337280.86462
 91  4 25 20  7  0.0000000  0  6G18G 2G16G11G 6G19
  21027249.6954    1207639.98248    922757.65464
  22948817.234    -3962590.672 6  -2960839.97721
  23996592.7894   -1803874.14145  -1256959.39161
  23466099.4304   -2625884.54846  -1956156.68061
  24444864.5234     -40609.53545
  20838166.5554    -460576.48847   -340563.13762
 91  4 25 20  7 15.0000000  0  6G18G 2G16G11G 6G19
  21031099.0234    1227863.35948    938516.10064
  22939357.188    -4012283.417 6  -2999561.42821
  23990482.648    -1835998.383 5  -1281991.20221
  23460384.289    -2655917.521 6  -1979558.97621
  24437143.9144     -81191.08345
  20837375.9534    -464736.97447   -343805.06562
 91  4 25 20  7 30.0000000  0  6G18G 2G16G11G 6G19
  21034968.6334    1248201.52348    954363.99164
  22929916.953    -4061904.137 6  -3038226.75421
  23984395.9774   -1867990.11745  -1306919.74861
  23454691.4144   -2685820.40446  -2002859.89761
  24429423.859     -121743.391 5
  20836592.1414    -468843.97147   -347005.31562
 91  4 25 20  7 45.0000000  0  6G18G 2G16G11G 6G19
  21038861.6484    1268654.54248    970301.38064
  22920486.0234   -4111452.74546  -3076835.89061
  23978330.781    -1899849.103 5  -1331744.88221
  23449027.0004   -2715592.91246  -2026059.22161
  24421713.352     -162266.610 5
  20835823.0784    -472897.59047   -350163.97162
 91  4 25 20  8  0.0000000  0  6G18G 2G16G11G 6G19
  21042775.5864    1289221.44148    986327.50664
  22911070.406    -4160930.027 6  -3115389.44621
  23972293.781    -1931576.496 5  -1356467.44321
  23443387.4304   -2745235.76046  -2049157.51761
  24414010.930     -202761.666 5        -0.31931
  20835059.2114    -476898.75147   -353281.75062
 91  4 25 20  8 15.0000000  0  6G18G 2G16G11G 6G19
  21046709.5314    1309898.43048   1002439.41464
  22901671.070    -4210339.580 6  -3153890.22121
  23966284.461    -1963175.388 5  -1381089.89121
  23437770.078    -2774752.229 6  -2072157.34021
  24406307.633     -243232.329 5    -31535.68721
  20834309.8054    -480851.01547   -356361.42662
 91  4 25 20  8 30.0000000  0  6G18G 2G16G11G 6G19
  21050666.6484    1330692.51948   1018642.57164
  22892276.945    -4259673.979 6  -3192332.44621
  23960296.813    -1994638.838 6  -1405606.79321
  23432179.367    -2804134.921 6  -2095052.92521
  24398609.320     -283671.471 5    -63046.55421
  20833569.3984    -484747.35447   -359397.52762
 91  4 25 20  8 45.0000000  0  6G18G 2G16G11G 6G19
  21054645.500     1351601.266 8   1034935.07224
  22882908.844    -4308935.421 6  -3230717.81121
  23954332.6254   -2025968.60545  -1430019.53361
  23426614.258    -2833385.881 6  -2117845.85021
  24390922.891     -324081.504 5    -94534.70721
  20832836.3754    -488590.05347   -362391.83062
 91  4 25 20  9  0.0000000  0  6G18G 2G16G11G 6G19
  21058644.5864    1372615.36448   1051309.66064
  22873540.758    -4358133.070 6  -3269053.47221
  23948395.141    -2057173.518 5  -1454334.98321
  23421067.469    -2862514.094 6  -2140543.13721
  24383234.039     -364471.574 5   -126007.29521
  20832111.9304    -492388.29247   -365351.48963
 91  4 25 20  9 15.0000000  0  6G18G 2G16G11G 6G19
  21062663.9224    1393736.78948   1067767.88164
  22864193.992    -4407264.889 6  -3307337.83321
  23942481.391    -2088251.631 5  -1478551.63121
  23415550.625    -2891517.212 6  -2163142.94221
  24375554.0554    -404839.92245   -157462.97061
  20831401.2664    -496140.05347   -368274.92762
 91  4 25 20  9 30.0000000  0  6G18G 2G16G11G 6G19
  21066704.6334    1414971.87648   1084314.67664
  22854857.789    -4456324.057 6  -3345565.58521
  23936589.8594   -2119196.37745  -1502664.36561
  23410054.7114   -2920388.37946  -2185639.93661
  24367873.086     -445180.001 5   -188896.62321
  20830694.8984    -499838.77047   -371157.03762
 91  4 25 20  9 45.0000000  0  6G18G 2G16G11G 6G19
  21070766.1954    1436317.22148   1100947.38164
  22845535.844    -4505313.780 6  -3383739.22921
  23930728.4144   -2150011.07946  -1526675.77361
  23404587.0164   -2949130.66546  -2208036.50161
  24360203.1094    -485495.17845   -220310.87261
  20830001.5004    -503487.90547   -374000.51262
 91  4 25 20 10  0.0000000  0  6G18G 2G16G11G 6G19
  21074851.8914    1457782.65948   1117673.66864
  22836227.289    -4554223.859 6  -3421850.81021
  23924891.930    -2180685.010 6  -1550577.47121
  23399142.7424   -2977733.75846  -2230324.60761
  24352541.258     -525775.552 5   -251698.00321
  20829315.8204    -507077.37547   -376797.49562
 91  4 25 20 10 15.0000000  0  6G18G 2G16G11G 6G19
  21078956.5634    1479356.60848   1134484.50764
  22826932.797    -4603065.475 6  -3459909.04521
  23919078.484    -2211229.804 5  -1574378.56021
  23393725.094    -3006208.770 6  -2252512.89721
  24344878.188     -566032.475 5   -283066.81221
  20828644.5864    -510618.40147   -379556.72762
 91  4 25 20 10 30.0000000  0  6G18G 2G16G11G 6G19
  21083083.1334    1501038.69648   1151379.60964
  22817651.953    -4651838.941 6  -3497914.18221
  23913287.625    -2241645.771 5  -1598079.25721
  23388329.1884   -3034555.71846  -2274601.40561
  24337221.367     -606266.255 5   -314417.66521
  20827977.8754    -514111.45647   -382278.58263
 91  4 25 20 10 45.0000000  0  6G18G 2G16G11G 6G19
  21087230.7664    1522836.20948   1168364.65264
  22808382.188    -4700536.737 6  -3535860.35221
  23907528.5784   -2271925.25445  -1621673.58061
  23382963.125    -3062767.047 6  -2296584.22421
  24329569.758     -646469.812 5   -345744.92021
  20827325.7114    -517549.23847   -384957.36462
 91  4 25 20 11  0.0000000  0  6G18G 2G16G11G 6G19
  21091399.3914    1544743.74848   1185435.42964
  22799134.6254   -4749164.05546  -3573751.60861
  23901792.984    -2302073.610 6  -1645165.76121
  23377618.6724   -3090847.94046  -2318465.41761
  24321924.242     -686648.569 4   -377052.85821
  20826679.6024    -520937.11447   -387597.25762
 91  4 25 20 11 15.0000000  0  6G18G 2G16G11G 6G19
  21095589.2034    1566760.22648   1202591.09764
  22789890.727    -4797721.958 6  -3611588.76921
  23896079.508    -2332091.578 6  -1668556.33521
  23372299.7274   -3118799.03446  -2340245.46361
  24314283.930     -726803.567 4   -408342.31321
  20826045.3444    -524275.98547   -390198.96562
 91  4 25 20 11 30.0000000  0  6G18G 2G16G11G 6G19
  21099799.3914    1588885.21948   1219831.31664
  22780666.914    -4846210.504 6  -3649371.89721
  23890393.117    -2361979.145 6  -1691845.29621
  23367005.3524   -3146620.28046  -2361924.33361
  24306648.906     -766935.051 4   -439613.43321
  20825418.6724    -527566.18647   -392762.75562
 91  4 25 20 11 45.0000000  0  6G18G 2G16G11G 6G19
  21104030.0164    1611120.10548   1237157.17264
  22771452.7974   -4894627.96346  -3687099.61861
  23884728.172    -2391734.659 6  -1715031.36521
  23361737.547    -3174309.831 6  -2383500.58621
  24299017.5944    -807041.54645   -470865.06061
  20824803.3204    -530806.25947   -395287.47763
 91  4 25 20 12  0.0000000  0  6G18G 2G16G11G 6G19
  21108283.7894    1633470.02848   1254572.66563
  22762251.3364   -4942968.82246  -3724767.66761
  23879095.0944   -2421352.40546  -1738110.07061
  23356490.125    -3201862.147 6  -2404969.90821
  24291391.477     -847117.742 4   -502093.08921
  20824195.406     -533990.721 7   -397768.86623
 91  4 25 20 12 15.0000000  0  6G18G 2G16G11G 6G19
  21112559.0004    1655935.30448   1272078.04363
  22753067.539    -4991232.646 6  -3762375.67821
  23873483.9614   -2450832.16546  -1761081.26661
  23351275.7344   -3229276.56746  -2426331.76161
  24283766.039     -887163.420 3   -533297.34421
  20823601.8984    -537119.36047   -400206.76063
 91  4 25 20 12 30.0000000  0  6G18G 2G16G11G 6G19
  21116855.8444    1678513.80948   1289671.65464
  22743894.6564   -5039421.47846  -3799925.25961
  23867899.836    -2480175.989 5  -1783946.52021
  23346087.445    -3256554.747 6  -2447587.46321
  24276152.664     -927180.758 4   -564479.51421
  20823014.6804    -540194.36247   -402602.86262
 91  4 25 20 12 45.0000000  0  6G18G 2G16G11G 6G19
  21121174.0164    1701207.20248   1307354.78464
  22734736.2894   -5087533.06146  -3837414.65061
  23862344.2584   -2509381.67246  -1806704.13361
  23340921.781    -3283694.643 6  -2468735.40921
  24268544.961     -967167.915 4   -595638.14621
  20822442.1254    -543213.77347   -404955.64362
 91  4 25 20 13  0.0000000  0  6G18G 2G16G11G 6G19
  21125511.5164    1724004.90648   1325119.19763
  22725600.406    -5135578.039 6  -3874852.14021
  23856809.266    -2538459.699 6  -1829362.28421
  23335781.0084   -3310706.60646  -2489783.67061
  24260935.3594   -1007135.45244   -626781.53961
  20821873.8984    -546188.22147   -407273.38663
 91  4 25 20 13 15.0000000  0  6G18G 2G16G11G 6G19
  21129870.5634    1746910.32248   1342967.53863
  22716471.1724   -5183552.69746  -3912234.82661
  23851299.5394   -2567406.47546  -1851918.17961
  23330667.8984   -3337586.89246  -2510729.33761
  24253334.844    -1047079.960 4   -657906.94521
  20821319.7194    -549114.06547   -409553.26362
 91  4 25 20 13 30.0000000  0  6G18G 2G16G11G 6G19
  21134250.2584    1769925.61648   1360901.50063
  22707353.5864   -5231454.55346  -3949560.79261
  23845818.2424   -2596219.42246  -1874369.77961
  23325576.070    -3364332.819 6  -2531570.29321
  24245740.2664   -1086999.14644   -689012.66361
  20820771.4304    -551988.86047   -411793.35863
 91  4 25 20 13 45.0000000  0  6G18G 2G16G11G 6G19
  21138652.1094    1793052.46748   1378922.38863
  22698252.7114   -5279281.65646  -3986828.50961
  23840357.109    -2624896.563 5  -1896715.56021
  23320513.6094   -3390942.37446  -2552304.98861
  24238148.477    -1126891.287 4   -720097.25021
  20820234.9614    -554810.86947   -413992.32262
 91  4 25 20 14  0.0000000  0  6G18G 2G16G11G 6G19
  21143073.8054    1816293.07248   1397031.91563
  22689168.2424   -5327031.48846  -4024036.01361
  23834928.367    -2653435.330 5  -1918953.52021
  23315475.1884   -3417412.84846  -2572931.32161
  24230565.7894   -1166753.94344   -751158.89661
  20819709.7504    -557577.73347   -416148.31663
 91  4 25 20 14 15.0000000  0  6G18G 2G16G11G 6G19
  21147517.1884    1839642.36648   1415226.13363
  22680094.2504   -5374709.10646  -4061187.25361
  23829526.1024   -2681840.82646  -1941087.63661
  23310462.875    -3443748.995 6  -2593452.95321
  24222982.891    -1206592.270 4   -782201.60321
  20819191.1954    -560294.55747   -418265.31763
 91  4 25 20 14 30.0000000  0  6G18G 2G16G11G 6G19
  21151980.4924    1863097.38448   1433502.73463
  22671033.0164   -5422316.98946  -4098284.15261
  23824143.789    -2710115.460 6  -1963119.78421
  23305474.930    -3469953.349 6  -2613871.91721
  24215405.891    -1246409.176 4   -813227.56721
  20818681.8204    -562963.94647   -420345.35463
 91  4 25 20 14 45.0000000  0  6G18G 2G16G11G 6G19
  21156465.8594    1886663.67148   1451866.04163
  22661990.5084   -5469849.27646  -4135322.14461
  23818788.047    -2738253.149 5  -1985045.21021
  23300514.3524   -3496020.02346  -2634183.58461
  24207833.703    -1286198.799 4   -844232.31821
  20818185.9144    -565580.20447   -422383.99463
 91  4 25 20 15  0.0000000  0  6G18G 2G16G11G 6G19
  21160972.5234    1910343.40248   1470317.74263
  22652958.7034   -5517303.63846  -4172299.42161
  23813459.5634   -2766251.75745  -2006862.26461
  23295582.2664   -3521946.52346  -2654386.04261
  24200264.734    -1325959.230 4   -875214.28721
  20817698.8204    -568141.11047   -424379.50263
 91  4 25 20 15 15.0000000  0  6G18G 2G16G11G 6G19
  21165498.1954    1934128.39348   1488851.46563
  22643943.2504   -5564688.18346  -4209222.28961
  23808154.7344   -2794119.58545  -2028577.41761
  23290675.2584   -3547740.63446  -2674485.32361
  24192703.797    -1365698.499 4   -906179.77721
  20817219.9454    -570654.83247   -426338.24062
 91  4 25 20 15 30.0000000  0  6G18G 2G16G11G 6G19
  21170045.7194    1958023.83948   1507471.25663
  22634937.2034   -5611997.59246  -4246086.61661
  23802881.516    -2821851.216 5  -2050186.45521
  23285792.055    -3573396.816 6  -2694477.13621
  24185148.0784   -1405411.54044   -937124.83161
  20816750.3674    -573116.16847   -428256.16363
 91  4 25 20 15 45.0000000  0  6G18G 2G16G11G 6G19
  21174612.7974    1982027.88048   1526175.66263
  22625948.2114   -5659233.05446  -4282893.32161
  23797631.3134   -2849447.95246  -2071690.37361
  23280936.0944   -3598916.39446  -2714362.50461
  24177594.9774   -1445099.76944   -968050.54861
  20816293.7504    -575526.53247   -430134.36862
 91  4 25 20 16  0.0000000  0  6G18G 2G16G11G 6G19
  21179201.4534    2006137.62548   1544962.44063
  22616975.5634   -5706397.33846  -4319644.56361
  23792402.422    -2876912.300 5  -2093091.12621
  23276103.9384   -3624301.93746  -2734143.42661
  24170048.125    -1484766.113 5   -998959.22921
  20815843.0554    -577888.69447   -431975.00963
 91  4 25 20 16 15.0000000  0  6G18G 2G16G11G 6G19
  21183809.5234    2030354.18448   1563832.44763
  22608013.5704   -5753488.89746  -4356339.13561
  23787203.7274   -2904242.92845  -2114387.67861
  23271300.906    -3649551.860 6  -2753818.66521
  24162502.5314   -1524409.40344  -1029849.92961
  20815404.1644    -580201.53647   -433777.22663
 91  4 25 20 16 30.0000000  0  6G18G 2G16G11G 6G19
  21188438.1804    2054682.30348   1582789.38863
  22599063.727    -5800503.191 6  -4392973.51021
  23782027.672    -2931434.860 6  -2135576.18321
  23266520.547    -3674661.259 6  -2773384.41521
  24154961.7584   -1564024.84245  -1060718.94961
  20814972.8524    -582460.18547   -435537.20763
 91  4 25 20 16 45.0000000  0  6G18G 2G16G11G 6G19
  21193088.7734    2079120.52148   1601832.11463
  22590135.1884   -5847441.44346  -4429548.62361
  23776878.477    -2958489.885 5  -2156657.99121
  23261771.102    -3699631.488 6  -2792841.71021
  24147429.2344   -1603614.15944  -1091567.58861
  20814554.2344    -584666.11247   -437256.10962
 91  4 25 20 17  0.0000000  0  6G18G 2G16G11G 6G19
  21197760.3754    2103666.19348   1620958.57263
  22581220.219    -5894305.687 6  -4466066.07721
  23771758.4064   -2985409.89645  -2177634.59661
  23257045.125    -3724464.531 6  -2812192.10921
  24139902.6334   -1643179.68545  -1122397.68061
  20814142.4064    -586821.64547   -438935.74462
 91  4 25 20 17 15.0000000  0  6G18G 2G16G11G 6G19
  21202450.4694    2128321.55348   1640170.50263
  22572312.6724   -5941093.63346  -4502524.06862
  23766657.055    -3012192.574 5  -2198504.17421
  23252346.3204   -3749157.75046  -2831433.56261
  24132379.0554   -1682719.14045  -1153207.48261
  20813743.3834    -588924.43747   -440574.28363
 91  4 25 20 17 30.0000000  0  6G18G 2G16G11G 6G19
  21207164.3134    2153085.63748   1659467.14863
  22563422.180    -5987805.857 6  -4538923.06521
  23761589.133    -3038838.351 6  -2219267.09421
  23247672.398    -3773711.626 6  -2850566.43121
  24124857.297    -1722233.199 4  -1183997.48621
  20813351.8984    -590975.24947   -442172.31862
 91  4 25 20 17 45.0000000  0  6G18G 2G16G11G 6G19
  21211897.0704    2177957.44348   1678847.73763
  22554546.883    -6034443.082 6  -4575263.62121
  23756546.859    -3065348.068 6  -2239923.99621
  23243026.922    -3798126.764 6  -2869591.19021
  24117341.5314   -1761722.85645  -1214768.48761
  20812972.0084    -592974.79847   -443730.41162
 91  4 25 20 18  0.0000000  0  6G18G 2G16G11G 6G19
  21216650.086     2202936.666 8   1698312.02023
  22545687.547    -6081005.368 6  -4611545.78021
  23751526.727    -3091721.680 5  -2260474.84321
  23238408.3754   -3822403.07446  -2888507.77261
  24109833.250    -1801188.338 5  -1245520.61821
  20812601.1644    -594923.37347   -445248.78062
 91  4 25 20 18 15.0000000  0  6G18G 2G16G11G 6G19
  21221424.984     2228025.519 8   1717861.74223
  22536844.828    -6127490.495 6  -4647767.82021
  23746532.117    -3117956.984 5  -2280917.92821
  23233814.313    -3846538.204 6  -2907314.33921
  24102328.9454   -1840627.53545  -1276252.30861
  20812241.6804    -596818.93847   -446725.84463
 91  4 25 20 18 30.0000000  0  6G18G 2G16G11G 6G19
  21226218.7734    2253222.33148   1737495.57563
  22528012.172    -6173899.777 6  -4683930.75921
  23741565.992    -3144055.127 6  -2301254.12321
  23229248.633    -3870533.323 6  -2926011.81121
  24094826.953    -1880041.976 4  -1306964.69821
  20811889.4614    -598662.81047   -448162.62963
 91  4 25 20 18 45.0000000  0  6G18G 2G16G11G 6G19
  21231035.1254    2278528.60048   1757214.70663
  22519194.539    -6220231.282 6  -4720033.09321
  23736628.422    -3170014.270 6  -2321482.00821
  23224710.563    -3894386.323 6  -2944598.54321
  24087329.9694   -1919429.92044  -1337656.39961
  20811549.2424    -600453.12647   -449557.67863
 91  4 25 20 19  0.0000000  0  6G18G 2G16G11G 6G19
  21235872.797     2303947.211 8   1777021.37523
  22510392.969    -6266481.963 6  -4756072.45021
  23731713.5704   -3195831.71145  -2341599.48161
  23220198.7974   -3918094.23046  -2963072.21061
  24079839.9694   -1958788.45444  -1368325.25861
  20811219.1804    -602187.11247   -450908.83562
 91  4 25 20 19 15.0000000  0  6G18G 2G16G11G 6G19
  21240729.3674    2329474.58848   1796912.79463
  22501607.125    -6312654.937 6  -4792051.25521
  23726828.6174   -3221510.16145  -2361608.63761
  23215712.6954   -3941660.04346  -2981435.14761
  24072357.1564   -1998121.05944  -1398973.86161
  20810900.5164    -603867.83147   -452218.48762
 91  4 25 20 19 30.0000000  0  6G18G 2G16G11G 6G19
  21245606.969     2355104.585 8   1816884.17823
  22492833.250    -6358756.181 6  -4827974.16921
  23721964.359    -3247055.968 5  -2381514.44321
  23211255.539    -3965089.591 6  -2999691.91721
  24064876.141    -2037433.777 4  -1429606.94921
  20810588.4454    -605501.51447   -453491.48963
 91  4 25 20 19 45.0000000  0  6G18G 2G16G11G 6G19
  21250502.281     2380824.382 8   1836925.53323
  22484071.320    -6404798.492 6  -4863851.16321
  23717129.2734   -3272481.74046  -2401326.70661
  23206820.0864   -3988395.51646  -3017852.35261
  24057393.1564   -2076739.61144  -1460234.73261
  20810284.7814    -607100.87347   -454737.74163
 91  4 25 20 20  0.0000000  0  6G18G 2G16G11G 6G19
  21255417.047     2406653.495 8   1857052.07223
  22475323.7034   -6450762.14846  -4899666.86661
  23712314.281    -3297767.628 5  -2421029.97921
  23202412.516    -4011557.921 6  -3035900.95821
  24049923.922    -2116018.868 5  -1490841.73121
  20809989.2114    -608646.44147   -455942.08163
 91  4 25 20 20 15.0000000  0  6G18G 2G16G11G 6G19
  21260351.578     2432587.553 8   1877260.38223
  22466589.7194   -6496651.17246  -4935424.41861
  23707530.539    -3322917.868 5  -2440627.57521
  23198032.266    -4034580.780 6  -3053840.82921
  24042448.8594   -2155275.79344  -1521431.39761
  20809705.7034    -610142.27847   -457107.66963
 91  4 25 20 20 30.0000000  0  6G18G 2G16G11G 6G19
  21265307.984     2458629.139 8   1897552.48423
  22457875.781    -6542462.603 6  -4971121.50421
  23702771.375    -3347929.430 5  -2460117.07621
  23193675.703    -4057461.040 6  -3071669.57621
  24034981.8524   -2194507.67344  -1552001.53661
  20809428.9064    -611585.56947   -458232.30962
 91  4 25 20 20 45.0000000  0  6G18G 2G16G11G 6G19
  21270283.453     2484779.487 7   1917929.33123
  22449171.3754   -6588194.95146  -5006756.97261
  23698038.672    -3372800.673 5  -2479497.26221
  23189353.852    -4080197.175 6  -3089386.02821
  24027524.3754   -2233713.17945  -1582551.09661
  20809166.7194    -612974.95947   -459314.95463
 91  4 25 20 21  0.0000000  0  6G18G 2G16G11G 6G19
  21275281.656     2511043.580 7   1938394.81423
  22440486.117    -6633842.927 6  -5042326.69421
  23693332.8914   -3397526.48145  -2498764.10261
  23185052.289    -4102783.674 6  -3106985.87921
  24020068.828    -2272887.140 4  -1613076.06021
  20808914.6174    -614305.18647   -460351.49563
 91  4 25 20 21 15.0000000  0  6G18G 2G16G11G 6G19
  21280300.398     2537416.425 7   1958945.03123
  22431814.0234   -6679411.69446  -5077834.69761
  23688654.2194   -3422112.05845  -2517921.70861
  23180782.250    -4125225.534 6  -3124473.01521
  24012620.9534   -2312034.88745  -1643580.65161
  20808671.5784    -615581.44247   -461345.98162
 91  4 25 20 21 30.0000000  0  6G18G 2G16G11G 6G19
  21285340.344     2563897.913 7   1979579.91123
  22423159.3984   -6724900.67546  -5113280.53061
  23684004.3364   -3446556.88045  -2536969.59861
  23176541.305    -4147522.071 6  -3141846.91621
  24005172.5164   -2351155.88144  -1674064.37761
  20808435.8054    -616803.29647   -462298.07662
 91  4 25 20 21 45.0000000  0  6G18G 2G16G11G 6G19
  21290399.008     2590487.226 7   2000298.80223
  22414518.6334   -6770310.42746  -5148664.62161
  23679378.664    -3470861.584 5  -2555908.32221
  23172324.703    -4169673.825 6  -3159108.00821
  23997736.4614   -2390251.10945  -1704527.99361
  20808216.6884    -617971.57347   -463208.42162
 91  4 25 20 22  0.0000000  0  6G18G 2G16G11G 6G19
  21295480.289     2617186.171 7   2021103.12523
  22405891.5864   -6815639.05546  -5183985.51061
  23674778.1024   -3495023.83645  -2574736.05961
  23168136.328    -4191678.670 6  -3176254.62421
  23990302.406    -2429318.624 5  -1734970.05621
  20808002.0084    -619084.26147   -464075.45063
 91  4 25 20 22 15.0000000  0  6G18G 2G16G11G 6G19
  21300582.508     2643995.049 7   2041993.11123
  22397280.3204   -6860886.05746  -5219242.79361
  23670209.195    -3519043.658 5  -2593452.78621
  23163978.023    -4213536.047 6  -3193286.32621
  23982868.914    -2468358.436 4  -1765390.54621
  20807802.9924    -620141.11247   -464898.97663
 91  4 25 20 22 30.0000000  0  6G18G 2G16G11G 6G19
  21305703.703     2670908.138 7   2062964.30023
  22388685.7734   -6906056.49046  -5254440.41361
  23665661.445    -3542926.173 5  -2612062.56221
  23159845.180    -4235251.029 6  -3210207.07421
  23975446.4224   -2507375.45145  -1795793.19761
  20807609.9454    -621147.31147   -465683.02663
 91  4 25 20 22 45.0000000  0  6G18G 2G16G11G 6G19
  21310845.297     2697927.647 8   2084018.42223
  22380102.0084   -6951148.22346  -5289576.70261
  23661146.0004   -3566669.14845  -2630563.56861
  23155738.609    -4256821.252 6  -3227015.02321
  23968027.008    -2546367.875 5  -1826176.77721
  20807431.1094    -622100.66047   -466425.89463
 91  4 25 20 23  0.0000000  0  6G18G 2G16G11G 6G19
  21316007.070     2725053.457 7   2105155.36923
  22371538.6334   -6996160.81246  -5324651.32861
  23656655.3284   -3590271.94245  -2648955.34761
  23151663.719    -4278246.404 6  -3243709.93721
  23960613.430    -2585335.405 5  -1856540.87921
  20807257.7584    -623000.98947   -467127.45062
 91  4 25 20 23 15.0000000  0  6G18G 2G16G11G 6G19
  21321189.891     2752288.634 7   2126377.54023
  22362988.0084   -7041090.83346  -5359661.61261
  23652187.8914   -3613731.36845  -2667235.43061
  23147616.3524   -4299522.90946  -3260289.01961
  23953203.4454   -2624274.81545  -1886883.10561
  20807099.8594    -623844.98747   -467785.11363
 91  4 25 20 23 30.0000000  0  6G18G 2G16G11G 6G19
  21326393.141     2779634.023 7   2147685.59223
  22354454.6564   -7085937.66346  -5394607.07561
  23647752.063    -3637046.673 5  -2685403.21721
  23143593.711    -4320649.746 6  -3276751.47121
  23945796.6024   -2663185.47345  -1917202.94261
  20806946.7814    -624631.83547   -468398.24362
 91  4 25 20 23 45.0000000  0  6G18G 2G16G11G 6G19
  21331616.602     2807085.999 7   2169076.69823
  22345935.8134   -7130704.72846  -5429490.38061
  23643342.6564   -3660221.11345  -2703461.20861
  23139602.773    -4341630.241 6  -3293099.89421
  23938396.5164   -2702070.92045  -1947503.13461
  20806809.8364    -625365.02247   -468969.55862
 91  4 25 20 24  0.0000000  0  6G18G 2G16G11G 6G19
  21336861.586     2834643.295 7   2190549.87023
  22337431.0164   -7175392.91946  -5464312.23361
  23638962.609    -3683255.803 5  -2721410.34421
  23135635.203    -4362465.264 6  -3309334.95721
  23931001.3364   -2740932.29645  -1977784.51161
  20806678.9224    -626045.55147   -469499.84463
 91  4 25 20 24 15.0000000  0  6G18G 2G16G11G 6G19
  21342126.125     2862309.208 7   2212107.67923
  22328943.8914   -7219998.57547  -5499069.77161
  23634602.8134   -3706147.26345  -2739247.84061
  23131699.578    -4383151.199 6  -3325453.85521
  23923609.164    -2779766.176 5  -2008044.55321
  20806560.8134    -626669.95347   -469986.39063
 91  4 25 20 24 30.0000000  0  6G18G 2G16G11G 6G19
  21347409.867     2890080.109 7   2233747.29623
  22320471.227    -7264525.080 7  -5533765.63121
  23630272.7974   -3728898.75445  -2756976.26361
  23127792.9384   -4403691.33746  -3341459.14761
  23916227.883    -2818576.233 5  -2038285.95921
  20806451.8134    -627241.91047   -470432.07462
 91  4 25 20 24 44.9990000  0  6G18G 2G16G11G 6G19
  21352716.378     2917957.553 7   2255469.93223
  22312012.3704   -7308965.52347  -5568394.42561
  23625973.1754   -3751504.96445  -2774591.49861
  23123911.7304   -4424080.38846  -3357346.70461
  23908847.073    -2857356.037 5  -2068503.83021
  20806354.3624    -627757.63947   -470833.94063
 91  4 25 20 24 59.9990000  0  6G18G 2G16G11G 6G19
  21358039.933     2945937.156 7   2277272.17323
  22303568.386    -7353333.990 7  -5602967.14621
  23621695.480    -3773976.937 5  -2792102.12021
  23120059.3944   -4444328.81846  -3373124.68461
  23901471.214    -2896118.800 5  -2098708.42521
  20806264.1594    -628224.93347   -471198.06462
 91  4 25 20 25 14.9990000  0  6G18G 2G16G11G 6G19
  21363384.105     2974019.927 7   2299154.80723
  22295143.183    -7397624.318 7  -5637478.97322
  23617448.1594   -3796310.03645  -2809504.54661
  23116232.6284   -4464432.20046  -3388789.65161
  23894101.1204   -2934859.10245  -2128895.48961
  20806187.2614    -628640.80547   -471522.12063
 91  4 25 20 25 29.9990000  0  6G18G 2G16G11G 6G19
  21368748.120     3002208.106 7   2321119.57623
  22286729.003    -7441834.225 7  -5671928.14121
  23613223.8944   -3818502.10445  -2826797.06861
  23112437.120    -4484388.020 6  -3404339.63021
  23886730.183    -2973574.791 5  -2159063.37321
  20806115.6674    -629003.14447   -471804.46663
 91  4 25 20 25 44.9990000  0  6G18G 2G16G11G 6G19
  21374131.917     3030502.031 7   2343166.74023
  22278331.644    -7485962.842 7  -5706313.96422
  23609028.4484   -3840552.15245  -2843978.91761
  23108666.9404   -4504195.53346  -3419774.04461
  23879369.6444   -3012265.28245  -2189211.65461
  20806059.9874    -629311.25747   -472044.55163
 91  4 25 20 25 59.9990000  0  6G18G 2G16G11G 6G19
  21379535.112     3058900.017 7   2365294.99123
  22269946.831    -7530011.553 7  -5740637.52421
  23604859.7764   -3862461.64845  -2861051.25461
  23104927.2144   -4523855.85546  -3435093.77561
  23872009.2694   -3050932.11945  -2219341.45861
  20806009.0974    -629566.69347   -472243.59462
 91  4 25 20 26 14.9990000  0  6G18G 2G16G11G 6G19
  21384960.378     3087400.717 7   2387503.28023
  22261582.019    -7573981.588 7  -5774899.77722
  23600717.3394   -3884231.93945  -2878015.11761
  23101212.886    -4543370.019 6  -3450299.60221
  23864656.558    -3089576.492 5  -2249453.77621
  20805971.6754    -629770.64347   -472402.51962
 91  4 25 20 26 29.9990000  0  6G18G 2G16G11G 6G19
  21390403.042     3116003.207 7   2409790.88623
  22253229.753    -7617873.354 7  -5809101.04622
  23596595.6054   -3905863.46345  -2894870.85661
  23097526.3084   -4562738.60346  -3465391.99961
  23857305.690    -3128199.138 5  -2279549.18721
  20805942.8704    -629923.74947
 91  4 25 20 26 44.9990000  0  6G18G 2G16G11G 6G19
  21395864.487     3144705.253 7   2432156.06523
  22244890.870    -7661689.169 7  -5843243.12821
  23592508.4724   -3927358.26745  -2911620.06461
  23093868.8624   -4581963.61146  -3480372.52061
  23849959.753    -3166802.322 5  -2309629.40821
  20805921.2614    -630027.97647
 91  4 25 20 26 59.9990000  0  6G18G 2G16G11G 6G19
  21401344.823     3173508.678 7   2454600.24123
  22236569.206    -7705426.790 7  -5877324.28821
  23588449.4954   -3948714.10545  -2928260.96661
  23090234.526    -4601042.779 6  -3495239.39321
  23842621.628    -3205384.100 5  -2339693.00521
  20805912.3004    -630081.41847
 91  4 25 20 27 14.9990000  0  6G18G 2G16G11G 6G19
  21406846.245     3202413.242 7   2477123.22023
  22228260.683    -7749086.119 7  -5911344.43821
  23584407.7614   -3969931.38345  -2944793.91061
  23086634.480    -4619975.878 6  -3509992.43821
  23835277.230    -3243944.422 5  -2369739.81721
  20805912.2374    -630084.11547
 91  4 25 20 27 29.9990000  0  6G18G 2G16G11G 6G19
  21412366.644     3231421.705 7   2499727.16523
  22219968.167    -7792664.096 7  -5945301.19821
  23580399.3864   -3991006.89645  -2961216.38461
  23083058.855    -4638759.978 6  -3524629.38621
  23827948.2144   -3282480.59745  -2399767.84061
  20805921.7614    -630033.07247
 91  4 25 20 27 44.9990000  0  6G18G 2G16G11G 6G19
  21417906.565     3260533.125 7   2522411.33823
  22211687.620    -7836161.599 7  -5979195.25021
  23576412.034    -4011941.548 5  -2977529.11621
  23079513.605    -4657395.703 6  -3539150.71721
  23820622.0974   -3320993.57345  -2429777.83561
  20805941.9174    -629929.08947
 91  4 25 20 27 59.9990000  0  6G18G 2G16G11G 6G19
  21423464.448     3289745.089 7   2545173.85523
  22203426.964    -7879580.823 7  -6013028.30522
  23572456.503    -4032737.487 5  -2993733.75421
  23075994.573    -4675885.180 6  -3553558.08821
  23813292.0654   -3359485.51045  -2459771.34261
  20805969.222     -629774.414 7
 91  4 25 20 28 14.9990000  0  6G18G 2G16G11G 6G19
  21429042.370     3319057.547 7   2568014.67623
  22195179.5654   -7922921.21947  -6046799.94462
  23568527.2924   -4053394.23245  -3009829.92261
  23072504.526    -4694227.789 6  -3567851.01321
  23805972.878    -3397956.197 5  -2489748.34421
  20806010.6124    -629568.67047
 91  4 25 20 28 29.9990000  0  6G18G 2G16G11G 6G19
  21434640.550     3348473.526 7   2590936.17623
  22186948.276    -7966179.587 7  -6080507.65921
  23564621.2924   -4073908.66045  -3025815.20361
  23069041.4094   -4712420.20346  -3582026.91661
  23798654.909    -3436402.520 5  -2519706.38321
  20806059.5584    -629308.83047   -472042.68363
 91  4 25 20 28 44.9990000  0  6G18G 2G16G11G 6G19
  21440257.5974    3377988.86247   2613935.08163
  22178731.339    -8009360.183 7  -6114154.77621
  23560744.0114   -4094284.85145  -3041692.75861
  23065610.480    -4730466.625 6  -3596089.04621
  23791344.362    -3474828.895 5  -2549648.82521
  20806117.9804    -628999.03847   -471801.28863
 91  4 25 20 28 59.9990000  0  6G18G 2G16G11G 6G19
  21445893.526     3407605.062 7   2637012.58723
  22170527.8624   -8052460.86747  -6147739.62461
  23556892.737    -4114521.049 5  -3057461.23921
  23062204.605    -4748364.782 6  -3610035.64821
  23784035.8154   -3513233.17145  -2579574.08561
  20806184.9724    -628637.13347   -471519.28962
 91  4 25 20 29 14.9990000  0  6G18G 2G16G11G 6G19
  21451547.5734    3437320.48147   2660167.40663
  22162341.651    -8095483.084 7  -6181263.33322
  23553070.8864   -4134618.49145  -3073121.59061
  23058825.542    -4766116.071 6  -3623867.80321
  23776731.5194   -3551617.28545  -2609483.63461
  20806264.4334    -628225.05447   -471198.19263
 91  4 25 20 29 29.9990000  0  6G18G 2G16G11G 6G19
  21457221.120     3467138.112 7   2683401.86823
  22154171.190    -8138423.851 7  -6214723.56922
  23549271.6284   -4154574.23845  -3088671.53061
  23055474.472    -4783717.344 6  -3637583.06721
  23769427.034    -3589978.157 5  -2639375.06221
  20806352.7374    -627759.69847   -470835.58163
 91  4 25 20 29 44.9990000  0  6G18G 2G16G11G 6G19
  21462915.323     3497058.339 7   2706716.27923
  22146014.769    -8181282.179 7  -6248119.56522
  23545501.5974   -4174387.60545  -3104110.52261
  23052153.9564   -4801167.70546  -3651180.74361
  23762137.136    -3628315.032 5  -2669247.80521
  20806452.0344    -627240.15447   -470430.74762
 91  4 25 20 29 59.9990000  0  6G18G 2G16G11G 6G19
  21468627.261     3527077.909 7   2730108.10123
  22137874.4174   -8224061.11047  -6281453.70162
  23541757.464    -4194061.420 5  -3119440.77321
  23048862.980    -4818470.076 6  -3664663.10021
  23754843.308    -3666630.966 5  -2699104.21721
  20806558.5584    -626669.55447   -469986.12562
 91  4 25 20 30 14.9990000  0  6G18G 2G16G11G 6G19
  21474358.8864    3557193.78647   2753574.95963
  22129748.0894   -8266763.56947  -6314728.24062
  23538038.237    -4213598.922 5  -3134664.81721
  23045601.042    -4835627.329 6  -3678032.36821
  23747556.636    -3704929.170 5  -2728946.80721
  20806678.2924    -626050.95047   -469504.09862
 91  4 25 20 30 29.9990000  0  6G18G 2G16G11G 6G19
  21480108.901     3587407.861 7   2777118.33823
  22121636.980    -8309387.222 7  -6347941.37322
  23534345.370    -4232997.601 5  -3149780.68121
  23042362.323    -4852636.975 6  -3691286.62421
  23740273.4334   -3743207.54745  -2758773.99361
  20806804.1754    -625382.02847   -468982.86363
 91  4 25 20 30 44.9990000  0  6G18G 2G16G11G 6G19
  21485877.300     3617722.460 7   2800740.04923
  22113541.2224   -8351929.26547  -6381090.92162
  23530684.370    -4252254.711 5  -3164786.24021
  23039152.940    -4869496.179 6  -3704423.64721
  23732994.0814   -3781463.40745  -2788583.57061
  20806943.2064    -624659.96247   -468420.22163
 91  4 25 20 30 59.9990000  0  6G18G 2G16G11G 6G19
  21491664.8944    3648137.59547   2824440.09162
  22105461.3234   -8394389.91747  -6414177.04562
  23527045.1204   -4271370.37345  -3179681.57061
  23035975.105    -4886204.907 6  -3717443.41521
  23725716.0504   -3819696.71145  -2818375.61561
  20807090.1284    -623884.72247   -467816.14062
 91  4 25 20 31 14.9990000  0  6G18G 2G16G11G 6G19
  21497471.245     3678648.945 7   2848215.11723
  22097395.105    -8436773.004 7  -6447202.71622
  23523434.230    -4290348.393 5  -3194469.64821
  23032821.6834   -4902767.12746  -3730349.01561
  23718446.370    -3857911.839 5  -2848153.49921
  20807248.4644    -623060.66847   -467174.01962
 91  4 25 20 31 29.9990000  0  6G18G 2G16G11G 6G19
  21503296.144     3709262.283 7   2872069.61022
  22089346.9014   -8479072.27047  -6480163.08462
  23519850.597    -4309182.655 6  -3209145.71521
  23029700.425    -4919176.576 6  -3743135.57721
  23711177.3154   -3896102.69645  -2877912.44361
  20807414.3004    -622181.53947   -466488.98262
 91  4 25 20 31 44.9990000  0  6G18G 2G16G11G 6G19
  21509141.823     3739973.255 7   2896000.18623
  22081311.7454   -8521292.29347  -6513061.70862
  23516292.6674   -4327877.99945  -3223713.52761
  23026603.081    -4935437.498 6  -3755806.40721
  23703914.089    -3934273.808 5  -2907656.01121
  20807592.7454    -621251.79947   -465764.51263
 91  4 25 20 31 59.9990000  0  6G18G 2G16G11G 6G19
  21515004.792     3770785.501 7   2920009.67322
  22073293.0654   -8563429.16647  -6545895.53762
  23512763.0194   -4346430.52845  -3238170.05861
  23023539.690    -4951546.017 6  -3768358.47521
  23696651.097    -3972421.507 5  -2937381.34121
  20807778.1054    -620267.67347   -464997.66662
 91  4 25 20 32 14.9990000  0  6G18G 2G16G11G 6G19
  21520887.112     3801698.586 7   2944097.73723
  22065293.6444   -8605482.94247  -6578664.61962
  23509259.245    -4364840.313 6  -3252515.36621
  23020503.065    -4967502.279 6  -3780791.90321
  23689400.167    -4010545.748 5  -2967088.38621
  20807977.6444    -619229.39147   -464188.61963
 91  4 25 20 32 29.9990000  0  6G18G 2G16G11G 6G19
  21526788.823     3832709.823 7   2968262.28023
  22057303.894    -8647455.496 7  -6611370.40422
  23505781.7844   -4383109.41545  -3266751.05361
  23017494.003    -4983308.146 6  -3793108.14121
  23682149.3704   -4048649.04145  -2996779.14261
  20808183.8474    -618139.02147   -463338.98163
 91  4 25 20 32 44.9990000  0  6G18G 2G16G11G 6G19
  21532709.1124    3863822.28847   2992505.70363
  22049335.8004   -8689343.71647  -6644010.47962
  23502335.175    -4401234.769 6  -3280874.71521
  23014514.972    -4998960.373 6  -3805304.66621
  23674902.722    -4086728.233 5  -3026451.04321
  20808402.4254    -616993.26747   -462446.18662
 91  4 25 20 32 59.9990000  0  6G18G 2G16G11G 6G19
  21538649.425     3895036.219 7   3016828.19323
  22041376.4484   -8731147.29147  -6676584.60162
  23498911.495    -4419215.855 6  -3294885.97021
  23011566.862    -5014458.496 6  -3817381.10321
  23667660.6904   -4124782.90645  -3056103.92361
  20808629.5034    -615791.90947   -461510.06663
 91  4 25 20 33 14.9990000  0  6G18G 2G16G11G 6G19
  21544607.620     3926350.612 7   3041228.95923
  22033438.5584   -8772867.11347  -6709093.45662
  23495518.9874   -4437053.68346  -3308785.59161
  23008648.620    -5029803.247 6  -3829338.03421
  23660420.5504   -4162814.20445  -3085738.54161
  20808870.6514    -614535.87647   -460531.34463
 91  4 25 20 33 29.9990000  0  6G18G 2G16G11G 6G19
  21550584.894     3957760.328 7   3065704.00623
  22025515.620    -8814507.817 7  -6741540.65422
  23492147.855    -4454752.934 6  -3322577.23221
  23005756.776    -5044999.188 6  -3841179.01121
  23653189.5734   -4200826.81145  -3115358.62061
  20809120.0424    -613229.93647   -459513.73063
 91  4 25 20 33 44.9990000  0  6G18G 2G16G11G 6G19
  21556580.917     3989273.974 7   3090260.04523
  22017607.3314   -8856060.42647  -6773919.22162
  23488808.284    -4472304.748 5  -3336253.98921
  23002894.800    -5060037.514 6  -3852897.16921
  23645963.159    -4238812.111 5  -3144957.39221
  20809377.6674    -611865.27647   -458450.36062
 91  4 25 20 33 59.9990000  0  6G18G 2G16G11G 6G19
  21562597.925     4020886.345 7   3114893.01123
  22009718.0584   -8897530.09647  -6806233.15362
  23485499.003    -4489714.389 6  -3349819.95821
  23000059.651    -5074923.267 6  -3864496.42921
  23638733.6204   -4276775.18445  -3174538.85461
  20809646.5814    -610446.93647   -457345.15963
 91  4 25 20 34 14.9990000  0  6G18G 2G16G11G 6G19
  21568630.526     4052597.985 7   3139603.33023
  22001839.4094   -8938916.08847  -6838481.87962
  23482211.940    -4506981.175 6  -3363274.61421
  22997256.597    -5089655.561 6  -3875976.11621
  23631515.480    -4314715.695 5  -3204102.75221
  20809927.4954    -608974.29847   -456197.65262
 91  4 25 20 34 29.9990000  0  6G18G 2G16G11G 6G19
  21574685.417     4084405.918 7   3164388.67623
  21993980.1124   -8980220.95947  -6870667.39962
  23478951.6904   -4524107.57745  -3376619.86061
  22994482.940    -5104236.934 6  -3887338.20421
  23624302.284    -4352636.161 5  -3233651.02021
  20810217.4014    -607449.73147   -455009.67863
 91  4 25 20 34 44.9990000  0  6G18G 2G16G11G 6G19
  21580757.550     4116314.293 7   3189252.29323
  21986137.3944   -9021439.97747  -6902786.02062
  23475719.597    -4541088.785 6  -3389851.99421
  22991737.495    -5118662.624 6  -3898578.98321
  23617088.5814   -4390531.94645  -3263180.04461
  20810519.6444    -605868.61747   -453777.64262
 91  4 25 20 34 59.9990000  0  6G18G 2G16G11G 6G19
  21586848.214     4148320.597 7   3214192.21523
  21978309.5814   -9062575.78947  -6934839.80162
  23472516.6754   -4557927.98545  -3402973.45561
  22989024.5894   -5132935.35346  -3909700.57661
  23609881.1054   -4428405.78345  -3292692.00861
  20810827.6594    -604233.88947   -452503.83163
 91  4 25 20 35 14.9990000  0  6G18G 2G16G11G 6G19
  21592955.003     4180422.636 7   3239206.74023
  21970495.9644   -9103630.37647  -6966830.29962
  23469339.839    -4574627.148 5  -3415985.81221
  22986331.870    -5147056.871 6  -3920704.34321
  23602680.433    -4466260.046 5  -3322188.65221
  20811151.9804    -602547.61547   -451189.85562
 91  4 25 20 35 29.9990000  0  6G18G 2G16G11G 6G19
  21599082.511     4212618.996 7   3264294.76223
  21962698.6834   -9144604.74947  -6998758.28462
  23466187.8474   -4591187.07745  -3428889.66861
  22983675.206    -5161028.073 6  -3931590.98021
  23595475.3784   -4504095.53345  -3351670.72561
  20811481.1904    -600810.46447   -449836.23063
 91  4 25 20 35 44.9990000  0  6G18G 2G16G11G 6G19
  21605229.128     4244914.111 7   3289459.73723
  21954918.5194   -9185494.27347  -7030620.15862
  23463065.0424   -4607603.15645  -3441681.42861
  22981045.480    -5174844.341 6  -3942356.89621
  23588280.9334   -4541907.92345  -3381134.77461
  20811823.1984    -599018.03647   -448439.53363
 91  4 25 20 35 59.9990000  0  6G18G 2G16G11G 6G19
  21611392.815     4277306.267 7   3314700.32522
  21947154.0654   -9226300.04847  -7062416.77562
  23459966.690    -4623876.615 5  -3454362.06821
  22978445.6834   -5188506.75646  -3953002.92261
  23581090.401    -4579698.555 5  -3410581.87221
  20812171.4014    -597171.66947   -447000.81163
 91  4 25 20 36 14.9990000  0  6G18G 2G16G11G 6G19
  21617575.487     4309794.090 7   3340015.45422
  21939403.6054   -9267023.35247  -7094149.12362
  23456899.737    -4640008.723 6  -3466932.56021
  22975873.8314   -5202016.53746  -3963530.00861
  23573904.2064   -4617468.60145  -3440012.93161
  20812536.8944    -595272.53347   -445520.96362
 91  4 25 20 36 29.9990000  0  6G18G 2G16G11G 6G19
  21623775.940     4342379.273 7   3365406.45522
  21931669.9254   -9307662.48147  -7125815.88562
  23453856.1444   -4655997.87845  -3479391.67661
  22973335.003    -5215371.816 6  -3973936.71121
  23566719.644    -4655216.445 5  -3469426.70021
  20812906.9484    -593319.01347   -443998.73563
 91  4 25 20 36 44.9990000  0  6G18G 2G16G11G 6G19
  21629994.6834    4375063.86847   3390874.91062
  21923952.9174   -9348215.01647  -7157415.17162
  23450839.7764   -4671841.84745  -3491737.62261
  22970820.9254   -5228570.07946  -3984221.06861
  23559544.769    -4692939.774 5  -3498821.34921
  20813290.9094    -591308.65647   -442432.22863
 91  4 25 20 36 59.9990000  0  6G18G 2G16G11G 6G19
  21636232.644     4407844.669 7   3416418.34122
  21916252.7374   -9388683.79847  -7188949.19462
  23447852.9644   -4687543.44745  -3503972.67261
  22968340.839    -5241614.265 6  -3994385.34721
  23552365.472    -4730641.758 5  -3528199.38821
  20813681.9254    -589244.42247   -440823.73363
 91  4 25 20 37 14.9990000  0  6G18G 2G16G11G 6G19
  21642489.394     4440719.700 7   3442035.19622
  21908568.7614   -9429070.48147  -7220419.24862
  23444892.276    -4703104.386 5  -3516098.08721
  22965888.2374   -5254505.91746  -4004430.79361
  23545196.144    -4768324.009 5  -3557562.02521
  20814085.9724    -587127.91347   -439174.51063
 91  4 25 20 37 29.9990000  0  6G18G 2G16G11G 6G19
  21648763.456     4473689.871 7   3467726.18622
  21900897.8624   -9469374.06247  -7251824.54862
  23441955.8554   -4718523.77845  -3528113.19961
  22963463.8704   -5267244.05546  -4014356.60461
  23538029.831    -4805985.909 5  -3586908.84621
  20814498.1904    -584958.15047   -437483.78263
 91  4 25 20 37 44.9990000  0  6G18G 2G16G11G 6G19
  21655054.886     4506756.017 7   3493491.96822
  21893243.6364   -9509593.39147  -7283164.19162
  23439047.4954   -4733800.66345  -3540017.30661
  22961067.5114   -5279827.45046  -4024161.84461
  23530868.355    -4843626.221 5  -3616238.80221
  20814922.2924    -582734.13747   -435750.79063
 91  4 25 20 37 59.9990000  0  6G18G 2G16G11G 6G19
  21661366.745     4539918.457 7   3519332.77822
  21885607.5034   -9549727.69347  -7314437.58462
  23436169.5194   -4748934.38345  -3551809.82161
  22958703.487    -5292255.265 6  -4033845.84121
  23523707.3314   -4881244.26645  -3645551.42861
  20815353.7534    -580455.06247   -433974.88463
 91  4 25 20 38 14.9990000  0  6G18G 2G16G11G 6G19
  21667695.519     4573177.290 7   3545248.70222
  21877985.6904   -9589776.70747  -7345644.51462
  23433317.659    -4763924.549 5  -3563490.49421
  22956366.5734   -5304527.28546  -4043408.44461
  23516555.722    -4918840.144 5  -3674846.77821
  20815800.1984    -578120.73247   -432155.92963
 91  4 25 20 38 29.9990000  0  6G18G 2G16G11G 6G19
  21674042.440     4606531.668 7   3571239.07522
  21870375.9874   -9629741.01647  -7376785.43962
  23430490.651    -4778771.890 5  -3575059.86321
  22954065.1054   -5316644.15946  -4052850.15861
  23509401.667    -4956414.413 5  -3704125.30521
  20816252.6514    -575731.89547   -430294.50363
 91  4 25 20 38 44.9990000  0  6G18G 2G16G11G 6G19
  21680407.948     4639981.057 7   3597303.48122
  21862789.3944   -9669621.03047  -7407860.68262
  23427692.042    -4793476.697 5  -3586518.17521
  22951788.2764   -5328605.95746  -4062171.02861
  23502258.4644   -4993967.55545  -3733387.34861
  20816718.7534    -573288.90347   -428390.87263
 91  4 25 20 38 59.9990000  0  6G18G 2G16G11G 6G19
  21686790.495     4673522.569 7   3623439.67423
  21855218.8864   -9709419.29247  -7438872.22162
  23424924.5584   -4808041.69845  -3597867.55161
  22949538.386    -5340415.298 6  -4071373.10821
  23495112.886    -5031502.240 5  -3762635.01321
  20817195.7924    -570794.37547   -426447.08563
 91  4 25 20 39 14.9990000  0  6G18G 2G16G11G 6G19
  21693191.331     4707155.639 7   3649647.20522
  21847659.9644   -9749136.03947  -7469820.24662
  23422176.628    -4822467.326 5  -3609108.30921
  22947322.5114   -5352072.39446  -4080456.55461
  23487975.3704   -5069018.74945  -3791868.52461
  20817677.4564    -568248.56947   -424463.33963
 91  4 25 20 39 29.9990000  0  6G18G 2G16G11G 6G19
  21699607.612     4740881.968 7   3675927.41122
  21840118.8554   -9788769.33947  -7500703.24562
  23419459.2534   -4836751.46545  -3620238.83261
  22945132.3864   -5363575.25746  -4089419.81261
  23480836.042    -5106515.432 5  -3821086.56621
  20818172.3394    -565649.57247   -422438.14863
 91  4 25 20 39 44.9990000  0  6G18G 2G16G11G 6G19
  21706043.362     4774696.959 7   3702276.70022
  21832590.9404   -9828323.55047  -7531524.61862
  23416762.8154   -4850898.93445  -3631262.83461
  22942969.6674   -5374928.23946  -4098266.28061
  23473707.1904   -5143996.47245  -3850292.45361
  20818676.7844    -563001.82347   -420374.96663
 91  4 25 20 39 59.9990000  0  6G18G 2G16G11G 6G19
  21712495.2614    4808601.39947   3728695.68862
  21825076.6754   -9867797.64647  -7562283.56762
  23414099.464    -4864908.195 5  -3642179.17821
  22940841.2374   -5386130.07246  -4106994.97561
  23466575.769    -5181461.147 5  -3879485.54921
  20819189.5504    -560304.18147   -418272.91362
 91  4 25 20 40 14.9990000  0  6G18G 2G16G11G 6G19
  21718965.323     4842599.219 7   3755187.44122
  21817581.6204   -9907187.24147  -7592976.67062
  23411460.0114   -4878775.27145  -3652984.67961
  22938736.6984   -5397176.55146  -4115602.61561
  23459446.644    -5218905.233 5  -3908662.62321
  20819713.2374    -557552.55347   -416128.78863
 91  4 25 20 40 29.9990000  0  6G18G 2G16G11G 6G19
  21725451.815     4876689.037 7   3781750.88122
  21810104.4404   -9946493.33047  -7623604.69562
  23408849.753    -4892501.606 5  -3663680.55221
  22936665.683    -5408068.732 6  -4124090.01621
  23452330.776    -5256329.861 5  -3937824.53121
  20820247.5194    -554747.70647   -413943.19363
 91  4 25 20 40 44.9990000  0  6G18G 2G16G11G 6G19
  21731956.9954    4910871.77447   3808386.71662
  21802639.5894   -9985715.01647  -7654166.95662
  23406264.6204   -4906086.00245  -3674265.81061
  22934620.831    -5418805.587 6  -4132456.38821
  23445208.808    -5293734.210 5  -3966970.64921
  20820792.0114    -551888.80347   -411715.48063
 91  4 25 20 40 59.9990000  0  6G18G 2G16G11G 6G19
  21738479.0194    4945144.98147   3835093.05462
  21795192.4724  -10024854.41047  -7684665.09962
  23403707.800    -4919530.809 6  -3684742.29621
  22932608.7614   -5429389.31446  -4140703.43361
  23438097.144    -5331120.539 5  -3996102.72121
  20821345.1514    -548978.08646   -409447.39163
 91  4 25 20 41 14.9990000  0  6G18G 2G16G11G 6G19
  21745018.722     4979511.010 7   3861871.72622
  21787760.6204  -10063908.77147  -7715096.98062
  23401174.4014   -4932833.05846  -3695107.70861
  22930625.2374   -5439816.95346  -4148828.86161
  23430988.089    -5368486.060 5  -4025218.56221
  20821910.2764    -546012.66247   -407136.67563
 91  4 25 20 41 29.9990000  0  6G18G 2G16G11G 6G19
  21751575.6754    5013965.52247   3888719.33562
  21780345.2144  -10102882.32347  -7745465.89162
  23398669.300    -4945997.218 6  -3705365.50421
  22928665.4564   -5450092.84646  -4156836.03961
  23423881.9564   -5405835.27145  -4054321.70961
  20822482.3084    -542996.88347   -404786.71763
 91  4 25 20 41 44.9990000  0  6G18G 2G16G11G 6G19
  21758148.9254    5048512.17947   3915638.74962
  21772941.690   -10141771.462 7  -7775769.04022
  23396192.128    -4959019.878 6  -3715513.05621
  22926744.9014   -5460213.29446  -4164722.10161
  23416778.7924   -5443164.57545  -4083409.33461
  20823067.5424    -539927.28847   -402394.83463
 91  4 25 20 41 59.9990000  0  6G18G 2G16G11G 6G19
  21764739.2924    5083144.08247   3942624.58862
  21765557.2224  -10180582.34347  -7806011.19462
  23393739.2534   -4971907.24846  -3725555.18261
  22924844.5114   -5470184.30946  -4172491.72361
  23409674.3704   -5480480.24145  -4112486.34961
  20823659.6514    -536809.86947   -399965.67663
 91  4 25 20 42 14.9990000  0  6G18G 2G16G11G 6G19
  21771347.3784    5117868.48147   3969682.50262
  21758187.6054  -10219307.37547  -7836186.46062
  23391315.144    -4984651.575 6  -3735485.84021
  22922980.019    -5479998.347 6  -4180139.01521
  23402578.987    -5517774.749 5  -4141546.84221
  20824265.2374    -533637.09347   -397493.38663
 91  4 25 20 42 29.9990000  0  6G18G 2G16G11G 6G19
  21777972.909     5152682.468 7   3996810.22922
  21750833.222   -10257949.149 7  -7866296.85122
  23388915.753    -4997255.964 6  -3745307.44921
  22921142.4804   -5489658.11646  -4187666.11561
  23395484.9954   -5555050.84645  -4170593.01961
  20824875.8084    -530411.78747   -394980.16863
 91  4 25 20 42 44.9990000  0  6G18G 2G16G11G 6G19
  21784614.0734    5187585.77247   4024007.54762
  21743497.698   -10296507.985 7  -7896342.61222
  23386545.2454   -5009720.58446  -3755020.18261
  22919330.3154   -5499163.86246  -4195073.19061
  23388395.0424   -5592309.02145  -4199625.22661
  20825502.4484    -527134.26247   -392426.25663
 91  4 25 20 42 59.9990000  0  6G18G 2G16G11G 6G19
  21791272.8864    5222584.75647   4051279.42362
  21736176.886   -10334977.062 7  -7926318.43722
  23384200.550    -5022038.625 6  -3764618.66521
  22917549.9954   -5508508.81746  -4202354.96961
  23381306.276    -5629542.483 5  -4228638.16221
  20826136.3624    -523797.77247   -389826.39863
 91  4 25 20 43 14.9990000  0  6G18G 2G16G11G 6G19
  21797950.714     5257675.209 7   4078622.58022
  21728873.9254  -10373360.40447  -7956227.44662
  23381884.0654   -5034214.20946  -3774106.17561
  22915802.0974   -5517696.74146  -4209514.38261
  23374227.042    -5666755.316 5  -4257635.05521
  20826782.5424    -520406.27847   -387183.68663
 91  4 25 20 43 29.9990000  0  6G18G 2G16G11G 6G19
  21804645.7694    5292854.69147   4106035.10262
  21721582.714   -10411660.154 7  -7986071.32822
  23379591.409    -5046249.698 6  -3783484.49821
  22914085.2144   -5526729.92246  -4216553.23361
  23367152.206    -5703949.930 5  -4286617.69021
  20827436.3784    -516961.81247   -384499.68863
 91  4 25 20 43 44.9990000  0  6G18G 2G16G11G 6G19
  21811357.4014    5328120.16647   4133514.63862
  21714312.183   -10449879.142 7  -8015852.28022
  23377327.0654   -5058147.94346  -3792755.88761
  22912392.6514   -5535611.25246  -4223473.74561
  23360070.5654   -5741129.14345  -4315588.40061
  20828102.4954    -513467.18647   -381776.61163
 91  4 25 20 43 59.9990000  0  6G18G 2G16G11G 6G19
  21818084.2064    5363474.20347   4161063.16862
  21707055.581   -10488014.592 7  -8045568.14322
  23375090.9014   -5069906.43646  -3801918.36961
  22910736.4334   -5544337.79746  -4230273.66361
  23353002.292    -5778290.279 5  -4344544.94821
  20828777.8314    -509919.75947   -379012.39063
 91  4 25 20 44 14.9990000  0  6G18G 2G16G11G 6G19
  21824829.3944    5398918.27047   4188681.86262
  21699814.370   -10526064.733 7  -8075217.52522
  23372878.019    -5081523.311 6  -3810970.52021
  22909104.6834   -5552907.72646  -4236951.53161
  23345932.151    -5815431.590 5  -4373486.11321
  20829462.7304    -506317.75847   -376205.64363
 91  4 25 20 44 29.9990000  0  6G18G 2G16G11G 6G19
  21831591.7764    5434450.28447   4216369.08062
  21692587.823   -10564031.336 7  -8104801.81422
  23370695.0974   -5093000.16546  -3819913.55861
  22907502.6834   -5561322.82846  -4243508.75361
  23338871.5424   -5852554.96745  -4402413.23861
  20830157.9954    -502662.84747   -373357.66863
 91  4 25 20 44 44.9990000  0  6G18G 2G16G11G 6G19
  21838369.3944    5470072.49147   4244126.58562
  21685381.230   -10601911.695 7  -8134318.89822
  23368536.3154   -5104334.72745  -3828745.70961
  22905929.6204   -5569580.36646  -4249943.20061
  23331813.870    -5889657.862 5  -4431324.45221
  20830865.7764    -498952.46447   -370466.46863
 91  4 25 20 44 59.9990000  0  6G18G 2G16G11G 6G19
  21845165.3474    5505788.80247   4271957.40862
  21678188.917   -10639701.913 7  -8163765.74622
  23366409.5424   -5115523.20746  -3837464.03261
  22904388.8154   -5577676.55646  -4256251.92461
  23324749.933    -5926736.529 5  -4460216.78821
  20831582.0034    -495182.81547   -367529.08963
 91  4 25 20 45 14.9990000  0  6G18G 2G16G11G 6G19
  21851980.5584    5541594.56347   4299857.93962
  21671012.308   -10677406.221 7  -8193145.65222
  23364305.753    -5126569.859 6  -3846071.85121
  22902880.7924   -5585615.56046  -4262438.16361
  23317705.050    -5963795.235 5  -4489093.53621
  20832309.7064    -491358.22547   -364548.89963
 91  4 25 20 45 29.9990000  0  6G18G 2G16G11G 6G19
  21858810.5114    5577485.89947   4327825.15362
  21663855.362   -10715028.066 7  -8222461.30222
  23362230.6444   -5137478.20245  -3854571.89861
  22901399.4954   -5593400.73846  -4268504.53761
  23310653.6284   -6000837.45345  -4517957.47561
  20833045.3004    -487482.01747   -361528.48563
 91  4 25 20 45 44.9990000  0  6G18G 2G16G11G 6G19
  21865656.1674    5613468.39347   4355863.40262
  21656710.855   -10752561.865 7  -8251708.34322
  23360181.1444   -5148242.93145  -3862960.03061
  22899946.8944   -5601026.42246  -4274446.63161
  23303606.7454   -6037857.73445  -4546804.26661
  20833795.9564    -483548.44346   -358463.37163
 91  4 25 20 45 59.9990000  0  6G18G 2G16G11G 6G19
  21872521.175     5649540.124 7   4383971.18222
  21649586.573   -10790009.286 7  -8280888.07522
  23358161.4874   -5158865.70246  -3871237.55561
  22898525.5814   -5608494.44846  -4280265.88061
  23296567.8394   -6074857.86245  -4575635.43761
  20834556.9724    -479559.39246   -355355.02563
 91  4 25 20 46 14.9990000  0  6G18G 2G16G11G 6G19
  21879401.4404    5685696.97447   4412145.28962
  21642475.612   -10827374.208 7  -8310003.52422
  23356165.3474   -5169350.52645  -3879407.58261
  22897135.0344   -5615808.63746  -4285965.24261
  23289530.753    -6111841.790 5  -4604453.91321
  20835324.6904    -475518.79046   -352206.50963
 91  4 25 20 46 29.9990000  0  6G18G 2G16G11G 6G19
  21886299.0424    5721941.06147   4440387.36662
  21635383.425   -10864653.806 7  -8339052.48922
  23354198.1904   -5179694.51945  -3887467.88761
  22895772.6444   -5622966.38746  -4291542.71361
  23282494.9724   -6148806.89245  -4633257.75461
  20836101.6204    -471423.97047   -349015.75063
 91  4 25 20 46 44.9990000  0  6G18G 2G16G11G 6G19
  21893212.1594    5758266.55047   4468692.88462
  21628303.019   -10901853.916 7  -8368039.51022
  23352255.3624   -5189903.91345  -3895423.28061
  22894438.3784   -5629973.45646  -4297002.77161
  23275462.3784   -6185759.28545  -4662051.65661
  20836892.1284    -467280.71646   -345787.25063
 91  4 25 20 46 59.9990000  0  6G18G 2G16G11G 6G19
  21900140.9804    5794676.58347   4497064.27962
  21621239.151   -10938971.171 7  -8396961.97222
  23350339.097    -5199974.954 6  -3903270.89821
  22893134.4564   -5636826.26846  -4302342.62561
  23268433.784    -6222695.342 5  -4690832.87521
  20837688.6594    -463085.50847   -342518.26563
 91  4 25 20 47 14.9990000  0  6G18G 2G16G11G 6G19
  21907084.6754    5831172.25247   4525502.40262
  21614192.612   -10976004.148 7
  23348448.784    -5209906.659 6  -3911009.92721
  22891859.6284   -5643523.47846  -4307561.23361
  23261407.3314   -6259613.84845
  20838498.9564    -458837.07547   -339207.81163
 91  4 25 20 47 29.9990000  0  6G18G 2G16G11G 6G19
  21914046.206     5867753.072 7   4554006.88322
  21607161.089   -11012953.049 7
  23346585.487    -5219699.203 6  -3918640.51921
  22890614.1904   -5650065.13146  -4312658.62461
  23254387.0424   -6296514.90945
  20839314.8704    -454535.50447   -335855.94063
 91  4 25 20 47 44.9990000  0  6G18G 2G16G11G 6G19
  21921024.4094    5904421.25747   4582579.43162
  21600145.690   -11049815.680 7
  23344748.058    -5229350.328 6  -3926160.91421
  22889398.1124   -5656449.00646  -4317633.06461
  23247367.2064   -6333396.42745
  20840146.4014    -450178.60147   -332460.95763
 91  4 25 20 47 59.9990000  0  6G18G 2G16G11G 6G19
  21928018.5114    5941174.23747   4611218.05262
  21593147.1904  -11086594.05747  -8511992.49562
  23342940.3004   -5238862.34046  -3933572.92561
  22888213.2924   -5662677.29346  -4322486.27461
  23240349.269    -6370260.610 5  -4805818.22521
  20840985.3784    -445768.29047   -329024.35663
 91  4 25 20 48 14.9990000  0  6G18G 2G16G11G 6G19
  21935030.3234    5978013.71347   4639924.07762
  21586165.394   -11123286.357 7  -8540583.82022
  23341156.1984   -5248233.71246  -3940875.32061
  22887058.8234   -5668748.09146  -4327216.75861
  23233341.620    -6407105.856 5  -4834528.66521
  20841834.9564    -441302.75246   -325544.72463
 91  4 25 20 48 29.9990000  0  6G18G 2G16G11G 6G19
  21942055.4484    6014935.23147   4668694.02462
  21579197.558   -11159896.708 7  -8569111.29322
  23339398.112    -5257468.527 6  -3948071.32921
  22885934.2144   -5674665.53246  -4331827.75061
  23226334.8394   -6443935.97345  -4863227.30961
  20842693.2374    -436786.06547   -322025.23663
 91  4 25 20 48 44.9990000  0  6G18G 2G16G11G 6G19
  21949096.9254    6051939.14647   4697528.18162
  21572245.370   -11196424.139 7  -8597574.15222
  23337668.4014   -5266565.82446  -3955160.17061
  22884836.6284   -5680428.74746  -4336318.55761
  23219329.9254   -6480750.45445  -4891913.78761
  20843565.3784    -432217.42346   -318465.26363
 91  4 25 20 48 59.9990000  0  6G18G 2G16G11G 6G19
  21956155.3944    6089026.02447   4726426.98062
  21565313.042   -11232868.352 7  -8625972.16522
  23335962.808    -5275525.518 6  -3962141.80121
  22883767.6514   -5686037.35546  -4340688.90061
  23212326.167    -6517548.992 5  -4920587.82121
  20844442.0424    -427596.48547   -314864.53863
 91  4 25 20 49 14.9990000  0  6G18G 2G16G11G 6G19
  21963225.6284    6126195.70847   4755390.30662
  21558389.831   -11269229.186 7  -8654305.21322
  23334284.519    -5284347.671 6  -3969016.25521
  22882732.0424   -5691491.13846  -4344938.59561
  23205321.855    -6554331.431 5  -4949249.33121
  20845332.4874    -422923.00546   -311222.87263
 91  4 25 20 49 29.9990000  0  6G18G 2G16G11G 6G19
  21970314.6984    6163446.41947   4784416.76962
  21551489.292   -11305507.711 7  -8682574.11722
  23332631.581    -5293033.428 6  -3975784.41321
  22881722.5654   -5696791.34646  -4349068.62661
  23198327.7304   -6591099.03545  -4977899.25861
  20846230.7924    -418198.31946   -307541.30563
 91  4 25 20 49 44.9990000  0  6G18G 2G16G11G 6G19
  21977418.9724    6200776.38347   4813504.99162
  21544600.815   -11341705.654 7  -8710780.23422
  23331001.269    -5301584.770 5  -3982447.83921
  22880742.6594   -5701939.74646  -4353080.36661
  23191336.315    -6627853.654 5  -5006539.08721
  20847141.3234    -413424.04346   -303821.09263
 91  4 25 20 49 59.9990000  0  6G18G 2G16G11G 6G19
  21984538.5734    6238189.66947   4842658.13962
  21537728.8394  -11377818.67147  -8738920.17662
  23329404.605    -5309997.288 5  -3989003.11021
  22879791.3554   -5706931.95146  -4356970.38561
  23184342.573    -6664591.013 5  -5035165.45621
  20848057.7924    -408595.69047   -300058.74463
 91  4 25 20 50 14.9990000  0  6G18G 2G16G11G 6G19
  21991674.0504    6275680.86647   4871871.99562
  21530870.7144  -11413851.93147  -8766997.97162
  23327826.058    -5318275.913 5  -3995454.02721
  22878870.6834   -5711773.07546  -4360742.68661
  23177353.269    -6701316.245 5  -5063782.38221
  20848987.6754    -403718.55946   -296258.38963
 91  4 25 20 50 29.9990000  0  6G18G 2G16G11G 6G19
  21998823.0034    6313254.77347   4901150.29762
  21524029.823   -11449800.365 7  -8795009.66922
  23326276.3154   -5326415.80945  -4001796.85861
  22877980.5424   -5716458.15546  -4364393.40061
  23170367.667    -6738024.387 5  -5092385.99521
  20849923.3234    -398787.70246   -292416.17063
 91  4 25 20 50 44.9990000  0  6G18G 2G16G11G 6G19
  22005988.8704    6350906.69947   4930489.39962
  21517205.5264  -11485668.43047  -8822958.74362
  23324752.7764   -5334421.86945  -4008035.40561
  22877119.4404   -5720991.53646  -4367925.90761
  23163389.2064   -6774719.93646  -5120979.78061
  20850872.9724    -393807.54346   -288535.53463
 91  4 25 20 50 59.9990000  0  6G18G 2G16G11G 6G19
  22013169.5034    6388641.94747   4959893.42062
  21510396.2924  -11521450.62147  -8850840.90262
  23323258.9014   -5342288.46345  -4014165.24761
  22876284.9874   -5725367.86146  -4371336.03061
  23156405.5424   -6811397.53745  -5149559.58061
  20851830.1054    -388772.44346   -284612.08363
 91  4 25 20 51 14.9990000  0  6G18G 2G16G11G 6G19
  22020367.448     6426461.679 7   4989363.26722
  21503603.1834  -11557145.33847  -8878654.89862
  23321787.690    -5350014.314 5  -4020185.43521
  22875484.9874   -5729585.49546  -4374622.49861
  23149431.464    -6848055.553 5  -5178124.15421
  20852799.0654    -383680.81546   -280644.58763
 91  4 25 20 51 29.9990000  0  6G18G 2G16G11G 6G19
  22027577.9804    6464359.78947   5018894.20062
  21496828.0654  -11592758.44147  -8906405.30462
  23320342.6124   -5357605.19545  -4026100.44061
  22874710.0654   -5733650.25246  -4377789.83461
  23142459.222    -6884699.954 6  -5206678.06521
  20853779.7614    -378538.46046   -276637.56563
 91  4 25 20 51 44.9990000  0  6G18G 2G16G11G 6G19
  22034805.5584    6502337.51747   5048487.16962
  21490065.6444  -11628288.60947  -8934091.07662
  23318928.8864   -5365059.79645  -4031909.25961
  22873964.8084   -5737560.82546  -4380837.03661
  23135486.8234   -6921329.49945  -5235220.43761
  20854767.4254    -373343.94146   -272589.89363
 91  4 25 20 51 59.9990000  0  6G18G 2G16G11G 6G19
  22042046.120     6540392.160 7   5078140.06022
  21483320.2064  -11663738.18747  -8961714.05762
  23317533.7694   -5372380.89545  -4037614.04461
  22873250.0814   -5741319.74046  -4383766.06061
  23128514.831    -6957946.628 5  -5263753.12821
  20855764.8394    -368099.80347   -268503.56263
 91  4 25 20 52 14.9990000  0  6G18G 2G16G11G 6G19
  22049302.8944    6578526.16047   5107854.79562
  21476588.2224  -11699104.39247  -8989272.07263
  23316165.8394   -5379565.60245  -4043212.54261
  22872561.4804   -5744924.22746  -4386574.75461
  23121553.3234   -6994548.82845  -5292274.17261
  20856774.1054    -362803.38547   -264376.49063
 91  4 25 20 52 29.9990000  0  6G18G 2G16G11G 6G19
  22056575.1754    6616745.01947   5137635.65761
  21469876.8314  -11734381.54447  -9016760.69163
  23314826.6204   -5386608.50845  -4048700.55361
  22871907.5264   -5748368.42346  -4389258.54861
  23114595.1594   -7031130.18246  -5320778.97361
  20857793.6284    -357448.72246   -260204.03363
 91  4 25 20 52 44.9990000  0  6G18G 2G16G11G 6G19
  22063864.3314    6655041.91147   5167477.31662
  21463180.5344  -11769576.04947  -9044184.91662
  23313510.7844   -5393516.42645  -4054083.38561
  22871281.3624   -5751658.99846  -4391822.63061
  23107634.4644   -7067697.35745  -5349272.73061
  20858821.3314    -352042.35146   -255991.28463
 91  4 25 20 52 59.9990000  0  6G18G 2G16G11G 6G19
  22071166.253     6693417.171 7   5197380.05022
  21456498.2374  -11804687.20847  -9071544.19362
  23312219.308    -5400288.576 5  -4059360.40721
  22870686.6754   -5754795.09946  -4394266.34861
  23100675.6754   -7104249.62445  -5377754.87561
  20859858.9014    -346583.53846   -251737.67363
 91  4 25 20 53 14.9990000  0  6G18G 2G16G11G 6G19
  22078483.9564    6731873.11547   5227345.65462
  21449834.1124  -11839712.45047  -9098836.52462
  23310959.112    -5406922.558 5  -4064529.77421
  22870121.5584   -5757774.30846  -4396587.81161
  23093724.542    -7140784.611 6  -5406223.53621
  20860908.7454    -341069.85746   -247441.30363
 91  4 25 20 53 29.9990000  0  6G18G 2G16G11G 6G19
  22085818.5584    6770412.90747   5257376.58962
  21443184.2454  -11874648.48547  -9126059.34162
  23309722.4644   -5413415.03645  -4069588.88361
  22869579.9564   -5760593.25446  -4398784.40061
  23086776.1514   -7177298.95545  -5434676.13361
  20861970.5424    -335497.87646   -243099.50463
 91  4 25 20 53 44.9990000  0  6G18G 2G16G11G 6G19
  22093168.190     6809031.787 7   5287469.15722
  21436552.6054  -11909500.01347  -9153216.31162
  23308511.2374   -5419770.66845  -4074541.35561
  22869073.7454   -5763256.56646  -4400859.70961
  23079831.4644   -7213797.37345  -5463116.29661
  20863039.5194    -329872.16246   -238715.83963
 91  4 25 20 53 59.9990000  0  6G18G 2G16G11G 6G19
  22100530.073     6847722.074 7   5317617.35321
  21429934.6124  -11944274.26347  -9180313.06163
  23307328.026    -5425996.886 5  -4079392.99521
  22868595.1054   -5765771.69346  -4402819.55061
  23072887.175    -7250287.248 5  -5491549.81921
  20864118.1984    -324199.93346   -234295.93363
 91  4 25 20 54 14.9990000  0  6G18G 2G16G11G 6G19
  22107907.4334    6886489.36247   5347825.56661
  21423332.9334  -11978965.18347  -9207344.88162
  23306168.1904   -5432087.91045  -4084139.28461
  22868147.6124   -5768132.57246  -4404659.19361
  23065945.737    -7286762.548 5  -5519971.96421
  20865208.3234    -318475.24946   -229835.14163
 91  4 25 20 54 29.9990000  0  6G18G 2G16G11G 6G19
  22115300.1054    6925333.81547   5378093.89762
  21416747.2224  -12013572.62047  -9234311.64962
  23305037.7064   -5438043.69245  -4088780.17861
  22867728.0584   -5770339.01546  -4406378.50361
  23059006.050    -7323223.051 5  -5548382.60121
  20866306.6514    -312697.85147   -225333.28463
 91  4 25 20 54 44.9990000  0  6G18G 2G16G11G 6G19
  22122706.315     6964255.350 7   5408422.29222
  21410178.8944  -12048096.18347  -9261213.06062
  23303929.378    -5443864.033 5  -4093315.54621
  22867337.9014   -5772390.82846  -4407977.32061
  23052070.972    -7359668.725 5  -5576781.65721
  20867418.1754    -306867.52347   -220790.17663
 91  4 25 20 54 59.9990000  0  6G18G 2G16G11G 6G19
  22130126.9404    7003251.80047   5438809.06561
  21403623.4564  -12082537.88047  -9288050.67962
  23302849.3154   -5449550.98845  -4097746.96861
  22866977.3474   -5774289.92846  -4409457.14561
  23045140.784    -7396101.468 5  -5605170.66021
  20868534.5814    -300986.22446   -216207.35363
 91  4 25 20 55 14.9990000  0  6G18G 2G16G11G 6G19
  22137561.6904    7042326.16947   5469256.55561
  21397085.4254  -12116894.52547  -9314822.02763
  23301788.8084   -5455101.40145  -4102071.98761
  22866643.214    -5776033.195 6  -4410815.54321
  23038210.9564   -7432518.04545  -5633547.04861
  20869666.6834    -295050.66046   -211582.24963
 91  4 25 20 55 29.9990000  0  6G18G 2G16G11G 6G19
  22145013.183     7081476.310 7   5499763.07621
  21390563.0194  -12151167.82447  -9341528.42962
  23300759.6444   -5460517.30345  -4106292.21161
  22866341.3784   -5777622.29046  -4412053.80361
  23031281.105    -7468920.448 5  -5661912.39721
  20870805.0114    -289062.63447   -206916.26463
 91  4 25 20 55 44.9990000  0  6G18G 2G16G11G 6G19
  22152476.870     7120704.811 7   5530330.66421
  21384058.3234  -12185355.15447  -9368167.84062
  23299756.4954   -5465796.18445  -4110405.64261
  22866069.5974   -5779054.54046  -4413169.85461
  23024359.855    -7505305.902 5  -5690264.53921
  20871956.5584    -283019.24846   -202207.13663
 91  4 25 20 55 59.9990000  0  6G18G 2G16G11G 6G19
  22159956.925     7160009.536 7   5560957.64921
  21377566.7144  -12219458.39147  -9394741.72762
  23298773.370    -5470939.863 5  -4114413.75121
  22865824.2924   -5780332.01846  -4414165.29361
  23017436.6204   -7541676.53345  -5718605.15261
  20873114.3944    -276922.53447   -197456.46263
 91  4 25 20 56 14.9990000  0  6G18G 2G16G11G 6G19
  22167449.120     7199383.728 7   5591638.76421
  21371095.0344  -12253483.86847  -9421255.02063
  23297822.9174   -5475954.71545  -4118321.46861
  22865609.8704   -5781461.02446  -4415045.04761
  23010518.472    -7578038.626 5  -5746939.08421
  20874284.8234    -270778.80946   -192669.15063
 91  4 25 20 56 29.9990000  0  6G18G 2G16G11G 6G19
  22174956.4334    7238834.32447   5622379.42261
  21364635.2534  -12287424.40647  -9447702.12663
  23296893.7144   -5480834.05645  -4122123.58061
  22865427.5814   -5782434.37746  -4415803.51361
  23003596.8004   -7614384.92545  -5775260.72761
  20875464.1594    -264580.64547   -187839.41863
 91  4 25 20 56 44.9990000  0  6G18G 2G16G11G 6G19
  22182479.526     7278365.149 7   5653182.58822
  21358193.3554  -12321275.96447  -9474079.90162
  23295991.042    -5485573.627 5  -4125816.79221
  22865268.4334   -5783248.07846  -4416437.57361
  22996687.784    -7650711.514 5  -5803567.01321
  20876656.4874    -258324.15746   -182964.23963
 91  4 25 20 56 59.9990000  0  6G18G 2G16G11G 6G19
  22190016.417     7317972.122 7   5684045.08821
  21351767.2064  -12355042.26847  -9500391.24263
  23295118.901    -5490177.573 5  -4129404.33421
  22865148.2224   -5783906.00146  -4416950.24861
  22989777.7144   -7687022.26345  -5831860.94761
  20877855.1754    -252013.20247   -178046.62263
 91  4 25 20 57 14.9990000  0  6G18G 2G16G11G 6G19
  22197567.7064    7357656.30646   5714967.76261
  21345360.2764  -12388721.92547  -9526635.06362
  23294264.573    -5494644.547 5  -4132885.15121
  22865048.917    -5784406.835 6  -4417340.51921
  22982870.2614   -7723315.91245  -5860141.56561
  20879068.5504    -245646.39046   -173085.47663
 91  4 25 20 57 29.9990000  0  6G18G 2G16G11G 6G19
  22205133.480     7397416.372 6   5745949.55621
  21338964.3474  -12422316.04347  -9552812.23662
  23293444.159    -5498975.781 5  -4136260.18521
  22864986.6834   -5784751.59646  -4417609.17361
  22975966.714    -7759593.546 5  -5888409.71421
  20880289.0424    -239224.68047   -168081.55063
 91  4 25 20 57 44.9990000  0  6G18G 2G16G11G 6G19
  22212715.300     7437251.188 6   5776989.59121
  21332588.1444  -12455825.39447  -9578923.35863
  23292646.6594   -5503172.33045  -4139530.25861
  22864947.4014   -5784941.14746
  22969066.331    -7795855.948 5  -5916665.99321
  20881522.4014    -232748.79746   -163035.41363
 91  4 25 20 57 59.9990000  0  6G18G 2G16G11G 6G19
  22220308.730     7477155.677 6   5808083.92621
  21326226.9254  -12489255.02547  -9604972.35563
  23291868.870    -5507239.073 5  -4142699.20021
  22864940.9014   -5784980.60546
  22962169.0114   -7832108.14046  -5944914.30261
  20882761.8624    -226223.68247   -157950.91663
 91  4 25 20 58 14.9990000  0  6G18G 2G16G11G 6G19
  22227914.472     7517132.877 6   5839234.92021
  21319882.7454  -12522601.23747  -9630956.35762
  23291121.0114   -5511172.76845  -4145764.47561
  22864960.9954   -5784866.43046
  22955271.003    -7868346.568 5  -5973151.90321
  20884015.5814    -219645.73346   -152825.24762
 91  4 25 20 58 29.9990000  0  6G18G 2G16G11G 6G19
  22235537.214     7557183.638 6   5870443.22921
  21313552.3004  -12555863.23447  -9656874.72863
  23290398.519    -5514972.802 5  -4148725.59021
  22865010.8394   -5784597.88546
  22948376.972    -7904570.688 5  -6001378.35521
  20885279.6514    -213014.21646   -147657.83762
 91  4 25 20 58 44.9990000  0  6G18G 2G16G11G 6G19
  22243172.292     7597309.441 6   5901710.01421
  21307240.5424  -12589039.19247  -9682726.06262
  23289702.386    -5518637.411 5  -4151581.18021
  22865094.1124   -5784173.11846
  22941487.331    -7940778.481 6  -6029592.09321
  20886549.4804    -206327.25846   -142447.23063
 91  4 25 20 58 59.9990000  0  6G18G 2G16G11G 6G19
  22250822.659     7637509.918 6   5933034.98321
  21300942.3004  -12622129.06147  -9708510.31463
  23289030.112    -5522166.218 5  -4154330.93121
  22865204.8554   -5783592.06246  -4416705.69761
  22934600.175    -7976969.937 6  -6057793.10221
  20887832.2694    -199584.64047   -137193.24963
 91  4 25 20 59 14.9990000  0  6G18G 2G16G11G 6G19
  22258486.714     7677783.331 6   5964416.78821
  21294661.2614  -12655134.55847  -9734228.81963
  23288381.362    -5525561.541 5  -4156976.69721
  22865345.9174   -5782856.37146  -4416132.44461
  22927715.050    -8013146.802 6  -6085982.72621
  20889126.7454    -192788.03446   -131897.20063
 91  4 25 20 59 29.9990000  0  6G18G 2G16G11G 6G19
  22266164.776     7718133.060 6   5995858.06021
  21288396.9334  -12688052.12148  -9759878.81163
  23287762.1284   -5528819.62945  -4159515.49761
  22865516.6204   -5781962.72046  -4415436.10061
  22920835.2764   -8049305.46946  -6114158.18761
  20890429.5584    -185933.65547   -126556.12962
 91  4 25 20 59 44.9990000  0  6G18G 2G16G11G 6G19
  22273856.597     7758558.538 6   6027358.35621
  21282151.2304  -12720882.02748  -9785460.49263
  23287169.659    -5531941.056 5  -4161947.83021
  22865715.487    -5780911.382 6  -4414616.88921
  22913962.4724   -8085446.31846  -6142319.76761
  20891745.0974    -179021.92046   -121170.37562
 91  4 25 20 59 59.9990000  0  6G18G 2G16G11G 6G19
  22281564.425     7799055.608 6   6058914.43921
  21275918.1204  -12753628.16347  -9810976.90563
  23286597.5504   -5534930.27645  -4164277.15261
  22865946.675    -5779706.379 6  -4413677.94421
  22907084.3554   -8121573.35646  -6170470.58361
  20893068.8864    -172056.86947   -115743.07162
 91  4 25 21  0 14.9990000  0  6G18G 2G16G11G 6G19
  22289283.175     7839619.655 6   6090522.71121
  21269702.2534  -12786294.77148  -9836431.34263
  23286058.222    -5537791.280 5  -4166506.57721
  22866202.2924   -5778351.83446  -4412622.45861
  22900210.6754   -8157690.79646  -6198613.91061
  20894406.6124    -165042.55046   -110277.37662
 91  4 25 21  0 29.9990000  0  6G18G 2G16G11G 6G19
  22297015.8394    7880256.47346   6122187.69761
  21263502.300   -12818875.717 8  -9861819.03423
  23285540.0894   -5540518.17445  -4168631.47861
  22866488.284    -5776841.753 6  -4411445.78621
  22893340.6754   -8193792.56546  -6226745.04661
  20895751.0424    -157972.86846   -104768.53962
 91  4 25 21  0 44.9990000  0  6G18G 2G16G11G 6G19
  22304763.730     7920966.270 6   6153909.54021
  21257317.9954  -12851370.68048  -9887139.72563
  23285046.5114   -5543110.90245  -4170651.84761
  22866808.1444   -5775175.85646  -4410147.69461
  22886476.417    -8229878.296 6  -6254863.68621
  20897107.7454    -150847.46746    -99216.28762
 91  4 25 21  0 59.9990000  0  6G18G 2G16G11G 6G19
  22312521.9254    7961745.95246   6185685.84561
  21251151.7764  -12883782.34048  -9912395.50163
  23284576.6674   -5545572.03645  -4172569.65461
  22867149.1674   -5773356.90546  -4408730.34661
  22879605.956    -8265950.841 6  -6282972.04521
  20898471.7614    -143669.05046    -93622.72262
 91  4 25 21  1 14.9990000  0  6G18G 2G16G11G 6G19
  22320297.1514    8002595.71646   6217516.76261
  21244999.7844  -12916110.33148  -9937586.08263
  23284130.9334   -5547901.30745  -4174384.70861
  22867526.9334   -5771384.57446  -4407193.46661
  22872749.753    -8302009.712 6  -6311069.75021
  20899850.0344    -136437.05946    -87987.41562
 91  4 25 21  1 29.9990000  0  6G18G 2G16G11G 6G19
  22328083.9334    8043515.69146   6249402.39161
  21238864.2224  -12948354.18347  -9962711.10563
  23283714.9174   -5550098.68845  -4176096.99661
  22867932.159    -5769258.515 6  -4405536.81321
  22865889.136    -8338054.605 6  -6339156.56821
  20901235.9334    -129151.22946    -82310.15162
 91  4 25 21  1 44.9990000  0  6G18G 2G16G11G 6G19
  22335884.3784    8084506.47546   6281343.20061
  21232743.5894  -12980513.04348  -9987769.89663
  23283321.2764   -5552163.43945  -4177705.95161
  22868365.6674   -5766977.95246  -4403759.76261
  22859031.784    -8374084.688 6  -6367231.83921
  20902633.6124    -121810.54146    -76590.14462
 91  4 25 21  1 59.9990000  0  6G18G 2G16G11G 6G19
  22343698.5654    8125568.11546   6313339.21261
  21226640.8394  -13012586.58847 -10012762.21163
  23282952.987    -5554095.061 5  -4179211.19521
  22868830.8944   -5764542.70046  -4401862.17361
  22852180.050    -8410099.610 6  -6395295.31221
  20904039.7304    -114414.45846    -70826.97462
 91  4 25 21  2 14.9990000  0  6G18G 2G16G11G 6G19
  22351525.8314    8166697.67746   6345388.15661
  21220551.815   -13044577.653 8 -10037690.25723
  23282611.136    -5555896.789 5  -4180615.21521
  22869323.5114   -5761955.68446  -4399846.33061
  22845329.503    -8446102.376 6  -6423349.29221
  20905459.0504    -106965.92646    -65022.92762
 91  4 25 21  2 29.9990000  0  6G18G 2G16G11G 6G19
  22359365.206     8207897.032 6   6377491.46921
  21214480.4334  -13076483.76648 -10062552.10663
  23282294.0814   -5557566.91545  -4181916.67961
  22869845.237    -5759214.496 6  -4397710.36121
  22838475.776    -8482090.568 6  -6451391.93521
  20906883.2534     -99462.52646    -59176.13562
 91  4 25 21  2 44.9990000  0  6G18G 2G16G11G 6G19
  22367219.1364    8249163.25146   6409646.89861
  21208425.6834  -13108307.99048 -10087350.14363
  23282001.222    -5559107.915 6  -4183117.49121
  22870395.995    -5756322.044 6  -4395456.50521
  22831631.425    -8518067.110 6  -6479425.49221
  20908323.5894     -91907.05446    -53288.76462
 91  4 25 21  2 59.9990000  0  6G18G 2G16G11G 6G19
  22375083.894     8290501.601 6   6441858.51621
  21202384.261   -13140044.727 7 -10112080.01123
  23281732.3944   -5560514.36445  -4184213.47361
  22870976.2224   -5753272.87646  -4393080.54861
  22824792.183    -8554026.438 6  -6507445.63621
  20909769.7304     -84294.03647    -47356.54662
 91  4 25 21  3 14.9990000  0  6G18G 2G16G11G 6G19
  22382963.2224    8331909.77746   6474124.56161
  21196362.0974  -13171695.73348 -10136743.07363
  23281491.690    -5561788.353 5  -4185206.25421
  22871585.558    -5750068.868 6  -4390583.93921
  22817951.745    -8589970.354 6  -6535453.77521
  20911230.6594     -76625.15646    -41380.80962
 91  4 25 21  3 29.9990000  0  6G18G 2G16G11G 6G19
  22390855.214     8373381.871 6   6506440.39721
  21190354.3704  -13203266.63247 -10161343.71463
  23281271.1204   -5562935.51445  -4186100.23061
  22872223.464    -5746715.793 6  -4387971.16621
  22811111.4404   -8625904.74646  -6563454.48461
  20912699.4174     -68906.21946    -35366.05862
 91  4 25 21  3 44.9990000  0  6G18G 2G16G11G 6G19
  22398760.589     8414924.439 6   6538811.14821
  21184364.7614  -13234750.63347 -10185876.64163
  23281076.456    -5563949.244 5  -4186890.22521
  22872889.167    -5743206.886 6  -4385236.96221
  22804276.308    -8661822.664 6  -6591442.36921
  20914181.183      -61130.363 6    -29306.96222
 91  4 25 21  3 59.9990000  0  6G18G 2G16G11G 6G19
  22406679.300     8456537.847 6   6571237.09821
  21178389.2374  -13266147.71347 -10210341.84663
  23280915.417    -5564829.610 5  -4187576.31021
  22873589.097    -5739542.038 6  -4382381.26021
  22797444.6754   -8697724.04246  -6619417.34761
  20915671.792      -53297.292 6    -23203.28222
 91  4 25 21  4 14.9990000  0  6G18G 2G16G11G 6G19
  22414612.394     8498222.443 6   6603718.51621
  21172432.2064  -13297456.77047 -10234738.45163
  23280766.995    -5565575.529 5  -4188157.60521
  22874314.034    -5735720.176 6  -4379403.20021
  22790615.472    -8733607.627 6  -6647378.48021
  20917172.7924     -45405.80546    -17054.07662
 91  4 25 21  4 29.9990000  0  6G18G 2G16G11G 6G19
  22422558.550     8539973.930 6   6636252.06121
  21166489.1984  -13328681.96447 -10259069.71463
  23280652.7064   -5566191.67245  -4188637.78461
  22875073.151    -5731745.578 6  -4376306.12321
  22783788.5654   -8769477.75146  -6675329.11361
  20918682.4874     -37460.01946    -10862.56662
 91  4 25 21  4 44.9990000  0  6G18G 2G16G11G 6G19
  22430514.464     8581791.501 6   6668837.10721
  21160563.2144  -13359823.72647 -10283335.96463
  23280560.0974   -5566678.46545  -4189017.16261
  22875856.480    -5727618.808 6  -4373090.48021
  22776964.5264   -8805334.86646  -6703269.60561
  20920206.4874     -29460.29446     -4629.02862
 91  4 25 21  4 59.9990000  0  6G18G 2G16G11G 6G19
  22438484.331     8623676.165 6   6701474.43421
  21154652.9094  -13390880.85947 -10307536.26963
  23280493.167    -5567035.201 5  -4189295.23421
  22876673.6834   -5723338.90546  -4369755.49561
  22770145.6204   -8841177.95946  -6731199.17761
  20921739.9404     -21405.56146      1647.38462
 91  4 25 21  5 14.9990000  0  6G18G 2G16G11G 6G19
  22446468.487     8665626.748 6   6734163.12521
  21148759.690   -13421853.931 7 -10331671.07923
  23280449.0974   -5567262.55845  -4189472.46761
  22877516.206    -5718906.493 6  -4366301.68521
  22763329.644    -8877007.601 6  -6759118.26921
  20923283.2764     -13296.54346      7966.08762
 91  4 25 21  5 29.9990000  0  6G18G 2G16G11G 6G19
  22454463.1514    8707641.37546   6766901.73161
  21142878.9254  -13452745.12647 -10355742.07963
  23280431.2224   -5567362.58645
  22878389.8314   -5714323.79546  -4362730.76561
  22756514.7844   -8912825.94046  -6787028.54761
  20924833.4954      -5135.19946     14325.56962
 91  4 25 21  5 44.9990000  0  6G18G 2G16G11G 6G19
  22462470.6204    8749724.89146   6799694.01561
  21137018.300   -13483548.982 7 -10379745.02823
  23280436.0734   -5567330.15345
  22879290.5654   -5709585.43546  -4359038.53961
  22749700.5194   -8948627.48446  -6814925.72961
  20926399.6834       3083.93446     20730.07962
 91  4 25 21  5 59.9990000  0  6G18G 2G16G11G 6G19
  22470490.667     8791866.845 6   6832531.82521
  21131171.878   -13514275.794 7 -10403687.94823
  23280468.198    -5567175.714 5
  22880215.519    -5704701.729 6  -4355233.06721
  22742884.730    -8984422.589 6  -6842817.91021
  20927974.8704      11350.60746     27171.62962
 91  4 25 21  6 14.9990000  0  6G18G 2G16G11G 6G19
  22478521.034     8834061.292 6   6865410.54221
  21125337.3474  -13544931.13347 -10427575.16863
  23280514.792    -5566904.810 5
  22881171.394    -5699678.425 6  -4351318.81921
  22736075.089    -9020216.807 6  -6870709.39021
  20929555.2224      19659.32846     33645.95062
 91  4 25 21  6 29.9990000  0  6G18G 2G16G11G 6G19
  22486562.792     8876324.112 6   6898342.53521
  21119520.534   -13575498.949 7 -10451394.19123
  23280596.019    -5566501.757 5  -4188880.03321
  22882157.9014   -5694499.50246  -4347283.30361
  22729268.237    -9055994.039 6  -6898587.63221
  20931145.8784      28026.23146     40165.60862
 91  4 25 21  6 44.9990000  0  6G18G 2G16G11G 6G19
  22494617.987     8918654.950 6   6931327.52721
  21113720.550   -13605979.445 7 -10475145.17523
  23280697.909    -5565966.901 5  -4188463.34221
  22883176.565    -5689165.259 6  -4343126.76821
  22722463.261    -9091754.498 6  -6926452.79621
  20932750.7454      36451.16246     46730.47862
 91  4 25 21  6 59.9990000  0  6G18G 2G16G11G 6G19
  22502685.2144    8961050.87246   6964363.23961
  21107936.1674  -13636375.18147 -10498830.10763
  23280821.370    -5565302.985 5  -4187946.06721
  22884220.6444   -5683678.26646  -4338851.19561
  22715662.5114   -9127500.85746  -6954306.97961
  20934363.4724      44931.61846     53338.61862
 91  4 25 21  7 14.9990000  0  6G18G 2G16G11G 6G19
  22510764.370     9003509.134 6   6997447.52821
  21102166.714   -13666688.685 7 -10522450.96723
  23280972.8784   -5564512.47145  -4187330.16461
  22885293.3004   -5678041.15546  -4334458.65561
  22708862.917    -9163235.528 6  -6982152.05321
  20935988.2694      53465.23946     59988.18462
 91  4 25 21  7 29.9990000  0  6G18G 2G16G11G 6G19
  22518857.8944    9046027.35546   7030578.51261
  21096415.4954  -13696922.22347 -10546009.51163
  23281145.4644   -5563598.04145  -4186617.70261
  22886390.878    -5672256.198 6  -4329950.91121
  22702061.3474   -9198960.86146  -7009989.84761
  20937618.7764      62049.92146     66677.53962
 91  4 25 21  7 44.9990000  0  6G18G 2G16G11G 6G19
  22526958.3154    9088606.65746   7063757.12261
  21090676.198   -13727074.410 7 -10569504.67023
  23281347.347    -5562558.440 5  -4185807.69321
  22887519.331    -5666322.112 6  -4325326.96321
  22695267.4014   -9234675.36446  -7037819.20661
  20939263.3784      70686.96446     73407.69562
 91  4 25 21  7 59.9990000  0  6G18G 2G16G11G 6G19
  22535074.394     9131249.113 6   7096984.93821
  21084955.339   -13757142.607 7 -10592934.38223
  23281568.128    -5561391.366 5  -4184898.36721
  22888680.987    -5660236.559 6  -4320584.98121
  22688471.2454   -9270376.61446  -7065638.23161
  20940917.4564      79378.68946     80180.46262
 91  4 25 21  8 14.9990000  0  6G18G 2G16G11G 6G19
  22543201.034     9173954.397 6   7130261.70821
  21079248.0974  -13787126.93647 -10616298.73963
  23281816.3624   -5560096.83645  -4183889.72461
  22889865.261    -5653999.785 6  -4315725.17821
  22681683.081    -9306064.853 6  -7093447.11821
  20942584.6364      88125.19546     86995.91262
 91  4 25 21  8 29.9990000  0  6G18G 2G16G11G 6G19
  22551339.3704    9216722.96746   7163587.79961
  21073557.948   -13817026.797 7 -10639597.27623
  23282086.4644   -5558674.49945  -4182781.48161
  22891084.870    -5647610.926 6  -4310746.85621
  22674894.2764   -9341739.12046  -7121245.12261
  20944255.1594      96927.49646     93854.84362
 91  4 25 21  8 44.9990000  0  6G18G 2G16G11G 6G19
  22559489.3784    9259554.08546   7196962.62861
  21067885.026   -13846842.560 7 -10662830.28523
  23282380.620    -5557124.839 5  -4181574.03021
  22892325.917    -5641070.650 6  -4305650.55721
  22668102.9484   -9377399.86446  -7149032.58161
  20945944.6124     105785.08146    100756.84762
 91  4 25 21  8 59.9990000  0  6G18G 2G16G11G 6G19
  22567652.5264    9302447.69946   7230386.16261
  21062227.433   -13876574.152 7 -10685997.70623
  23282697.909    -5555447.825 5  -4180267.32421
  22893602.386    -5634378.953 6  -4300436.26821
  22661320.644    -9413047.042 6  -7176809.47021
  20947638.1754     114698.19046    107702.11562
 91  4 25 21  9 14.9990000  0  6G18G 2G16G11G 6G19
  22575827.3154    9345400.95446   7263856.16761
  21056585.065   -13906224.001 7 -10709101.43023
  23283039.0814   -5553646.48445  -4178863.76761
  22894901.198    -5627538.432 6  -4295106.01021
  22654539.855    -9448683.249 6  -7204577.81721
  20949345.7534     123664.26046    114688.65262
 91  4 25 21  9 29.9990000  0  6G18G 2G16G11G 6G19
  22584011.4014    9388418.01446   7297375.88861
  21050960.558   -13935787.862 7 -10732138.15223
  23283405.862    -5551716.320 5  -4177359.84021
  22896232.839    -5620544.916 6  -4289656.53821
  22647759.823    -9484304.044 6  -7232334.14021
  20951062.7304     132687.59447    121719.81662
 91  4 25 21  9 44.9990000  0  6G18G 2G16G11G 6G19
  22592208.5344    9431493.74446   7330941.33561
  21045349.245   -13965270.492 7 -10755111.57923
  23283800.355    -5549662.465 5  -4175759.50421
  22897593.667    -5613403.157 6  -4284091.54121
  22640984.9874   -9519914.19646  -7260082.19761
  20952789.8234     141763.53846    128791.97162
 91  4 25 21  9 59.9990000  0  6G18G 2G16G11G 6G19
  22600417.769     9474629.659 6   7364553.66821
  21039755.597   -13994670.109 7 -10778020.31923
  23284215.589    -5547483.459 5  -4174061.62921
  22898980.050    -5606111.613 6  -4278409.84221
  22634212.675    -9555512.133 6  -7287820.71321
  20954526.105      150893.762 6    135906.42222
 91  4 25 21 10 14.9990000  0  6G18G 2G16G11G 6G19
  22608638.0194    9517826.36146   7398213.36561
  21034174.644   -14023986.061 7 -10800863.86323
  23284657.0814   -5545178.73245  -4172265.82961
  22900393.933    -5598669.756 6  -4272611.01521
  22627437.909    -9591097.247 6  -7315549.23521
  20956274.5114     160078.94446    143063.69562
 91  4 25 21 10 29.9990000  0  6G18G 2G16G11G 6G19
  22616870.2454    9561082.51846   7431919.40361
  21028614.120   -14053219.182 7 -10823642.86723
  23285110.761    -5542749.450 5  -4170372.95921
  22901838.112    -5591078.465 6  -4266695.73721
  22620670.5194   -9626670.21446  -7343268.30461
  20958031.8474     169318.43347    150263.28962
 91  4 25 21 10 44.9990000  0  6G18G 2G16G11G 6G19
  22625111.3314    9604402.74546   7465675.35961
  21023067.714   -14082364.484 7 -10846353.44223
  23285600.1594   -5540190.70845  -4168379.18261
  22903313.894    -5583332.944 6  -4260660.28121
  22613905.5654   -9662226.08946  -7370974.05161
  20959802.690      178617.301 6    157509.14922
 91  4 25 21 10 59.9990000  0  6G18G 2G16G11G 6G19
  22633364.542     9647779.681 6   7499475.49421
  21017537.308   -14111429.254 7 -10869001.26323
  23286113.9564   -5537509.57345  -4166290.09461
  22904818.370    -5575440.521 6  -4254510.36021
  22607140.230    -9697772.124 6  -7398672.12621
  20961583.7844     187968.42946    164795.73462
 91  4 25 21 11 14.9990000  0  6G18G 2G16G11G 6G19
  22641631.2144    9691213.95246   7533320.31461
  21012020.089   -14140412.938 7 -10891585.90123
  23286646.956    -5534706.147 5  -4164105.67821
  22906344.987    -5567400.709 6  -4248245.58621
  22600379.7374   -9733307.68046  -7426362.05161
  20963371.628      197372.505 6    172123.57322
 91  4 25 21 11 29.9990000  0  6G18G 2G16G11G 6G19
  22649906.9874    9734706.22446   7567210.33961
  21006522.339   -14169314.430 7 -10914106.49623
  23287204.4094   -5531779.31545  -4161825.08161
  22907907.362    -5559212.388 6  -4241865.09721
  22593617.8474   -9768831.53146  -7454042.84961
  20965170.2144     206830.66246    179493.55862
 91  4 25 21 11 44.9990000  0  6G18G 2G16G11G 6G19
  22658196.456     9778257.737 6   7601146.50821
  21001036.792   -14198131.859 7 -10936561.58723
  23287783.628    -5528727.724 5  -4159447.28421
  22909490.636    -5550873.968 6  -4235367.64321
  22586859.1284   -9804342.06646  -7481713.26761
  20966981.636      216344.350 6    186906.81022
 91  4 25 21 11 59.9990000  0  6G18G 2G16G11G 6G19
  22666494.8234    9821864.97846   7635126.10461
  20995567.214   -14226868.765 7 -10958953.93523
  23288386.909    -5525554.474 5  -4156974.72721
  22911101.995    -5542388.902 6  -4228755.92221
  22580101.2304   -9839842.63046  -7509375.92961
  20968800.4954     225910.61746    194361.03162
 91  4 25 21 12 14.9990000  0  6G18G 2G16G11G 6G19
  22674803.6674    9865533.61646   7669153.55261
  20990117.128   -14255519.064 7 -10981278.79523
  23289021.1204   -5522253.83546  -4154402.90661
  22912751.448    -5533751.343 6  -4222025.37521
  22573352.089    -9875327.196 6  -7537026.10521
  20970633.519      235535.472 6    201860.90422
 91  4 25 21 12 29.9990000  0  6G18G 2G16G11G 6G19
  22683123.3234    9909258.79946   7703225.05761
  20984680.276   -14284087.507 7 -11003539.87123
  23289667.5654   -5518830.98745  -4151735.79161
  22914419.706    -5524966.238 6  -4215179.85921
  22566603.6284   -9910800.50746  -7564667.52061
  20972475.034      245214.169 6    209402.73422
 91  4 25 21 12 44.9990000  0  6G18G 2G16G11G 6G19
  22691457.519     9953040.945 6   7737340.93621
  20979259.409   -14312573.218 7 -11025736.48023
  23290343.8624   -5515285.37145  -4148973.01861
  22916124.987    -5516032.920 6  -4208218.85421
  22559852.3474   -9946261.88246  -7592299.64361
  20974327.7534     254947.53746    216987.16662
 91  4 25 21 12 59.9990000  0  6G18G 2G16G11G 6G19
  22699800.2374    9996882.85146   7771503.39061
  20973853.784   -14340973.448 7 -11047866.48523
  23291041.4874   -5511614.28045  -4146112.52261
  22917849.034    -5506948.488 6  -4201140.09621
  22553107.206    -9981708.405 6  -7619920.19121
  20976190.487      264738.383 6    224616.38822
 91  4 25 21 13 14.9990000  0  6G18G 2G16G11G 6G19
  22708153.7844   10040779.82746   7805708.75461
  20968465.534   -14369292.499 7 -11069933.23123
  23291760.3704   -5507822.40445  -4143157.93761
  22919608.198    -5497717.395 6  -4193947.05421
  22546364.644   -10017144.320 6  -7647532.47321
  20978063.300      274582.552 6    232287.15222
 91  4 25 21 13 29.9990000  0  6G18G 2G16G11G 6G19
  22716517.823    10084736.627 6   7839960.73321
  20963093.315   -14397525.464 7 -11091932.89923
  23292511.065    -5503904.489 6  -4140105.09021
  22921390.847    -5488334.662 6  -4186635.86121
  22539621.776   -10052564.501 6  -7675132.49521
  20979947.9254     284485.35546    240003.61062
 91  4 25 21 13 44.9990000  0  6G18G 2G16G11G 6G19
  22724893.370    10128753.529 6   7874259.53321
  20957737.034   -14425671.799 7 -11113865.06223
  23293279.940    -5499860.757 6  -4136954.19221
  22923205.933    -5478800.185 6  -4179206.41421
  22532886.690   -10087968.646 6  -7702720.02421
  20981845.675      294447.077 6    247765.97722
 91  4 25 21 13 59.9990000  0  6G18G 2G16G11G 6G19
  22733280.683    10172829.316 6   7908604.22521
  20952396.558   -14453732.322 7 -11135730.36224
  23294067.222    -5495691.831 5  -4133705.74421
  22925049.964    -5469114.841 6  -4171659.41821
  22526152.761   -10123357.496 6  -7730295.64621
  20983750.308      304467.044 7    255573.73122
 91  4 25 21 14 14.9990000  0  6G18G 2G16G11G 6G19
  22741676.730    10216948.655 6   7942982.85121
  20947070.964   -14481722.184 7 -11157540.60224
  23294884.6514   -5491413.05945  -4130371.73761
  22926919.362    -5459293.867 6  -4164006.73721
  22519419.5114  -10158746.19946  -7757871.13761
  20985665.792      314530.211 6    263415.14422
 91  4 25 21 14 29.9990000  0  6G18G 2G16G11G 6G19
  22750084.1444   10261126.54446   7977407.10361
  20941760.331   -14509626.495 7 -11179284.18224
  23295725.2694   -5487009.61446  -4126940.58361
  22928818.276    -5449322.499 6  -4156236.86621
  22512687.370   -10194119.747 6  -7785434.83721
  20987590.956      324651.485 7    271301.84222
 91  4 25 21 14 44.9990000  0  6G18G 2G16G11G 6G19
  22758501.909    10305358.324 6   8011873.34821
  20936467.401   -14537449.149 7 -11200964.12724
  23296585.737    -5482485.552 6  -4123415.41121
  22930740.605    -5439204.710 6
  22505956.831   -10229482.077 6  -7812989.79121
  20989527.940      334826.925 6
 91  4 25 21 14 59.9990000  0  6G18G 2G16G11G 6G19
  22766927.378    10349642.422 6   8046380.35721
  20931187.550   -14565191.426 7 -11222581.44224
  23297468.097    -5477842.731 5  -4119797.71421
  22932697.6204   -5428941.87346
  22499230.112   -10264834.414 6  -7840536.95521
  20991474.347      345055.642 7
 91  4 25 21 15 14.9990000  0  6G18G 2G16G11G 6G19
  22775365.8084   10393984.06646   8080932.20061
  20925923.4014  -14592847.95347 -11244131.93764
  23298374.362    -5473075.862 5  -4116083.35721
  22934673.9724   -5418529.01346  -4132242.02761
  22492504.370   -10300171.558 6  -7868072.28721
  20993430.5264     355342.83646    295217.14462
 91  4 25 21 15 29.9990000  0  6G18G 2G16G11G 6G19
  22783813.5584   10438376.87846   8115523.92461
  20920677.573   -14620424.868 7 -11265620.40124
  23299303.808    -5468191.341 6  -4112277.32821
  22936687.1514   -5407972.32146  -4124016.05961
  22485783.901   -10335499.489 6  -7895600.43621
  20995399.300      365682.284 7    303273.84422
 91  4 25 21 15 44.9990000  0  6G18G 2G16G11G 6G19
  22792271.526    10482823.365 6   8150157.46321
  20915444.878   -14647919.503 7 -11287044.74824
  23300257.9724   -5463186.55346  -4108377.56061
  22938720.9874   -5397269.01746  -4115675.85661
  22479063.081   -10370815.476 6  -7923119.27921
  20997380.417      376076.948 6    311373.57122
 91  4 25 21 15 59.9990000  0  6G18G 2G16G11G 6G19
  22800739.339    10527325.217 6   8184834.15721
  20910228.542   -14675329.983 7 -11308403.51824
  23301231.6284   -5458059.89945  -4104382.85161
  22940785.1834   -5386417.46146  -4107220.12961
  22472342.386   -10406117.629 6  -7950627.35021
  20999366.855      386528.700 6    319517.77922
 91  4 25 21 16 14.9990000  0  6G18G 2G16G11G 6G19
  22809219.706    10571882.307 6   8219553.88221
  20905027.9174  -14702656.08347 -11329696.54164
  23302231.620    -5452811.187 5  -4100293.05621
  22942882.6054   -5375417.33546  -4098648.63661
  22465629.7144  -10441405.69046  -7978124.43961
  21001367.5194     397037.80146    327706.68262
 91  4 25 21 16 29.9990000  0  6G18G 2G16G11G 6G19
  22817707.956    10616491.294 6   8254314.05621
  20899843.511   -14729900.870 7 -11350926.20024
  23303254.5654   -5447443.60145  -4096110.59961
  22945000.0264   -5364271.98646  -4089963.98261
  22458920.480   -10476682.658 6  -8005612.88421
  21003379.2224     407601.31546    335937.98362
 91  4 25 21 16 44.9990000  0  6G18G 2G16G11G 6G19
  22826205.6204   10661153.48446   8289115.67961
  20894675.550   -14757062.809 7 -11372091.30524
  23304299.8624   -5441956.10446  -4091834.70761
  22947149.0264   -5352980.11246  -4081165.15561
  22452205.753   -10511947.024 6  -8033091.49721
  21005399.0034     418220.80446    344212.90062
 91  4 25 21 16 59.9990000  0  6G18G 2G16G11G 6G19
  22834716.4874   10705871.29346   8323960.64261
  20889523.245   -14784139.165 7 -11393189.71724
  23305364.2764   -5436346.22045  -4087463.43761
  22949329.503    -5341539.170 6  -4072250.16021
  22445496.5504  -10547196.25046  -8060558.33061
  21007428.8234     428899.01446    352533.57162
 91  4 25 21 17 14.9990000  0  6G18G 2G16G11G 6G19
  22843233.487    10750639.200 6   8358844.64221
  20884385.011   -14811135.446 7 -11414225.73724
  23306458.245    -5430619.545 6  -4083001.22521
  22951532.2064   -5329954.64746  -4063223.29361
  22438791.5584  -10582435.56046  -8088017.43361
  21009472.0114     439630.65046    360895.88162
 91  4 25 21 17 29.9990000  0  6G18G 2G16G11G 6G19
  22851763.8084   10795456.97846   8393767.51561
  20879264.667   -14838051.484 7 -11435199.22924
  23307566.651    -5424776.042 5  -4078447.93621
  22953763.706    -5318226.613 6  -4054084.59721
  22432090.901   -10617664.734 6  -8115468.64021
  21011526.2694     450415.78746    369299.87062
 91  4 25 21 17 44.9990000  0  6G18G 2G16G11G 6G19
  22860301.448    10840324.079 6   8428728.81321
  20874156.237   -14864887.141 7 -11456110.08824
  23308702.9484   -5418815.93046  -4073803.78461
  22956020.4404   -5306355.19546  -4044834.17461
  22425385.4254  -10652883.81846  -8142911.98961
  21013586.9174     461254.74346    377745.80162
 91  4 25 21 17 59.9990000  0  6G18G 2G16G11G 6G19
  22868851.3864   10885244.69546   8463731.79661
  20869065.940   -14891638.365 7 -11476955.15324
  23309853.331    -5412734.874 5  -4069065.37121
  22958306.7844   -5294336.35346  -4035468.87061
  22418684.1054  -10688088.59646  -8170344.18961
  21015660.3474     472151.48146    386236.76062
 91  4 25 21 18 14.9990000  0  6G18G 2G16G11G 6G19
  22877409.245    10930214.618 6   8498773.21921
  20863989.878   -14918309.253 7 -11497737.61624
  23311037.698    -5406537.544 6  -4064236.40021
  22960623.7454   -5282174.14746  -4025991.86061
  22411993.3314  -10723283.05346  -8197768.34261
  21017744.9094     483102.23746    394769.81062
 91  4 25 21 18 29.9990000  0  6G18G 2G16G11G 6G19
  22885973.972    10975236.226 6   8533854.90621
  20858930.581   -14944897.041 7 -11518455.33024
  23312237.894    -5400221.348 5  -4059314.78221
  22962966.4644   -5269865.93746  -4016401.08161
  22405294.3554  -10758464.29346  -8225182.20561
  21019840.6754     494109.89246    403347.19362
 91  4 25 21 18 44.9990000  0  6G18G 2G16G11G 6G19
  22894550.167    11020305.657 6   8568973.85821
  20853886.284   -14971405.613 7 -11539111.31624
  23313465.1444   -5393790.25946  -4054303.62861
  22965333.3944   -5257415.69846  -4006699.62761
  22398602.8704  -10793636.23946  -8252588.82661
  21021944.6284     505170.65446    411965.95762
 91  4 25 21 18 59.9990000  0  6G18G 2G16G11G 6G19
  22903136.745    11065426.706 6   8604133.04521
  20848858.370   -14997830.753 7 -11559702.28824
  23314709.9804   -5387240.26745  -4049199.83461
  22967730.1444   -5244819.54946  -3996884.48061
  22391913.0114  -10828794.71746  -8279984.94361
  21024060.1124     516288.59846    420629.28462
 91  4 25 21 19 14.9990000  0  6G18G 2G16G11G 6G19
  22911732.605    11110593.602 6   8639327.95421
  20843844.042   -15024177.993 7 -11580232.56123
  23315978.362    -5380577.296 6  -4044008.03621
  22970157.7764   -5232083.06946  -3986959.99261
  22385217.7764  -10863945.27646  -8307374.90261
  21026186.3864     527458.37546    429332.99262
 91  4 25 21 19 29.9980000  0  6G18G 2G16G11G 6G19
  22920335.897    11155805.065 6   8674557.58221
  20838845.897   -15050443.496 7 -11600699.14323
  23317267.7484   -5373799.98946  -4038727.09961
  22972607.4984   -5219205.16146  -3976925.29261
  22378535.5614  -10899083.45746  -8334755.21161
  21028321.1154     538681.44446    438078.22762
 91  4 25 21 19 44.9980000  0  6G18G 2G16G11G 6G19
  22928946.8114   11201068.96246   8709828.08461
  20833862.451   -15076628.616 7 -11621103.09023
  23318578.803    -5366905.281 5  -4033354.69321
  22975082.9204   -5206182.11146  -3966777.49061
  22371851.3034  -10934211.59846  -8362127.69161
  21030468.5764     549961.42346    446867.80862
 91  4 25 21 19 59.9980000  0  6G18G 2G16G11G 6G19
  22937575.8264   11246381.74146   8745136.64961
  20828895.584   -15102731.917 7 -11641443.28023
  23319916.647    -5359893.961 6  -4027891.45621
  22977591.3344   -5193015.27346  -3956517.65161
  22365168.2874  -10969327.74646  -8389490.83161
  21032623.3034     561297.39446    455701.02662
 91  4 25 21 20 14.9980000  0  6G18G 2G16G11G 6G19
  22946201.498    11291743.642 6   8780483.50121
  20823944.162   -15128753.017 8 -11661719.41823
  23321271.279    -5352766.249 5  -4022337.46521
  22980123.0454   -5179704.32846  -3946145.52461
  22358488.1934  -11004431.37446  -8416844.21461
  21034791.3974     572689.79846    464578.21362
 91  4 25 21 20 29.9980000  0  6G18G 2G16G11G 6G19
  22954848.2724   11337154.46146   8815868.48361
  20819008.443   -15154691.835 7 -11681931.44223
  23322651.7094   -5345522.30546  -4016692.97461
  22982682.053    -5166249.371 6  -3935661.16321
  22351811.2564  -11039522.43746  -8444187.80861
  21036969.6934     584138.75946    473499.47162
 91  4 25 21 20 44.9980000  0  6G18G 2G16G11G 6G19
  22963500.498    11382614.631 6   8851291.91021
  20814089.068   -15180547.952 8 -11702079.02523
  23324047.381    -5338161.572 5  -4010957.41021
  22985269.5224   -5152649.96746  -3925064.26161
  22345134.9594  -11074600.35646  -8471521.16161
  21039162.1004     595644.91146    482465.29062
 91  4 25 21 20 59.9980000  0  6G18G 2G16G11G 6G19
  22972152.568    11428121.261 6   8886751.53421
  20809183.4124  -15206323.61348 -11722163.91563
  23325473.678    -5330686.563 6  -4005132.87321
  22987883.7484   -5138908.70646  -3914356.82161
  22338463.3974  -11109667.27946  -8498845.93361
  21041359.412      607206.016 6    491473.93122
 91  4 25 21 21 14.9980000  0  6G18G 2G16G11G 6G19
  22980828.6544   11473674.79046   8922247.71061
  20804294.3894  -15232018.20348 -11742185.63263
  23326916.8504   -5323097.11446  -3999219.09561
  22990527.3114   -5125025.40946  -3903538.69661
  22331791.4284  -11144722.88946  -8526161.91561
  21043571.8574     618822.62646    500525.82362
 91  4 25 21 21 29.9980000  0  6G18G 2G16G11G 6G19
  22989496.990    11519275.058 6   8957780.30021
  20799419.209   -15257631.692 8 -11762144.15423
  23328384.857    -5315393.163 6  -3993216.16121
  22993201.5294   -5110999.88346  -3892609.75461
  22325124.5454  -11179766.85846  -8553468.80961
  21045790.998      630494.972 6    509621.14722
 91  4 25 21 21 44.9980000  0  6G18G 2G16G11G 6G19
  22998193.787    11564924.103 6   8993350.90721
  20794561.0224  -15283161.84948 -11782037.74563
  23329867.1394   -5307573.06645  -3987122.67661
  22995892.0224   -5096830.02046  -3881568.33861
  22318455.2254  -11214796.88646  -8580764.84561
  21048027.092      642225.377 6    518761.70622
 91  4 25 21 21 59.9980000  0  6G18G 2G16G11G 6G19
  23006881.8734   11610624.02646   9028961.16861
  20789719.2014  -15308606.27948 -11801864.53563
  23331383.1474   -5299634.12946  -3980936.62661
  22998618.1394   -5082513.59646  -3870412.72361
  22311794.7484  -11249810.59346  -8608048.15361
  21050268.279      654016.267 6    527949.39922
 91  4 25 21 22 14.9980000  0  6G18G 2G16G11G 6G19
  23015593.279    11656371.585 6   9064608.53321
  20784894.975   -15333967.943 8 -11821626.82823
  23332915.022    -5291579.849 6  -3974660.64721
  23001369.3894   -5068053.76446  -3859145.35461
  22305132.8034  -11284810.96046  -8635321.08361
  21052523.225      665864.648 6    537181.88722
 91  4 25 21 22 29.9980000  0  6G18G 2G16G11G 6G19
  23024304.592    11702162.413 6   9100289.61921
  20780081.1544  -15359250.82648 -11841327.73963
  23334471.795    -5283414.389 6  -3968298.07621
  23004147.615    -5053454.776 6  -3847769.56721
  22298474.5064  -11319802.00546  -8662586.72761
  21054786.389      677766.614 6    546456.13222
 91  4 25 21 22 44.9980000  0  6G18G 2G16G11G 6G19
  23033028.467    11748001.816 6   9136008.55621
  20775285.3654  -15384449.60148 -11860963.11063
  23336040.709    -5275132.613 5  -3961844.83821
  23006950.1394   -5038711.37846  -3836281.24361
  22291815.7564  -11354778.18046  -8689840.79861
  21057066.193      689727.595 6    555776.36222
 91  4 25 21 22 59.9980000  0  6G18G 2G16G11G 6G19
  23041759.186    11793886.256 6   9171762.57421
  20770507.3894  -15409567.42048 -11880535.40063
  23337642.9824   -5266738.01046  -3955303.73061
  23009782.9204   -5023826.77646  -3824682.89461
  22285166.3894  -11389742.57446  -8717085.68561
  21059348.897      701744.706 6    565140.32722
 91  4 25 21 23 14.9980000  0  6G18G 2G16G11G 6G19
  23050501.818    11839817.605 6   9207553.16421
  20765742.6784  -15434602.21748 -11900043.00063
  23339262.467    -5258228.612 6  -3948673.11821
  23012647.647    -5008799.095 6  -3812973.05821
  22278515.8344  -11424693.24446  -8744319.87361
  21061648.607      713820.005 6    574549.63322
 91  4 25 21 23 29.9980000  0  6G18G 2G16G11G 6G19
  23059253.3974   11885795.28646   9243379.84061
  20760994.9044  -15459554.24648 -11919486.10563
  23340902.4904   -5249604.78046  -3941953.36561
  23015532.2794   -4993628.58646  -3801151.92361
  22271861.3114  -11459630.09146  -8771543.30061
  21063959.412      725953.566 6    584004.34022
 91  4 25 21 23 44.9980000  0  6G18G 2G16G11G 6G19
  23068006.639    11931817.682 6   9279241.36521
  20756261.6004  -15484425.13047 -11938865.98263
  23342566.3184   -5240868.34746  -3935145.88261
  23018449.3344   -4978317.18746  -3789220.99661
  22265221.818   -11494554.871 6  -8798757.30621
  21066279.373      738143.502 6    593502.97322
 91  4 25 21 23 59.9980000  0  6G18G 2G16G11G 6G19
  23076776.209    11977884.628 6   9315137.60121
  20751543.7794  -15509214.47147 -11958182.31663
  23344249.701    -5232019.465 6  -3928250.74921
  23021388.443    -4962864.809 6  -3777180.22221
  22258575.7724  -11529467.21346  -8825961.63661
  21068606.787      750390.322 6    603045.93222
 91  4 25 21 24 14.9980000  0  6G18G 2G16G11G 6G19
  23085546.248    12023994.673 6   9351067.43121
  20746842.6314  -15533923.92448 -11977436.40763
  23345953.420    -5223059.523 6  -3921269.07921
  23024353.350    -4947272.990 6  -3765030.79621
  22251934.4124  -11564368.46346  -8853157.30861
  21070949.584      762692.606 6    612632.11322
 91  4 25 21 24 29.9980000  0  6G18G 2G16G11G 6G19
  23094331.225    12070149.303 6   9387031.98921
  20742156.0064  -15558551.51448 -11996626.70163
  23347683.9204   -5213986.91046  -3914199.61061
  23027349.8894   -4931540.06646  -3752771.41561
  22245297.5924  -11599256.66346  -8880342.82161
  21073299.522      775052.240 6    622262.98122
 91  4 25 21 24 44.9980000  0  6G18G 2G16G11G 6G19
  23103124.1474   12116350.81846   9423033.07561
  20737485.8344  -15583094.57247 -12015751.13263
  23349429.467    -5204799.201 6  -3907040.46321
  23030372.217    -4915663.430 6  -3740400.05721
  22238657.7484  -11634129.08246  -8907516.03861
  21075663.318      787472.121 6    631940.79422
 91  4 25 21 24 59.9980000  0  6G18G 2G16G11G 6G19
  23111922.303    12162592.794 6   9459065.69921
  20732830.9904  -15607559.52148 -12034814.70663
  23351197.9364   -5195503.07546  -3899796.85861
  23033416.5294   -4899649.68746  -3727921.86361
  22232022.7324  -11668992.06346  -8934681.89461
  21078035.936      799945.946 6    641660.64122
 91  4 25 21 25 14.9980000  0  6G18G 2G16G11G 6G19
  23120731.006    12208881.789 6   9495134.96821
  20728190.8654  -15631939.30148 -12053811.90063
  23352990.2794   -5186092.07846  -3892463.69461
  23036489.0534   -4883492.12846  -3715331.59461
  22225395.1004  -11703838.74646  -8961835.05761
  21080424.225      812480.659 6    651427.93622
 91  4 25 21 25 29.9980000  0  6G18G 2G16G11G 6G19
  23129548.2644   12255215.57946   9531239.13061
  20723566.9594  -15656235.98647 -12072744.35263
  23354801.225    -5176568.062 6  -3885042.48721
  23039596.186    -4867192.679 6  -3702630.77121
  22218764.1234  -11738670.80646  -8988976.82561
  21082818.936      825074.531 6    661241.32722
 91  4 25 21 25 44.9980000  0  6G18G 2G16G11G 6G19
  23138375.342    12301592.533 6   9567376.93221
  20718959.3424  -15680451.03547 -12091613.19563
  23356635.982    -5166932.756 6  -3877534.57821
  23042719.139    -4850753.057 6  -3689820.72521
  22212142.256   -11773489.690 6  -9016108.32021
  21085228.826      837726.269 6    671099.80922
 91  4 25 21 25 59.9980000  0  6G18G 2G16G11G 6G19
  23147206.022    12348012.814 6   9603548.49921
  20714366.3034  -15704584.11948 -12110418.16763
  23358491.0534   -5157186.19446  -3869939.96461
  23045875.8974   -4834173.23846  -3676901.43061
  22205514.951   -11808295.178 6  -9043229.37921
  21087644.514      850435.981 6    681003.46422
 91  4 25 21 26 14.9980000  0  6G18G 2G16G11G 6G19
  23156049.0614   12394477.50046   9639754.65561
  20709790.1234  -15728633.76047 -12129158.12063
  23360366.232    -5147327.176 6  -3862257.71221
  23049055.467    -4817451.765 6  -3663871.76121
  22198896.865   -11843085.583 6  -9070338.67821
  21090077.9984     863205.28246    690953.55862
 91  4 25 21 26 29.9980000  0  6G18G 2G16G11G 6G19
  23164898.522    12440981.525 6   9675991.47721
  20705228.4364  -15752604.72947 -12147836.76963
  23362263.943    -5137360.531 6  -3854491.62021
  23052267.436    -4800593.644 6  -3650735.60921
  22192279.4674  -11877865.71246  -9097439.97161
  21092514.998      876029.590 6    700946.51022
 91  4 25 21 26 44.9980000  0  6G18G 2G16G11G 6G19
  23173758.045    12487530.404 6   9712263.25521
  20700682.2644  -15776491.58547 -12166449.87563
  23364180.420    -5127281.037 5  -3846637.54721
  23055501.8894   -4783593.49246  -3637488.78461
  22185661.9284  -11912629.85546  -9124528.81161
  21094969.0454     888914.48246    710986.67362
 91  4 25 21 26 59.9980000  0  6G18G 2G16G11G 6G19
  23182623.061    12534119.033 6   9748566.01821
  20696153.1474  -15800299.08347 -12185001.14563
  23366121.9904   -5117093.33946  -3838699.20661
  23058763.8114   -4766456.20746  -3624135.09061
  22179049.381   -11947382.786 6  -9151608.90821
  21097428.795      901855.372 6    721070.47122
 91  4 25 21 27 14.9980000  0  6G18G 2G16G11G 6G19
  23191496.3894   12580748.56946   9784900.62761
  20691638.8114  -15824025.62947 -12203489.33263
  23368078.818    -5106796.428 6  -3830675.76921
  23062052.826    -4749180.567 6  -3610673.60021
  22172438.459   -11982122.927 6  -9178679.04321
  21099905.3894     914853.67246    731199.00262
 91  4 25 21 27 29.9980000  0  6G18G 2G16G11G 6G19
  23200378.068    12627421.607 6   9821269.15721
  20687137.8974  -15847668.61647 -12221912.41163
  23370058.303    -5096387.905 5  -3822565.31721
  23065367.4514   -4731764.05446  -3597102.33261
  22165826.6864  -12016847.54546  -9205737.08361
  21102387.4514     927912.17146    741374.44562
 91  4 25 21 27 44.9980000  0  6G18G 2G16G11G 6G19
  23209266.881    12674135.143 6   9857669.22421
  20682654.561   -15871230.394 7 -12240272.21023
  23372065.623    -5085870.379 6  -3814369.96021
  23068706.381    -4714209.220 6  -3583423.28821
  22159224.475   -12051558.902 6  -9232784.79021
  21104884.732      941028.599 6    751595.02522
 91  4 25 21 27 59.9980000  0  6G18G 2G16G11G 6G19
  23218164.647    12720891.104 6   9894102.36821
  20678186.6394  -15894709.31847 -12258567.44463
  23374084.9434   -5075242.31246  -3806088.43661
  23072070.7794   -4696514.29946  -3569635.07861
  22152621.279   -12086255.217 6  -9259820.76921
  21107390.826      954204.925 6    761862.28122
 91  4 25 21 28 14.9980000  0  6G18G 2G16G11G 6G19
  23227069.9984   12767682.18846   9930562.86561
  20673732.7174  -15918112.18647 -12276803.41763
  23376128.779    -5064510.896 6  -3797726.44021
  23075462.904    -4678686.636 6  -3555743.43621
  22146018.6394  -12120943.32346  -9286850.36461
  21109909.303      967434.245 6    772170.82722
 91  4 25 21 28 29.9980000  0  6G18G 2G16G11G 6G19
  23235982.022    12814511.686 6   9967053.30221
  20669293.3504  -15941435.57347 -12294977.45363
  23378190.014    -5053672.528 5  -3789281.06721
  23078880.0844   -4660722.92646  -3541745.77861
  22139423.295   -12155619.664 6  -9313870.77821
  21112437.3504     980719.84546    782523.23262
 91  4 25 21 28 44.9980000  0  6G18G 2G16G11G 6G19
  23244895.9904   12861375.87246  10003570.77361
  20664870.5144  -15964682.95647 -12313092.26863
  23380272.3974   -5042731.42746  -3780755.62661
  23082330.0224   -4642626.93046  -3527645.04361
  22132825.592   -12190287.859 6  -9340884.85721
  21114976.772      994058.415 6    792916.91022
 91  4 25 21 28 59.9980000  0  6G18G 2G16G11G 6G19
  23253822.920    12908282.396 6  10040121.24721
  20660464.1234  -15987846.39648 -12331141.67063
  23382377.0924   -5031679.82945  -3772144.09761
  23085796.209    -4624390.692 6  -3513435.03221
  22126229.232   -12224939.646 6  -9367886.14421
  21117528.4824    1007458.30946    803358.37462
 91  4 25 21 29 14.9980000  0  6G18G 2G16G11G 6G19
  23262759.9284   12955231.38346  10076704.80661
  20656071.1784  -16010925.68148 -12349125.50163
  23384499.342    -5020517.533 5  -3763446.33521
  23089295.0064   -4606014.09546  -3499115.64961
  22119640.709   -12259574.706 6  -9394874.41021
  21120088.912     1020919.779 6    813847.81722
 91  4 25 21 29 29.9980000  0  6G18G 2G16G11G 6G19
  23271700.3424   13002221.56146  10113320.44761
  20651695.1934  -16033921.54548 -12367044.32663
  23386644.1624   -5009245.53546  -3754663.08561
  23092815.381    -4587498.132 6  -3484687.67621
  22113049.975   -12294193.789 6  -9421850.21721
  21122661.014     1034442.044 6    824384.63922
 91  4 25 21 29 44.9980000  0  6G18G 2G16G11G 6G19
  23280648.357    13049247.990 5  10149964.34721
  20647335.1154  -16056838.93948 -12384902.00863
  23388808.9434   -4997868.79945  -3745798.18561
  23096368.615    -4568847.873 6  -3470155.05821
  22106465.2014  -12328801.70846  -9448817.32561
  21125244.1394    1048020.32746    834965.10462
 91  4 25 21 29 59.9980000  0  6G18G 2G16G11G 6G19
  23289602.428    13096313.220 5  10186638.48321
  20642988.5764  -16079674.97548 -12402696.28863
  23390994.576    -4986384.890 5  -3736849.78921
  23099940.061    -4550060.651 6  -3455515.71621
  22099883.0764  -12363395.44746  -9475773.39161
  21127841.490     1061657.713 6    845591.62722
 91  4 25 21 30 14.9980000  0  6G18G 2G16G11G 6G19
  23298569.6474   13143419.03546  10223344.23361
  20638659.6624  -16102427.71148 -12420425.66663
  23393202.1074   -4974792.26345  -3727816.68561
  23103542.725    -4531134.711 6  -3440768.27921
  22093300.8504  -12397973.12946  -9502716.94461
  21130447.2174    1075356.15046    856265.72062
 91  4 25 21 30 29.9980000  0  6G18G 2G16G11G 6G19
  23307542.607    13190558.006 6  10260075.81921
  20634343.9594  -16125104.09348 -12438095.54663
  23395427.506    -4963097.864 5  -3718704.26921
  23107170.7484   -4512077.21346  -3425918.32861
  22086725.2174  -12432541.55146  -9529653.27661
  21133063.334     1089108.796 6    866982.05122
 91  4 25 21 30 44.9980000  0  6G18G 2G16G11G 6G19
  23316517.318    13237734.979 5  10296837.01021
  20630044.2794  -16147699.33648 -12455702.20063
  23397673.1154   -4951297.28445  -3709509.13161
  23110819.623    -4492883.498 6  -3410962.22821
  22080147.506   -12467095.822 6  -9556578.58321
  21135692.584     1102920.399 6    877744.32622
 91  4 25 21 30 59.9980000  0  6G18G 2G16G11G 6G19
  23325503.748    13284957.741 6  10333633.89821
  20625760.9674  -16170205.29248 -12473239.28163
  23399940.0684   -4939382.46645  -3700224.96961
  23114499.068    -4473545.561 6  -3395893.76521
  22073577.4984  -12501627.57546  -9583486.35161
  21138334.451     1116799.415 6    888559.12622
 91  4 25 21 31 14.9980000  0  6G18G 2G16G11G 6G19
  23334496.6624   13332220.06445  10370461.60261
  20621494.6474  -16192627.78148 -12490711.31663
  23402227.3264   -4927359.73945  -3690856.71261
  23118208.6394   -4454069.62046  -3380717.75861
  22067007.8654  -12536142.86546  -9610381.29361
  21140985.607     1130739.909 6    899421.83222
 91  4 25 21 31 29.9980000  0  6G18G 2G16G11G 6G19
  23343494.272    13379514.180 5  10407314.07821
  20617241.4204  -16214974.49048 -12508124.30963
  23404532.818    -4915236.913 5  -3681410.45121
  23121941.232    -4434463.299 6  -3365440.15421
  22060441.7094  -12570649.09046  -9637269.16561
  21143649.959     1144734.193 6    910326.45322
 91  4 25 21 31 44.9980000  0  6G18G 2G16G11G 6G19
  23352501.2404   13426840.76645  10444191.87761
  20613004.4754  -16237244.63048 -12525477.63663
  23406862.131    -4903013.409 5  -3671885.79721
  23125697.490    -4414726.111 6  -3350060.57621
  22053879.272   -12605145.415 6  -9664149.33621
  21146322.279     1158783.145 6    921273.67422
 91  4 25 21 31 59.9980000  0  6G18G 2G16G11G 6G19
  23361516.561    13474199.605 5  10481094.78621
  20608781.756   -16259438.353 8 -12542771.42023
  23409205.147    -4890689.242 5  -3662282.65921
  23129474.654    -4394858.167 6  -3334579.11121
  22047316.873   -12639631.856 6  -9691021.80221
  21149005.154     1172886.902 6    932263.59622
 91  4 25 21 32 14.9980000  0  6G18G 2G16G11G 6G19
  23370537.272    13521599.305 6  10518029.52821
  20604574.014   -16281546.539 8 -12559998.55423
  23411570.381    -4878256.044 5  -3652594.54721
  23133282.647    -4374850.629 6  -3318988.86721
  22040755.904   -12674099.097 6  -9717879.30521
  21151704.342     1187054.725 6    943303.44022
 91  4 25 21 32 29.9980000  0  6G18G 2G16G11G 6G19
  23379561.748    13569035.688 5  10554992.86721
  20600382.2644  -16303573.25148 -12577162.19763
  23413956.9434   -4865717.87945  -3642824.67061
  23137114.529    -4354707.792 6  -3303293.20021
  22034198.826   -12708551.122 6  -9744724.95421
  21154410.272     1201282.612 6    954390.09122
 91  4 25 21 32 44.9980000  0  6G18G 2G16G11G 6G19
  23388596.217    13616506.133 6  10591982.74521
  20596205.9904  -16325520.46648 -12594263.89463
  23416363.467    -4853077.026 5  -3632974.80921
  23140972.764    -4334431.993 6  -3287493.92921
  22027646.5294  -12742990.00046  -9771560.35761
  21157130.264     1215568.498 6    965521.93222
 91  4 25 21 32 59.9980000  0  6G18G 2G16G11G 6G19
  23397635.889    13664014.045 6  10629001.81921
  20592044.5534  -16347384.97048 -12611301.14063
  23418789.5064   -4840330.42545  -3623042.51961
  23144859.326    -4314020.188 6  -3271588.67621
  22021096.701   -12777412.479 6  -9798382.98221
  21159858.623     1229915.814 6    976701.64422
 91  4 25 21 33 14.9980000  0  6G18G 2G16G11G 6G19
  23406683.693    13711556.210 6  10666047.59021
  20587899.7564  -16369169.42348 -12628276.01063
  23421233.029    -4827480.953 5  -3613030.03821
  23148770.357    -4293475.022 6  -3255579.50121
  22014550.881   -12811820.914 6  -9825194.66621
  21162602.193     1244321.978 6    987927.20522
 91  4 25 21 33 29.9980000  0  6G18G 2G16G11G 6G19
  23415736.1864   13759132.25446  10703119.78461
  20583768.654   -16390874.209 8 -12645188.80423
  23423693.998    -4814529.481 5  -3602938.13721
  23152700.686    -4272797.178 6  -3239466.94321
  22008003.357   -12846215.670 6  -9851995.69021
  21165352.506     1258786.730 6    999198.42322
 91  4 25 21 33 44.9980000  0  6G18G 2G16G11G 6G19
  23424795.6154   13806742.92046  10740218.92261
  20579653.8504  -16412498.30048 -12662038.71764
  23426182.7874   -4801474.95245  -3592765.87861
  23156664.193    -4251985.897 6  -3223250.41221
  22001461.397   -12880595.669 6  -9878785.22921
  21168118.615     1273311.135 6   1010516.12422
 91  4 25 21 33 59.9980000  0  6G18G 2G16G11G 6G19
  23433863.7174   13854386.00946  10777343.33661
  20575554.4594  -16434043.70348 -12678827.31563
  23428683.9984   -4788319.71945  -3582515.15461
  23160646.061    -4231043.354 6  -3206931.59821
  21994922.5614  -12914962.81046  -9905564.73261
  21170892.959     1287893.417 6   1021878.92722
 91  4 25 21 34 14.9980000  0  6G18G 2G16G11G 6G19
  23442934.326    13902058.889 6  10814490.96621
  20571467.8184  -16455512.85748 -12695556.49563
  23431208.6864   -4775066.61645  -3572188.19461
  23164659.303    -4209972.117 6  -3190512.50421
  21988383.7794  -12949319.46546  -9932336.06461
  21173678.061     1302531.033 6   1033284.84422
 91  4 25 21 34 29.9980000  0  6G18G 2G16G11G 6G19
  23452011.5454   13949759.55246  10851660.23661
  20567397.8734  -16476907.45848 -12712227.58463
  23433748.5764   -4761717.54045  -3561786.45161
  23168696.217    -4188774.063 6  -3173994.58821
  21981847.8184  -12983667.08546  -9959100.35861
  21176474.787     1317222.554 6   1044732.76022
 91  4 25 21 34 44.9980000  0  6G18G 2G16G11G 6G19
  23461093.0764   13997492.33246  10888854.53561
  20563341.1154  -16498223.17648 -12728837.20663
  23436306.740    -4748268.115 5  -3551306.50321
  23172751.0064   -4167445.03646  -3157374.62261
  21975314.3814  -13018001.34946  -9985854.24461
  21179280.311     1331972.432 6   1056226.15522
 91  4 25 21 34 59.9980000  0  6G18G 2G16G11G 6G19
  23470185.2404   14045257.28046  10926073.90961
  20559299.5294  -16519459.67848 -12745385.09763
  23438886.7564   -4734718.34845  -3540748.34661
  23176838.725    -4145984.738 6  -3140652.36421
  21968782.553   -13052321.608 6 -10012597.22121
  21182097.639     1346781.189 6   1067765.43922
 91  4 25 21 35 14.9980000  0  6G18G 2G16G11G 6G19
  23479279.693    14093040.203 5  10963307.29021
  20555271.0534  -16540630.86048 -12761882.09463
  23441482.6154   -4721082.35445  -3530123.05261
  23180939.9364   -4124407.25346  -3123838.79261
  21962253.014   -13086641.646 6 -10039340.02921
  21184923.647     1361635.024 6   1079339.83222
 91  4 25 21 35 29.9980000  0  6G18G 2G16G11G 6G19
  23488376.7174   14140847.63646  11000559.76661
  20551257.3114  -16561729.73548 -12778322.74763
  23444095.592    -4707353.297 5  -3519425.23021
  23185071.287    -4102705.916 6  -3106928.70821
  21955721.7644  -13120954.60246 -10066077.30861
  21187760.014     1376540.914 6   1090954.79922
 91  4 25 21 35 44.9980000  0  6G18G 2G16G11G 6G19
  23497478.2324   14188684.01146  11037834.80061
  20547255.7324  -16582751.60148 -12794703.39263
  23446729.0614   -4693526.79145  -3508651.48461
  23189227.2484   -4080876.42146  -3089918.77761
  21949194.225   -13155255.714 6 -10092805.37021
  21190609.936     1391503.579 6   1102613.99522
 91  4 25 21 35 59.9980000  0  6G18G 2G16G11G 6G19
  23506586.7954   14236550.73646  11075133.48061
  20543270.8574  -16603695.06748 -12811022.94763
  23449377.7484   -4679601.76645  -3497800.88761
  23193401.6394   -4058917.36546  -3072807.88061
  21942669.5614  -13189543.32546 -10119522.90261
  21193469.701     1406524.696 6   1114318.74522
 91  4 25 21 36 14.9980000  0  6G18G 2G16G11G 6G19
  23515700.053    14284444.529 5  11112453.25621
  20539299.1314  -16624563.43648 -12827283.98563
  23452044.4984   -4665581.81345  -3486876.41361
  23197606.529    -4036832.158 6  -3055598.67721
  21936147.443   -13223820.539 6 -10146232.34521
  21196334.076     1421601.146 6   1126066.61122
 91  4 25 21 36 29.9980000  0  6G18G 2G16G11G 6G19
  23524820.053    14332363.457 5  11149792.60721
  20535341.9904  -16645358.18248 -12843487.65463
  23454728.9984   -4651468.67145  -3475879.28561
  23201829.8034   -4014622.54346  -3038292.54061
  21929624.373   -13258088.762 6 -10172934.76821
  21199215.045     1436731.626 6   1137856.58222
 91  4 25 21 36 44.9980000  0  6G18G 2G16G11G 6G19
  23533942.3574   14380306.90245  11187151.07761
  20531400.0454  -16666079.70648 -12859634.27263
  23457432.693    -4637262.938 5  -3464810.01621
  23206082.514    -3992289.230 6  -3020890.00821
  21923107.7724  -13292348.43646 -10199630.52861
  21202104.647     1451915.417 6   1149688.09222
 91  4 25 21 36 59.9980000  0  6G18G 2G16G11G 6G19
  23543071.3424   14428276.30645  11224529.75161
  20527469.857   -16686725.929 8 -12875722.20923
  23460156.8114   -4622962.95445  -3453667.30161
  23210353.936    -3969830.394 6  -3003389.66721
  21916589.412   -13326597.453 6 -10226317.99121
  21205003.311     1467154.770 6   1161562.89022
 91  4 25 21 37 14.9980000  0  6G18G 2G16G11G 6G19
  23552202.256    14476271.325 5  11261928.39121
  20523556.3504  -16707297.29648 -12891751.81663
  23462895.1934   -4608569.25145  -3442451.53761
  23214651.701    -3947246.586 6  -2985791.95421
  21910073.5144  -13360835.98646 -10252997.27861
  21207917.0924    1482449.30146   1173480.69662
 91  4 25 21 37 29.9980000  0  6G18G 2G16G11G 6G19
  23561342.740    14524294.464 5  11299348.95221
  20519655.7404  -16727791.32048 -12907721.16263
  23465650.4434   -4594079.53745  -3431160.99161
  23218978.748    -3924535.359 6  -2968094.94821
  21903561.1784  -13395061.37646 -10279666.33061
  21210833.834     1497801.757 6   1185443.62722
 91  4 25 21 37 44.9980000  0  6G18G 2G16G11G 6G19
  23570486.4364   14572344.14845  11336790.19061
  20515769.7254  -16748209.02748 -12923631.03263
  23468422.3574   -4579494.84945  -3419796.43761
  23223323.2014   -3901698.15646  -2950299.77861
  21897051.5454  -13429274.63446 -10306325.91661
  21213769.115     1513211.046 6   1197450.84622
 91  4 25 21 37 59.9980000  0  6G18G 2G16G11G 6G19
  23579634.7724   14620418.02645  11374250.29361
  20511899.217   -16768552.553 8 -12939483.10723
  23471221.3344   -4564817.93945  -3408360.01561
  23227693.1784   -3878737.32646  -2932408.28161
  21890541.5764  -13463477.80946 -10332977.64961
  21216708.717     1528675.211 6   1209500.82622
 91  4 25 21 38 14.9980000  0  6G18G 2G16G11G 6G19
  23588790.4044   14668516.45945  11411729.52661
  20508041.7564  -16788821.54648 -12955277.09863
  23474028.2094   -4550048.71345  -3396851.67961
  23232086.912    -3855652.745 6  -2914420.34021
  21884034.9514  -13497670.47746 -10359621.19261
  21219665.584     1544194.738 6   1221593.95022
 91  4 25 21 38 29.9980000  0  6G18G 2G16G11G 6G19
  23597949.014    14716645.855 5  11449232.88121
  20504200.5844  -16809008.83948 -12971007.42663
  23476856.6544   -4535180.32045  -3385266.00961
  23236502.467    -3832437.479 6  -2896330.58421
  21877529.2484  -13531845.32546 -10386250.85161
  21222628.068     1559776.840 6   1233735.82522
 91  4 25 21 38 44.9980000  0  6G18G 2G16G11G 6G19
  23607109.2564   14764800.88945  11486756.21861
  20500373.381   -16829119.807 8 -12986678.28523
  23479706.420    -4520218.201 5  -3373607.36821
  23240942.061    -3809097.085 6  -2878143.31421
  21871029.8034  -13566007.67246 -10412870.77461
  21225606.537     1575416.227 6   1245922.34122
 91  4 25 21 38 59.9980000  0  6G18G 2G16G11G 6G19
  23616275.5534   14812981.63345  11524299.60061
  20496560.8894  -16849154.21348 -13002289.47863
  23482572.998    -4505162.320 5  -3361875.65521
  23245408.2484   -3785631.45246  -2859858.47161
  21864533.5534  -13600156.99346 -10439480.54461
  21228591.897     1591113.330 6   1258153.83522
 91  4 25 21 39 14.9980000  0  6G18G 2G16G11G 6G19
  23625452.4754   14861189.67045  11561864.24761
  20492764.1004  -16869110.26848 -13017839.62363
  23485453.8114   -4490011.41745  -3350069.89361
  23249900.881    -3762038.897 6  -2841474.71521
  21858035.4364  -13634291.44846 -10466078.72461
  21231591.701     1606870.045 6   1270431.77622
 91  4 25 21 39 29.9980000  0  6G18G 2G16G11G 6G19
  23634630.381    14909422.007 5  11599447.80921
  20488979.5924  -16888990.94648 -13033331.03363
  23488356.881    -4474768.334 5  -3338192.30821
  23254413.576    -3738322.647 6  -2822994.56621
  21851543.0224  -13668413.77446 -10492667.47061
  21234600.0844    1622683.53846   1282753.96562
 91  4 25 21 39 44.9980000  0  6G18G 2G16G11G 6G19
  23643812.9514   14957676.51645  11637048.69061
  20485211.9364  -16908798.14548 -13048765.18563
  23491275.8344   -4459434.95045  -3326244.31561
  23258946.0454   -3714484.65346  -2804419.55761
  21845051.2174  -13702525.64346 -10519248.04961
  21237620.959     1638552.206 6   1295119.14422
 91  4 25 21 39 59.9980000  0  6G18G 2G16G11G 6G19
  23653000.0614   15005952.66245  11674666.40461
  20481456.4124  -16928532.04148 -13064142.21663
  23494209.7794   -4444012.09245  -3314226.67061
  23263502.943    -3690525.446 6  -2785750.10221
  21838562.6474  -13736627.27246 -10545820.65661
  21240649.553     1654475.882 6   1307527.19022
 91  4 25 21 40 14.9980000  0  6G18G 2G16G11G 6G19
  23662189.795    15054249.524 5  11712300.27821
  20477713.6864  -16948193.14648 -13079462.53063
  23497157.732    -4428500.594 5  -3302139.95821
  23268091.787    -3666445.859 6  -2766986.83621
  21832072.7254  -13770719.21646 -10572385.71761
  21243690.428     1670453.864 6   1319977.54722
 91  4 25 21 40 29.9980000  0  6G18G 2G16G11G 6G19
  23671384.9204   15102572.78045  11749954.68561
  20473987.6624  -16967775.67548 -13094721.61764
  23500131.654    -4412894.870 5  -3289979.73421
  23272695.8184   -3642240.14546  -2748125.29761
  21825589.1314  -13804795.42846 -10598938.51761
  21246741.186     1686492.284 6   1332475.00322
 91  4 25 21 40 44.9980000  0  6G18G 2G16G11G 6G19
  23680586.592    15150914.311 5  11787623.35121
  20470275.2794  -16987287.43748 -13109925.55763
  23503116.256    -4397203.123 5  -3277752.53421
  23277326.4754   -3617916.48346  -2729171.86061
  21819108.7404  -13838863.66746 -10625485.09761
  21249804.850     1702583.251 6   1345013.40322
 91  4 25 21 40 59.9980000  0  6G18G 2G16G11G 6G19
  23689789.982    15199278.734 5  11825309.85221
  20466575.6784  -17006723.84948 -13125070.78264
  23506121.2954   -4381420.88245  -3265454.84861
  23281975.2094   -3593470.42046  -2710123.03461
  21812626.4364  -13872919.09946 -10652021.70761
  21252875.709     1718731.575 6   1357596.49722
 91  4 25 21 41 14.9980000  0  6G18G 2G16G11G 6G19
  23698996.4124   15247670.82645  11863017.93761
  20462892.8504  -17026079.66248 -13140153.20564
  23509137.5224   -4365543.00645  -3253082.59661
  23286652.0614   -3568897.03946  -2690975.01361
  21806150.5294  -13906956.40846 -10678544.19161
  21255962.889     1734942.525 6   1370228.39022
 91  4 25 21 41 29.9980000  0  6G18G 2G16G11G 6G19
  23708213.951    15296086.285 5  11900744.22721
  20459223.9674  -17045359.05548 -13155176.07964
  23512180.311    -4349573.976 5  -3240639.31621
  23291351.1004   -3544200.55946  -2671731.05961
  21799675.9674  -13940979.66046 -10705055.72061
  21259061.115     1751212.083 6   1382905.94822
 91  4 25 21 41 44.9980000  0  6G18G 2G16G11G 6G19
  23717429.303    15344527.835 5  11938490.84521
  20455570.4754  -17064559.10048 -13170137.12364
  23515236.4044   -4333511.30145  -3228123.14361
  23296075.8814   -3519378.38646  -2652389.17161
  21793204.3344  -13974985.71846 -10731553.85261
  21262166.920     1767543.246 6   1395631.51022
 91  4 25 21 41 59.9980000  0  6G18G 2G16G11G 6G19
  23726650.920    15392993.594 5  11976256.28521
  20451931.2874  -17083681.21148 -13185037.44064
  23518311.5614   -4317356.89045  -3215535.37561
  23300825.3114   -3494432.25746  -2632950.68861
  21786735.6544  -14008975.98346 -10758039.67661
  21265283.881     1783934.690 6   1408404.04822
 91  4 25 21 42 14.9980000  0  6G18G 2G16G11G 6G19
  23735879.8654   15441484.69645  12014041.48861
  20448308.3654  -17102724.42948 -13199876.28764
  23521400.678    -4301109.591 5  -3202875.29121
  23305594.4204   -3469361.28146  -2613414.92861
  21780270.1004  -14042949.35446 -10784512.33661
  21268415.857     1800387.443 6   1421224.34822
 91  4 25 21 42 29.9980000  0  6G18G 2G16G11G 6G19
  23745111.2014   15490004.01845  12051848.69961
  20444700.1704  -17121685.71048 -13214651.27964
  23524513.607    -4284766.615 5  -3190140.66321
  23310387.1074   -3444162.55446  -2593779.61961
  21773809.4674  -14076902.56946 -10810969.29162
  21271560.897     1816904.825 6   1434095.02422
 91  4 25 21 42 44.9980000  0  6G18G 2G16G11G 6G19
  23754351.553    15538547.122 5  12089674.40421
  20441106.850   -17140568.912 8 -13229365.44424
  23527640.256    -4268332.238 5  -3177334.82021
  23315205.3114   -3418840.28346  -2574048.05261
  21767351.8264  -14110839.33246 -10837413.42761
  21274714.936     1833483.158 6   1447013.18022
 91  4 25 21 42 59.9980000  0  6G18G 2G16G11G 6G19
  23763591.123    15587110.843 5  12127516.23121
  20437526.7094  -17159377.22448 -13244021.23464
  23530783.3814   -4251809.96345  -3164460.43661
  23320046.9044   -3393397.75646  -2554222.76861
  21760895.5924  -14144762.80546 -10863847.20862
  21277878.365     1850119.171 6   1459976.29022
 91  4 25 21 43 14.9980000  0  6G18G 2G16G11G 6G19
  23772839.904    15635700.082 5  12165377.92121
  20433962.975   -17178105.555 8 -13258614.71424
  23533944.4904   -4235194.99845
  23324912.3814   -3367829.99446  -2534299.90261
  21754443.1074  -14178667.68946 -10890266.50762
  21281057.9124    1866818.25646   1472988.54662
 91  4 25 21 43 29.9980000  0  6G18G 2G16G11G 6G19
  23782088.615    15684317.111 5  12203261.24821
  20430414.850   -17196751.119 8 -13273143.70924
  23537123.7954   -4218484.53545
  23329802.4204   -3342134.56646  -2514277.56461
  21747995.5454  -14212551.02946 -10916669.01662
  21284251.420     1883583.212 6   1486052.13722
 91  4 25 21 43 44.9980000  0  6G18G 2G16G11G 6G19
  23791346.897    15732962.924 5  12241167.01721
  20426882.678   -17215312.740 8 -13287607.28024
  23540322.686    -4201677.709 5
  23334717.1544   -3316310.55846  -2494155.03461
  21741553.2094  -14246411.50446 -10943053.70462
  21287452.865     1900415.276 6
 91  4 25 21 43 59.9980000  0  6G18G 2G16G11G 6G19
  23800607.936    15781638.585 5  12279096.02721
  20423366.834   -17233789.378 8 -13302004.63624
  23543541.404    -4184773.801 5
  23339659.350    -3290357.263 6  -2473931.75421
  21735111.9594  -14280248.08746 -10969419.77962
  21290667.912     1917315.388 6   1512336.91122
 91  4 25 21 44 14.9980000  0  6G18G 2G16G11G 6G19
  23809873.412    15830339.921 5  12317045.04821
  20419866.631   -17252185.012 8 -13316338.87524
  23546775.420    -4167776.941 5
  23344620.4364   -3264278.65046  -2453610.83361
  21728678.2644  -14314064.50946 -10995770.15361
  21293895.803     1934279.890 6   1525555.98522
 91  4 25 21 44 29.9980000  0  6G18G 2G16G11G 6G19
  23819147.5684   15879064.46145  12355012.16661
  20416380.068   -17270501.996 8 -13330611.82324
  23550027.545    -4150689.632 5
  23349605.3894   -3238077.24746  -2433194.22361
  21722246.5294  -14347862.90446 -11022106.47361
  21297135.748     1951306.696 6
 91  4 25 21 44 44.9980000  0  6G18G 2G16G11G 6G19
  23828422.678    15927808.888 5  12392994.78521
  20412908.928   -17288742.825 8 -13344825.43324
  23553295.2794   -4133514.93545
  23354608.4754   -3211755.93546  -2412684.17061
  21715817.4364  -14381645.78546 -11048430.69962
  21300387.826     1968393.196 6   1552137.74522
 91  4 25 21 44 59.9980000  0  6G18G 2G16G11G 6G19
  23837704.693    15976576.830 5  12430995.72021
  20409453.607   -17306904.206 8 -13358977.13424
  23556580.1624   -4116249.84545        -0.40071
  23359641.350    -3185311.651 6  -2392078.30421
  21709392.8894  -14415409.56046 -11074740.04562
  21303650.217     1985542.812 6   1565501.06322
 91  4 25 21 45 14.9980000  0  6G18G 2G16G11G 6G19
  23846989.3264   16025368.20345  12469014.92461
  20406012.639   -17324986.007 8 -13373066.82724
  23559883.2644   -4098894.15345     13523.35961
  23364700.2564   -3158744.33946  -2371376.56261
  21702972.6544  -14449154.02446 -11101034.34662
  21306927.334     2002755.649 6   1578913.64122
 91  4 25 21 45 29.9980000  0  6G18G 2G16G11G 6G19
  23856278.467    16074183.204 5  12507052.51421
  20402586.857   -17342987.485 8 -13387093.92524
  23563202.2404   -4081447.59945     27117.92961
  23369784.6394   -3132053.65246  -2350578.70661
  21696554.5924  -14482878.40146 -11127312.99161
  21310214.061     2020032.536 6   1592376.13022
 91  4 25 21 45 44.9980000  0  6G18G 2G16G11G 6G19
  23865567.7874   16123015.91745  12545103.92661
  20399176.100   -17360914.205 8 -13401062.77624
  23566540.818    -4063916.274 5     40778.55621
  23374888.225    -3105245.362 6  -2329689.19221
  21690138.7954  -14516588.15346 -11153580.24162
  21313512.256     2037368.090 6   1605884.33322
 91  4 25 21 45 59.9980000  0  6G18G 2G16G11G 6G19
  23874867.975    16171870.378 5  12583172.27121
  20395779.529   -17378762.403 8 -13414970.43924
  23569891.170    -4046296.400 5     54508.12621
  23380009.529    -3078315.689 6  -2308705.10221
  21683727.9204  -14550279.02246 -11179832.77662
  21316822.654     2054766.368 6   1619441.40922
 91  4 25 21 46 14.9980000  0  6G18G 2G16G11G 6G19
  23884170.334    16220743.563 5  12621255.23121
  20392397.303   -17396534.782 8 -13428819.01924
  23573265.029    -4028590.862 5     68304.51121
  23385151.5684   -3051267.74446  -2287628.84061
  21677320.732   -14583953.705 6 -11206072.70622
  21320145.545     2072224.732 6   1633045.31522
 91  4 25 21 46 29.9980000  0  6G18G 2G16G11G 6G19
  23893472.506    16269634.332 5  12659351.89421
  20389029.295   -17414232.476 8 -13442609.40824
  23576643.6474   -4010801.07144     82166.60261
  23390320.5764   -3024102.87046  -2266461.48161
  21670915.3114  -14617613.29746 -11232300.86862
  21323477.764     2089742.029 6   1646695.13522
 91  4 25 21 46 44.9980000  0  6G18G 2G16G11G 6G19
  23902777.482    16318544.370 5  12697463.60221
  20385676.740   -17431853.008 8 -13456339.66924
  23580051.943    -3992924.775 5     96095.95721
  23395519.076    -2996818.836 6  -2245201.27221
  21664513.1314  -14651255.23346 -11258515.27362
  21326825.100     2107320.924 6   1660392.96222
 91  4 25 21 46 59.9980000  0  6G18G 2G16G11G 6G19
  23912088.803    16367467.733 5  12735585.64121
  20382336.670   -17449402.376 8 -13470014.47724
  23583468.1314   -3974968.19645    110087.94261
  23400731.381    -2969421.895 6  -2223853.07721
  21658113.6934  -14684885.25146 -11284720.39262
  21330180.162     2124955.485 6   1674134.15722
 91  4 25 21 47 14.9980000  0  5G 2G16G11G 6G19
  20379011.795   -17466877.536 8 -13483631.46324
  23586900.381    -3956928.693 5    124144.59221
  23405963.303    -2941909.160 6  -2202414.65121
  21651716.0684  -14718500.18446 -11310913.76362
  21333547.654     2142648.929 6   1687921.24122
 91  4 25 21 47 29.9980000  0  5G 2G16G11G 6G19
  20375699.842   -17484279.692 8 -13497191.56524
  23590350.959    -3938807.822 5    138264.57621
  23411223.0844   -2914282.08046  -2180887.13761
  21645322.412   -14752101.042 6 -11337096.16322
  21336922.381     2160400.150 6   1701753.33922
 91  4 25 21 47 44.9980000  0  5G 2G16G11G 6G19
  20372402.264   -17501608.786 8 -13510694.73124
  23593809.311    -3920605.822 4    152447.78921
  23416505.818    -2886540.861 6  -2159270.67821
  21638931.8654  -14785687.65846 -11363267.46362
  21340313.350     2178209.184 6   1715630.49222
 91  4 25 21 47 59.9980000  0  5G 2G16G11G 6G19
  20369119.061   -17518864.344 8 -13524140.59524
  23597291.8814   -3902322.31445    166694.50561
  23421807.850    -2858685.346 6  -2137565.15621
  21632540.4044  -14819259.55646 -11389427.29962
  21343712.076     2196076.516 6   1729553.06922
 91  4 25 21 48 14.9980000  0  5G 2G16G11G 6G19
  20365848.076   -17536050.859 8 -13537532.66524
  23600789.045    -3883961.904 5    181001.17921
  23427125.998    -2830720.022 6  -2115774.06421
  21626155.912   -14852820.785 6 -11415578.82322
  21347123.990     2213998.167 6   1743517.97822
 91  4 25 21 48 29.9980000  0  5G 2G16G11G 6G19
  20362592.475   -17553163.733 8 -13550867.35124
  23604294.045    -3865520.174 5    195371.20621
  23432469.1784   -2802640.45546  -2093893.95561
  21619772.631   -14886366.551 6 -11441718.30322
  21350548.240     2231978.745 6   1757528.79722
 91  4 25 21 48 44.9980000  0  5G 2G16G11G 6G19
  20359348.709   -17570205.481 8 -13564146.61024
  23607819.584    -3847000.170 5    209802.20621
  23437834.8814   -2774449.68946  -2071927.19761
  21613389.545   -14919899.463 6 -11467847.76722
  21353979.553     2250015.632 6   1771583.49622
 91  4 25 21 48 59.9980000  0  5G 2G16G11G 6G19
  20356118.178   -17587177.185 8 -13577371.29224
  23611361.928    -3828403.147 5    224293.23921
  23443217.311    -2746148.918 6  -2049874.71921
  21607012.193   -14953420.384 6 -11493967.88022
  21357420.5534    2268107.87646   1785681.33962
 91  4 25 21 49 14.9980000  0  5G 2G16G11G 6G19
  20352903.193   -17604075.430 8 -13590538.73424
  23614914.1234   -3809725.94645    238846.70561
  23448624.514    -2717734.860 6  -2027733.96621
  21600637.029   -14986925.586 6 -11520075.75622
  21360875.826     2286259.185 6   1799825.19422
 91  4 25 21 49 29.9980000  0  5G 2G16G11G 6G19
  20349700.920   -17620900.050 8 -13603648.80424
  23618482.654    -3790969.148 5    253462.26921
  23454049.9204   -2689207.68946  -2005505.08061
  21594263.811   -15020414.852 6 -11546171.20822
  21364339.678     2304469.794 6   1814015.26322
 91  4 25 21 49 44.9980000  0  5G 2G16G11G 6G19
  20346514.068   -17637653.640 8 -13616703.52724
  23622066.678    -3772135.225 5    268137.93021
  23459502.717    -2660570.341 6  -1983190.33621
  21587893.537   -15053890.783 6 -11572256.27622
  21367814.912     2322736.951 6   1828249.40122
 91  4 25 21 49 59.9980000  0  5G 2G16G11G 6G19
  20343339.943   -17654333.338 8 -13629700.67624
  23625663.482    -3753221.416 5    282875.75521
  23464967.9514   -2631820.05746  -1960787.57961
  21581525.420   -15087350.179 6 -11598328.44922
  21371303.701     2341063.711 6   1842529.97422
 91  4 25 21 50 14.9980000  0  5G 2G16G11G 6G19
  20340179.287   -17670942.749 8 -13642643.05024
  23629280.2014   -3734231.89845    297672.62961
  23470464.1784   -2602960.54746  -1938299.72561
  21575160.482   -15120796.401 6 -11624390.36122
  21374802.404     2359446.811 6   1856854.45122
 91  4 25 21 50 29.9980000  0  5G 2G16G11G 6G19
  20337031.318   -17687485.165 8 -13655533.22124
  23632910.0374   -3715169.99046    312525.88861
  23475979.7404   -2573995.33746  -1915729.51161
  21568798.139   -15154232.656 6 -11650444.50422
  21378309.889     2377882.984 6   1871220.27922
 91  4 25 21 50 44.9980000  0  5G 2G16G11G 6G19
  20333896.787   -17703958.031 8 -13668369.20124
  23636546.975    -3696033.377 6    327437.37521
  23481509.264    -2544922.235 6  -1893075.21321
  21562438.498   -15187656.283 6 -11676488.81822
  21381829.404     2396374.787 6   1885629.45422
 91  4 25 21 50 59.9980000  0  5G 2G16G11G 6G19
  20330775.436   -17720361.020 8 -13681150.73124
  23640206.2014   -3676822.14445    342407.01261
  23487058.787    -2515741.215 6  -1870336.83521
  21556079.943   -15221066.840 6 -11702522.94222
  21385358.428     2414922.512 6   1900082.21222
 91  4 25 21 51 14.9980000  0  5G 2G16G11G 6G19
  20327667.498   -17736688.808 8 -13693873.66224
  23643876.3034   -3657531.19045    357438.74261
  23492637.107    -2486447.171 6  -1847510.38721
  21549725.6544  -15254458.76546 -11728542.55262
  21388900.529     2433531.695 6   1914582.86022
 91  4 25 21 51 29.9980000  0  5G 2G16G11G 6G19
  20324574.068   -17752946.305 8 -13706541.82324
  23647561.6934   -3638165.83945    372528.45261
  23498237.139    -2457045.337 6  -1824599.95321
  21543374.2094  -15287836.87846 -11754551.40762
  21392451.982     2452197.618 6   1929127.71422
 91  4 25 21 51 44.9980000  0  5G 2G16G11G 6G19
  20321493.967   -17769128.481 8 -13719151.29123
  23651261.9044   -3618721.10245    387680.04961
  23503853.662    -2427530.702 6  -1801601.60921
  21537026.0224  -15321195.81146 -11780545.31262
  21396016.764     2470925.513 6   1943720.86922
 91  4 25 21 51 59.9980000  0  5G 2G16G11G 6G19
  20318428.232   -17785246.289 8 -13731710.60224
  23654977.561    -3599208.229 5    402884.68821
  23509484.0294   -2397914.51646  -1778524.14561
  21530679.1234  -15354546.43746 -11806532.75562
  21399588.732     2489704.469 6   1958353.78522
 91  4 25 21 52 14.9980000  0  5G 2G16G11G 6G19
  20315372.537   -17801295.543 8 -13744216.49424
  23658701.7254   -3579622.94345    418145.79361
  23515143.0924   -2368192.95946  -1755364.57161
  21524335.1864  -15387884.38046 -11832510.30462
  21403172.740     2508538.891 6   1973029.94322
 91  4 25 21 52 29.9980000  0  5G 2G16G11G 6G19
  20312333.943   -17817272.236 8 -13756665.84524
  23662443.0924   -3559961.85645    433465.94361
  23520817.326    -2338362.060 6  -1732119.80021
  21517994.2254  -15421205.31446 -11858474.60862
  21406768.209     2527432.961 6   1987752.57522
 91  4 25 21 52 44.9980000  0  4G 2G11G 6G19
  20309306.514   -17833174.882 8 -13769057.49924
  23526512.0924   -2308420.51346  -1708788.80561
  21511658.2794  -15454507.73546 -11884424.48762
  21410375.811     2546388.358 6   2002522.99522
 91  4 25 21 52 59.9980000  0  4G 2G11G 6G19
  20306293.475   -17849008.369 8 -13781395.26424
  23532230.920    -2278373.612 6  -1685375.71921
  21505321.3814  -15487796.44446 -11910363.68262
  21413993.420     2565400.084 6   2017337.31122
 91  4 25 21 53 14.9980000  0  4G 2G11G 6G19
  20303294.139   -17864773.882 8 -13793680.05624
  23537971.709    -2248222.817 6  -1661881.67521
  21498990.8734  -15521072.38847 -11936292.92262
  21417622.092     2584466.894 6   2032194.54722
 91  4 25 21 53 29.9980000  0  4G 2G11G 6G19
  20300305.545   -17880478.816 8 -13805917.64624
  23543729.5534   -2217975.71746  -1638312.59561
  21492660.1474  -15554342.80946 -11962217.86562
  21421259.717     2603581.545 6   2047089.05222
 91  4 25 21 53 44.9980000  0  4G 2G11G 6G19
  20297330.623   -17896112.023 8 -13818099.34424
  23549502.2174   -2187621.31846  -1614659.89561
  21486330.7014  -15587596.39946 -11988129.69162
  21424908.631     2622755.118 6   2062029.48222
 91  4 25 21 53 59.9980000  0  4G 2G11G 6G19
  20294368.897   -17911674.723 8 -13830226.10024
  23555299.9044   -2157161.14346  -1590924.78061
  21480005.8654  -15620834.15246 -12014029.17662
  21428569.748     2641986.606 6   2077015.03322
 91  4 25 21 54 14.9980000  0  4G 2G11G 6G19
  20291422.225   -17927163.147 8 -13842294.98224
  23561115.6544   -2126591.63846  -1567104.47061
  21473685.2724  -15654052.11647 -12039913.23862
  21432239.084     2661279.994 6   2092048.82222
 91  4 25 21 54 29.9980000  0  4G 2G11G 6G19
  20288487.334   -17942579.523 8 -13854307.71924
  23566952.670    -2095915.335 6  -1543200.94621
  21467367.2484  -15687252.39647 -12065783.52662
  21435922.6004    2680633.07146   2107129.11062
 91  4 25 21 54 44.9980000  0  4G 2G11G 6G19
  20285567.904   -17957924.744 8 -13866265.01524
  23572814.326    -2065133.431 6  -1519215.12621
  21461050.5454  -15720435.64647 -12091640.53862
  21439615.397     2700045.134 6   2122255.36822
 91  4 25 21 54 59.9980000  0  4G 2G11G 6G19
  20282662.482   -17973193.689 8 -13878162.87324
  23578689.8034   -2034241.06846  -1495143.25361
  21454741.8184  -15753596.78647 -12117480.32562
  21443323.037     2719521.232 6   2137431.52422
 91  4 25 21 55 14.9980000  0  4G 2G11G 6G19
  20279770.022   -17988389.312 8 -13890003.59524
  23584589.4364   -2003241.43446  -1470987.78161
  21448436.5684  -15786738.31247 -12143304.82862
  21447040.490     2739058.642 6   2152655.45222
 91  4 25 21 55 29.9980000  0  4G 2G11G 6G19
  20276893.537   -18003507.653 8 -13901784.10324
  23590508.5534   -1972130.55646  -1446745.61761
  21442132.4364  -15819856.00047 -12169110.75462
  21450769.8504    2758661.76346   2167930.58062
 91  4 25 21 55 44.9980000  0  4G 2G11G 6G19
  20274030.451   -18018552.130 8 -13913507.04724
  23596448.7094   -1940912.42546  -1422419.90161
  21435835.1934  -15852953.28447 -12194900.78262
  21454512.8734    2778327.03846   2183254.14462
 91  4 25 21 55 59.9980000  0  4G 2G11G 6G19
  20271180.764   -18033525.797 8 -13925174.81924
  23602409.6934   -1909590.23846  -1398013.08761
  21429541.2564  -15886033.00247 -12220677.12262
  21458265.8114    2798051.47246   2198623.80262
 91  4 25 21 56 14.9980000  0  4G 2G11G 6G19
  20268346.772   -18048422.836 8 -13936782.88224
  23608391.7404   -1878158.17446  -1373520.66561
  21423250.5064  -15919089.09447 -12246435.05062
  21462034.186     2817841.130 6   2214044.28722
 91  4 25 21 56 29.9980000  0  4G 2G11G 6G19
  20265524.889   -18063246.674 8 -13948333.90724
  23614396.545    -1846620.080 6  -1348945.62021
  21416962.2564  -15952124.80847 -12272177.09662
  21465807.4364    2837692.60046   2229512.93862
 91  4 25 21 56 44.9980000  0  4G 2G11G 6G19
  20262718.748   -18078000.735 8 -13959830.55524
  23620416.5844   -1814979.58846  -1324290.78061
  21410679.9364  -15985143.49847 -12297905.87762
  21469600.5454    2857602.51746   2245027.12662
 91  4 25 21 56 59.9980000  0  4G 2G11G 6G19
  20259924.967   -18092680.481 8 -13971269.29524
  23626450.8114   -1783232.36146  -1299552.77261
  21404400.1314  -16018140.23047 -12323617.54862
  21473397.9204    2877575.62646   2260590.56062
 91  4 25 21 57 14.9980000  0  4G 2G11G 6G19
  20257145.357   -18107284.239 8 -13982648.82724
  23632520.6234   -1751376.97946  -1274730.50561
  21398126.123   -16051113.397 7 -12349310.85322
  21477213.4044    2897613.61846   2276204.55262
 91  4 25 21 57 29.9980000  0  4G 2G11G 6G19
  20254381.248   -18121810.619 8 -13993968.06524
  23638601.0764   -1719412.43846  -1249823.15661
  21391856.045   -16084061.345 7 -12374984.50422
  21481038.7724    2917717.94046   2291870.22562
 91  4 25 21 57 44.9980000  0  4G 2G11G 6G19
  20251630.537   -18136262.486 8 -14005229.23424
  23644703.857    -1687341.899 6  -1224833.21921
  21385590.193   -16116986.780 7 -12400640.61422
  21484877.2644    2937885.72146   2307585.35562
 91  4 25 21 57 59.9980000  0  4G 2G11G 6G19
  20248894.600   -18150645.443 8 -14016436.71124
  23650827.514    -1655171.031 6  -1199765.09321
  21379326.904   -16149894.960 7 -12426283.28322
  21488722.553     2958111.647 6   2323345.79122
 91  4 25 21 58 14.9980000  0  4G 2G11G 6G19
  20246171.201   -18164955.426 8 -14027587.32924
  23656965.2014   -1622896.15046  -1174615.94061
  21373069.740   -16182781.721 7 -12451909.24722
  21492587.5534    2978399.92746   2339154.80962
 91  4 25 21 58 29.9980000  0  4G 2G11G 6G19
  20243463.006   -18179191.825 8 -14038680.60324
  23663128.920    -1590517.059 6  -1149385.58421
  21366814.647   -16215646.574 7 -12477518.15622
  21496458.1004    2998751.01146   2355012.76062
 91  4 25 21 58 44.9980000  0  4G 2G11G 6G19
  20240766.490   -18193355.695 8 -14049717.36224
  23669312.3184   -1558034.75346  -1124074.79961
  21360566.545   -16248490.022 7 -12503110.37522
  21500342.3504    3019164.20946   2370919.12162
 91  4 25 21 58 59.9980000  0  4G 2G11G 6G19
  20238085.717   -18207446.359 8 -14060697.08324
  23675512.193    -1525448.886 6  -1098683.30321
  21354320.420   -16281311.155 7 -12528685.20822
  21504238.0224    3039640.26346   2386874.45562
 91  4 25 21 59 14.9980000  0  4G 2G11G 6G19
  20235416.279   -18221469.725 8 -14071624.36024
  23681731.443    -1492765.558 6  -1073215.88821
  21348079.7404  -16314115.85247 -12554247.24262
  21508147.725     3060173.260 6   2402874.16522
 91  4 25 21 59 29.9980000  0  4G 2G11G 6G19
  20232762.029   -18235421.410 8 -14082495.78224
  23687968.076    -1459980.830 6  -1047669.45321
  21341838.795   -16346899.517 7 -12579792.88522
  21512065.8114    3080767.82846   2418921.85162
 91  4 25 21 59 44.9980000  0  4G 2G11G 6G19
  20230119.193   -18249308.890 8 -14093317.17424
  23694233.1314   -1427102.21246  -1022049.85161
  21335603.053   -16379669.320 7 -12605327.72322
  21515995.2254    3101416.60546   2435011.77862
 91  4 25 21 59 59.9980000  0  4G 2G11G 6G19
  20227489.818   -18263123.950 8 -14104082.13724
  23700500.975    -1394121.807 6   -996350.94321
  21329371.811   -16412416.965 7 -12630845.29422
  21519935.404     3122127.887 6   2451150.41822
 91  4 25 22  0 14.9980000  0  4G 2G11G 6G19
  20224874.397   -18276867.841 8 -14114791.64024
  23706798.9904   -1361041.19546   -970573.94361
  21323145.232   -16445143.525 7 -12656346.43322
  21523891.3974    3142900.48646   2467336.82862
 91  4 25 22  0 29.9980000  0  4G 2G11G 6G19
  20222273.834   -18290539.567 8 -14125444.91724
  23713115.748    -1327859.526 6   -944718.21021
  21316920.467   -16477847.604 7 -12681830.06422
  21527851.811     3163735.423 6   2483571.81522
 91  4 25 22  0 44.9980000  0  4G 2G11G 6G19
  20219685.092   -18304139.322 8 -14136042.10824
  23719447.654    -1294577.216 6   -918784.05321
  21310701.623   -16510529.323 7 -12707296.25622
  21531831.7874    3184632.67346   2499855.36362
 91  4 25 22  0 59.9980000  0  4G 2G11G 6G19
  20217110.647   -18317670.212 8 -14146585.64324
  23725794.6474   -1261197.70946   -892774.13861
  21304486.498   -16543191.594 7 -12732747.30422
  21535819.1624    3205589.30746   2516185.17762
 91  4 25 22  1 14.9980000  0  4G 2G11G 6G19
  20214548.951   -18331130.616 8 -14157074.24824
  23732168.6154   -1227719.53246   -866687.36061
  21298274.162   -16575832.475 7 -12758181.68822
  21539817.5144    3226607.09846   2532562.64262
 91  4 25 22  1 29.9980000  0  4G 2G11G 6G19
  20212000.639   -18344524.426 8 -14167510.96824
  23738561.295    -1194146.978 6   -840527.03021
  21292067.428   -16608455.903 7 -12783602.46422
  21543826.506     3247682.089 6   2548984.68322
 91  4 25 22  1 44.9980000  0  4G 2G11G 6G19
  20209464.498   -18357848.707 8 -14177893.50424
  23744964.412    -1160477.374 6   -814291.07221
  21285862.9674  -16641058.62747 -12809007.11662
  21547852.311     3268817.356 6   2565453.69622
 91  4 25 22  1 59.9980000  0  4G 2G11G 6G19
  20206942.670   -18371102.335 8 -14188220.99224
  23751391.850    -1126709.876 6   -787978.84221
  21279663.0374  -16673639.43647 -12834394.68862
  21551883.2094    3290013.99746   2581970.52962
 91  4 25 22  2 14.9980000  0  4G 2G11G 6G19
  20204433.365   -18384286.785 8 -14198494.57524
  23757836.9284   -1092846.13146   -761591.59261
  21273468.0684  -16706199.55947 -12859766.14262
  21555929.1314    3311270.67646   2598534.14262
 91  4 25 22  2 29.9980000  0  4G 2G11G 6G19
  20201937.545   -18397403.599 8 -14208715.45224
  23764296.912    -1058887.909 6   -735130.75621
  21267273.9044  -16738740.11347 -12885122.34862
  21559984.2644    3332586.15546   2615143.57762
 91  4 25 22  2 44.9980000  0  4G 2G11G 6G19
  20199453.709   -18410452.775 8 -14218883.62524
  23770774.412    -1024835.459 6   -708596.46521
  21261086.5614  -16771261.08747 -12910463.30162
  21564052.4124    3353960.58946   2631798.94962
 91  4 25 22  2 59.9980000  0  4G 2G11G 6G19
  20196985.623   -18423431.992 8 -14228997.28624
  23777276.232     -990686.772 6   -681987.20321
  21254901.8114  -16803759.89247 -12935786.97362
  21568132.9044    3375396.23246   2648502.02462
 91  4 25 22  3 14.9980000  0  4G 2G11G 6G19
  20194527.568   -18436350.403 8 -14239063.56724
  23783789.662     -956451.144 6   -655310.19721
  21248719.1314  -16836245.40747 -12961100.29462
  21572220.2564    3396884.12846   2665245.80662
 91  4 25 22  3 29.9980000  0  4G 2G11G 6G19
  20192081.287   -18449195.557 8 -14249072.76624
  23790326.8184    -922116.40346   -628555.94961
  21242543.6154  -16868705.00347 -12986393.41862
  21576320.8974    3418436.73646   2682040.01662
 91  4 25 22  3 44.9980000  0  4G 2G11G 6G19
  20189650.1074  -18461969.98648 -14259026.85464
  23796873.4824    -887685.43845   -601726.71261
  21236370.6784  -16901141.15447 -13011668.27062
  21580435.6234    3440051.54546   2698882.69662
 91  4 25 22  3 59.9980000  0  4G 2G11G 6G19
  20187232.068   -18474680.150 8 -14268930.86224
  23803445.0844    -853164.84645   -574827.66361
  21230201.9364  -16933559.96447 -13036929.61262
  21584561.420     3461722.308 6   2715768.98222
 91  4 25 22  4 14.9980000  0  4G 2G11G 6G19
  20184826.662   -18487321.327 8 -14278781.11624
  23810032.1624    -818550.24145   -547855.35561
  21224035.3504  -16965956.40747 -13062173.52262
  21588696.467     3483453.921 6   2732702.68322
 91  4 25 22  4 29.9980000  0  4G 2G11G 6G19
  20182435.420   -18499890.137 8 -14288574.97824
  23816636.490     -783838.727 5   -520807.52421
  21217874.9514  -16998327.29147 -13087397.52262
  21592842.092     3505249.803 6   2749686.45922
 91  4 25 22  4 44.9980000  0  4G 2G11G 6G19
  20180056.592   -18512390.378 8 -14298315.41524
  23823257.076     -749034.117 5   -493687.13221
  21211721.1314  -17030675.87447 -13112604.13962
  21597002.5224    3527106.19446   2766717.38862
 91  4 25 22  4 59.9980000  0  4G 2G11G 6G19
  20177691.342   -18524817.823 8 -14307999.12224
  23829904.647     -714132.293 6   -466491.04821
  21205569.2014  -17062997.75147 -13137789.95462
  21601170.5374    3549027.46046   2783798.86362
 91  4 25 22  5 14.9980000  0  4G 2G11G 6G19
  20175340.545   -18537174.002 8 -14317627.29724
  23836559.3574    -679135.19145   -439220.65961
  21199423.6934  -17095294.24747 -13162955.98662
  21605359.5614    3571012.08546   2800929.71062
 91  4 25 22  5 29.9980000  0  4G 2G11G 6G19
  20173000.8264  -18549464.85448 -14327204.57464
  23843236.623     -644048.987 5   -411880.86121
  21193280.9904  -17127570.97247 -13188106.61662
  21609550.2874    3593054.43446   2818105.53762
 91  4 25 22  5 44.9980000  0  4G 2G11G 6G19
  20170674.834   -18561684.078 8 -14336726.03724
  23849935.428     -608867.705 5   -384466.98921
  21187145.3654  -17159821.58947 -13213236.89862
  21613758.6234    3615160.78246   2835331.23062
 91  4 25 22  5 59.9980000  0  4G 2G11G 6G19
  20168364.451   -18573834.245 8 -14346193.68024
  23856646.9044    -573594.13245   -356981.20161
  21181012.8654  -17192048.51447 -13238348.72562
  21617975.990     3637328.526 6   2852604.78922
 91  4 25 22  6 14.9980000  0  4G 2G11G 6G19
  20166064.811   -18585913.798 8 -14355606.30524
  23863372.7094    -538226.97445   -329422.48761
  21174885.4044  -17224249.96747 -13263440.69962
  21622205.7724    3659559.42346   2869927.52862
 91  4 25 22  6 29.9980000  0  4G 2G11G 6G19
  20163780.0064  -18597924.41148 -14364965.21764
  23870121.428     -502768.091 5   -301792.30321
  21168761.0294  -17256427.15547 -13288513.76962
  21626448.7724    3681852.04946   2887298.37862
 91  4 25 22  6 44.9980000  0  4G 2G11G 6G19
  20161507.951   -18609863.204 8 -14374268.15824
  23876888.318     -467215.081 5   -274088.74021
  21162641.9754  -17288577.18147 -13313565.67562
  21630702.647     3704209.360 6   2904719.62722
 91  4 25 22  6 59.9980000  0  4G 2G11G 6G19
  20159248.037   -18621735.458 8 -14383519.24824
  23883672.3034    -431573.19645   -246315.95661
  21156531.0374  -17320704.96647 -13338600.24762
  21634968.3654    3726626.20346   2922187.27262
 91  4 25 22  7 14.9980000  0  4G 2G11G 6G19
  20157002.5454  -18633542.26848 -14392719.34864
  23890470.6624    -395843.97245   -218475.10261
  21150420.8264  -17352811.46847 -13363618.23363
  21639246.3184    3749101.48046   2939700.44462
 91  4 25 22  7 29.9980000  0  4G 2G11G 6G19
  20154767.9984  -18645280.47048 -14401865.98363
  23897280.7014    -360024.38645   -190563.84461
  21144315.0614  -17384893.24947 -13388616.95862
  21643535.428     3771638.401 6   2957261.65822
 91  4 25 22  7 44.9980000  0  3G 2G 6G19
  20152547.686   -18656945.964 8 -14410955.96624
  21138214.8034  -17416946.18547 -13413593.20563
  21647836.982     3794241.123 6   2974874.13822
 91  4 25 22  7 59.9980000  0  3G 2G 6G19
  20150341.100   -18668543.786 8 -14419993.21523
  21132119.9044  -17448974.84447 -13438550.53362
  21652147.6004    3816904.94146   2992534.23462
 91  4 25 22  8 14.9980000  0  3G 2G 6G19
  20148147.600   -18680069.930 8 -14428974.61124
  21126031.5374  -17480975.16247 -13463485.78163
  21656475.061     3839633.798 6   3010245.00622
 91  4 25 22  8 29.9980000  0  3G 2G 6G19
  20145966.975   -18691529.303 8 -14437903.97624
  21119946.1864  -17512951.94647 -13488402.68963
  21660810.904     3862422.652 6   3028002.53222
 91  4 25 22  8 44.9980000  0  3G 2G 6G19
  20143799.576   -18702921.094 8 -14446780.68024
  21113864.9284  -17544904.05047 -13513300.36963
  21665159.7254    3885272.68346   3045807.72062
 91  4 25 22  8 59.9980000  0  3G 2G 6G19
  20141644.6624  -18714245.42648 -14455604.82564
  21107790.4124  -17576831.29247 -13538178.67563
  21669516.9284    3908183.73246   3063660.45962
 91  4 25 22  9 14.9980000  0  3G 2G 6G19
  20139503.131   -18725499.384 8 -14464374.13024
  21101718.9594  -17608730.67447 -13563035.27662
  21673889.7404    3931158.90346   3081563.15962
 91  4 25 22  9 29.9980000  0  3G 2G 6G19
  20137374.240   -18736685.865 8 -14473090.85623
  21095653.7564  -17640604.67147 -13587872.09163
  21678274.2644    3954195.42246   3099513.66762
 91  4 25 22  9 44.9980000  0  3G 2G 6G19
  20135258.006   -18747803.370 8 -14481753.83224
  21089593.4044  -17672451.51347 -13612687.75663
  21682670.4824    3977294.89346   3117513.22162
 91  4 25 22  9 59.9980000  0  3G 2G 6G19
  20133155.498   -18758856.190 8 -14490366.40123
  21083537.9984  -17704275.50647 -13637485.61162
  21687076.5224    4000453.07146   3135558.53162
 91  4 25 22 10 14.9980000  0  3G 2G 6G19
  20131063.647   -18769847.306 8 -14498930.89123
  21077485.6394  -17736079.28947 -13662267.72163
  21691493.6074    4023667.04846   3153647.31662
 91  4 25 22 10 29.9980000  0  3G 2G 6G19
  20128985.553   -18780768.779 8 -14507441.11223
  21071438.3344  -17767854.53347 -13687027.58563
  21695923.1234    4046944.83446   3171785.82362
 91  4 25 22 10 44.9980000  0  3G 2G 6G19
  20126919.740   -18791624.360 8 -14515899.99123
  21065396.3114  -17799604.99647 -13711768.14963
  21700366.1314    4070282.78946   3189971.21462
 91  4 25 22 10 59.9980000  0  3G 2G 6G19
  20124865.607   -18802413.416 8 -14524307.03123
  21059360.6314  -17831329.69847 -13736488.63662
  21704816.123     4093681.732 6   3208204.13222
 91  4 25 22 11 14.9980000  0  3G 2G 6G19
  20122825.576   -18813136.223 8 -14532662.45323
  21053327.225   -17863028.727 7 -13761189.12223
  21709283.7794    4117141.38946   3226484.35362
 91  4 25 22 11 29.9980000  0  3G 2G 6G19
  20120796.568   -18823796.673 8 -14540969.28223
  21047300.7094  -17894705.79347 -13785872.49163
  21713757.5924    4140658.05646   3244808.99862
 91  4 25 22 11 44.9980000  0  3G 2G 6G19
  20118781.490   -18834389.271 8 -14549223.24023
  21041276.897   -17926354.988 7 -13810534.14123
  21718243.7724    4164237.38946   3263182.48062
 91  4 25 22 11 59.9980000  0  3G 2G 6G19
  20116778.623   -18844912.760 8 -14557423.34423
  21035259.029   -17957975.044 7 -13835173.09523
  21722744.7484    4187880.77746   3281605.86562
 91  4 25 22 12 14.9980000  0  3G 2G 6G19
  20114790.193   -18855365.346 8 -14565568.20323
  21029248.8654  -17989563.86447 -13859787.69963
  21727256.0454    4211589.70046   3300080.32561
 91  4 25 22 12 29.9980000  0  3G 2G 6G19
  20112813.131   -18865754.553 8 -14573663.67423
  21023241.7644  -18021128.72347 -13884383.63663
  21731777.9364    4235356.98446   3318600.25661
 91  4 25 22 12 44.9980000  0  3G 2G 6G19
  20110848.545   -18876076.634 8 -14581706.83523
  21017240.803   -18052665.586 7 -13908957.75723
  21736312.5454    4259186.36646   3337168.57261
 91  4 25 22 12 59.9980000  0  3G 2G 6G19
  20108897.975   -18886329.178 8 -14589695.81623
  21011246.0064  -18084171.88147 -13933508.06463
  21740859.022     4283080.445 6   3355787.30921
 91  4 25 22 13 14.9980000  0  3G 2G 6G19
  20106958.998   -18896515.212 8 -14597632.97023
  21005254.7954  -18115650.43847 -13958036.75363
  21745418.8974    4307036.25346   3374454.14161
 91  4 25 22 13 29.9980000  0  3G 2G 6G19
  20105033.881   -18906637.361 8 -14605520.34623
  20999269.232   -18147103.571 7 -13982545.63223
  21749993.9984    4331051.43946   3393167.23861
 91  4 25 22 13 44.9980000  0  3G 2G 6G19
  20103118.748   -18916695.389 8 -14613357.75623
  20993289.178   -18178530.811 7 -14007034.33023
  21754570.2954    4355126.13646   3411926.71561
 91  4 25 22 13 59.9980000  0  3G 2G 6G19
  20101216.365   -18926687.515 8 -14621143.81323
  20987315.178   -18209930.054 7 -14031501.21623
  21759160.8504    4379262.28446   3430734.06961
 91  4 25 22 14 14.9980000  0  3G 2G 6G19
  20099328.1864  -18936614.83148 -14628879.37763
  20981343.631   -18241302.314 7 -14055947.07823
  21763766.0684    4403458.62346   3449588.32961
 91  4 25 22 14 29.9980000  0  3G 2G 6G19
  20097452.147   -18946476.224 8 -14636563.56424
  20975379.0454  -18272645.97547 -14080370.65463
  21768380.3344    4427716.89246   3468490.84661
 91  4 25 22 14 44.9980000  0  3G 2G 6G19
  20095587.701   -18956274.257 8 -14644198.38123
  20969419.920   -18303963.752 7 -14104774.06223
  21773012.5764    4452034.33846   3487439.46861
 91  4 25 22 14 59.9980000  0  3G 2G 6G19
  20093735.092   -18966005.209 8 -14651780.92623
  20963466.022   -18335251.448 7 -14129154.02923
  21777647.8034    4476414.62546   3506437.05961
 91  4 25 22 15 14.9980000  0  3G 2G 6G19
  20091896.912   -18975665.711 8 -14659308.57623
  20957518.982   -18366505.308 7 -14153507.63123
  21782301.2014    4500861.40646   3525486.46561
 91  4 25 22 15 29.9980000  0  3G 2G 6G19
  20090071.529   -18985258.762 8 -14666783.66723
  20951577.5764  -18397728.31147 -14177837.18563
  21786965.0374    4525371.71046   3544585.37161
 91  4 25 22 15 44.9980000  0  3G 2G 6G19
  20088257.842   -18994784.652 8 -14674206.42423
  20945641.584   -18428920.541 7 -14202142.76323
  21791642.6624    4549945.27646   3563733.57061
 91  4 25 22 15 59.9980000  0  3G 2G 6G19
  20086458.615   -19004245.784 8 -14681578.71923
  20939711.404   -18460084.023 7 -14226425.94223
  21796329.0684    4574579.68046   3582929.17661
 91  4 25 22 16 14.9980000  0  3G 2G 6G19
  20084671.381   -19013641.557 8 -14688900.08723
  20933785.967   -18491218.037 7 -14250686.16023
  21801031.4904    4599275.48446   3602172.62261
 91  4 25 22 16 29.9980000  0  3G 2G 6G19
  20082894.975   -19022970.899 8 -14696169.69023
  20927867.647   -18522321.071 7 -14274922.23723
  21805739.9284    4624034.30546   3621465.17361
 91  4 25 22 16 44.9980000  0  3G 2G 6G19
  20081132.686   -19032232.802 8 -14703386.74423
  20921955.1234  -18553392.10647 -14299133.37863
  21810468.4674    4648856.96546   3640807.47261
 91  4 25 22 16 59.9980000  0  3G 2G 6G19
  20079383.7874  -19041423.55248 -14710548.35663
  20916049.5764  -18584427.13947 -14323316.46063
  21815202.568     4673747.218 6   3660202.43721
 91  4 25 22 17 14.9980000  0  3G 2G 6G19
  20077647.967   -19050546.490 8 -14717657.12523
  20910150.8734  -18615429.19647 -14347473.85663
  21819950.100     4698701.822 6   3679647.53721
 91  4 25 22 17 29.9970000  0  3G 2G 6G19
  20075923.767   -19059607.846 8 -14724717.91124
  20904255.9074  -18646402.79047 -14371609.06463
  21824707.3684    4723712.54046   3699136.36861
 91  4 25 22 17 44.9970000  0  3G 2G 6G19
  20074211.399   -19068605.740 8 -14731729.24523
  20898367.587   -18677348.647 7 -14395722.66123
  21829481.6894    4748785.75046   3718673.90561
 91  4 25 22 17 59.9970000  0  3G 2G 6G19
  20072510.4074  -19077544.69048 -14738694.65164
  20892482.704   -18708269.691 7 -14419816.92923
  21834263.0324    4773914.87446   3738255.00261
 91  4 25 22 18 14.9970000  0  3G 2G 6G19
  20070821.5874  -19086419.86348 -14745610.35964
  20886603.837   -18739160.666 7 -14443887.76723
  21839057.7514    4799104.81946   3757883.49861
 91  4 25 22 18 29.9970000  0  3G 2G 6G19
  20069145.8294  -19095227.09148 -14752473.12664
  20880732.048   -18770017.300 7 -14467931.84523
  21843861.9704    4824359.74246   3777562.62361
 91  4 25 22 18 44.9970000  0  3G 2G 6G19
  20067480.3684  -19103975.49048 -14759290.05164
  20874864.720   -18800848.460 7 -14491956.07223
  21848677.2984    4849670.56446   3797285.31261
 91  4 25 22 18 59.9970000  0  3G 2G 6G19
  20065827.0794  -19112660.36748 -14766057.47764
  20869004.064   -18831649.111 7 -14515956.52123
  21853509.7204    4875042.18946   3817055.36961
 91  4 25 22 19 14.9970000  0  3G 2G 6G19
  20064187.1894  -19121285.07948 -14772778.02164
  20863147.931   -18862422.427 7 -14539935.67623
  21858346.1424    4900471.08946   3836870.06561
 91  4 25 22 19 29.9970000  0  3G 2G 6G19
  20062556.3144  -19129851.24148 -14779452.94264
  20857297.009   -18893169.956 7 -14563894.73623
  21863194.634     4925955.782 6   3856728.22621
 91  4 25 22 19 44.9970000  0  3G 2G 6G19
  20060936.7124  -19138358.77548 -14786082.18464
  20851450.728   -18923891.106 7 -14587833.24223
  21868055.7824    4951496.56346   3876630.09861
 91  4 25 22 19 59.9970000  0  3G 2G 6G19
  20059331.4934  -19146801.75048 -14792661.11264
  20845610.931   -18954579.779 7 -14611746.44223
  21872926.673     4977099.486 6   3896580.39921
 91  4 25 22 20 14.9970000  0  3G 2G 6G19
  20057736.7354  -19155178.43548 -14799188.39364
  20839778.009   -18985233.921 7 -14635632.73423
  21877813.0794    5002766.47646   3916580.61361
 91  4 25 22 20 29.9970000  0  3G 2G 6G19
  20056155.6264  -19163487.41148 -14805662.90864
  20833951.564   -19015851.941 7 -14659490.87823
  21882708.1264    5028499.00046   3936631.89061
 91  4 25 22 20 44.9970000  0  3G 2G 6G19
  20054587.1654  -19171731.99348 -14812087.24964
  20828130.806   -19046436.938 7 -14683323.28623
  21887619.0954    5054293.49246   3956731.45361
 91  4 25 22 20 59.9970000  0  3G 2G 6G19
  20053030.9464  -19179912.17548 -14818461.41064
  20822317.517   -19076988.678 7 -14707129.78523
  21892538.5954    5080150.07546   3976879.40961
 91  4 25 22 21 14.9970000  0  3G 2G 6G19
  20051485.7904  -19188030.10348 -14824787.06064
  20816509.806   -19107508.768 7 -14730911.61623
  21897471.0874    5106067.06746   3997074.43161
 91  4 25 22 21 29.9970000  0  3G 2G 6G19
  20049952.1344  -19196084.11948 -14831062.90864
  20810707.939   -19137995.591 7 -14754667.52923
  21902410.9544    5132045.89346   4017317.64161
 91  4 25 22 21 44.9970000  0  3G 2G 6G19
  20048432.6344  -19204071.47048 -14837286.81364
  20804912.985   -19168446.227 7 -14778395.24823
  21907368.282     5158089.342 6   4037611.19621
 91  4 25 22 21 59.9970000  0  3G 2G 6G19
  20046925.0014  -19211993.92448 -14843460.14564
  20799125.540   -19198861.905 7 -14802095.72023
  21912336.7044    5184195.93646   4057953.96161
 91  4 25 22 22 14.9970000  0  3G 2G 6G19
  20045431.6264  -19219846.57348 -14849579.08464
  20793345.478   -19229237.392 7 -14825764.88123
  21917317.6734    5210370.57946   4078349.74761
 91  4 25 22 22 29.9970000  0  3G 2G 6G19
  20043948.6814  -19227639.48848 -14855651.47664
  20787570.087   -19259582.708 7 -14849410.53423
  21922309.1894    5236603.26246   4098790.76761
 91  4 25 22 22 44.9970000  0  3G 2G 6G19
  20042476.7284  -19235368.60648 -14861674.16164
  20781802.970   -19289893.450 7 -14873029.24023
  21927314.2984    5262898.01846   4119280.14761
 91  4 25 22 22 59.9970000  0  3G 2G 6G19
  20041018.9464  -19243034.20748 -14867647.34764
  20776040.743   -19320169.702 7 -14896621.07823
  21932328.7434    5289254.80146   4139817.87161
 91  4 25 22 23 14.9970000  0  3G 2G 6G19
  20039572.1034  -19250637.87648 -14873572.27664
  20770285.345   -19350412.813 7 -14920187.09123
  21937357.3684    5315672.06746   4160402.71861
 91  4 25 22 23 29.9970000  0  3G 2G 6G19
  20038137.2594  -19258176.25348 -14879446.32964
  20764537.743   -19380619.043 7 -14943724.36323
  21942393.4624    5342153.20446   4181037.33261
 91  4 25 22 23 44.9970000  0  4G13G 2G 6G19
  23353932.7124         -0.18255
  20036714.4464  -19265654.16348 -14885273.26364
  20758796.509   -19410792.983 7 -14967236.47323
  21947446.9154    5368693.42346   4201717.98361
 91  4 25 22 23 59.9970000  0  4G13G 2G 6G19
  23341203.1034     -66882.69644
  20035302.7824  -19273070.52348 -14891052.23164
  20753059.970   -19440933.307 7 -14990722.39123
  21952508.4074    5395293.95946   4222445.63261
 91  4 25 22 24 14.9970000  0  4G13G 2G 6G19
  23328485.7824    -133741.73845
  20033903.4854  -19280424.51348 -14896782.60764
  20747331.126   -19471038.789 7 -15014181.16123
  21957580.860     5421955.791 6   4243221.04221
 91  4 25 22 24 29.9970000  0  4G13G 2G 6G19
  23315761.6494    -200575.51844
  20032515.337   -19287714.888 8 -14902463.40624
  20741609.931   -19501108.150 7 -15037611.78423
  21962666.2284    5448680.18246   4264045.21061
 91  4 25 22 24 44.9970000  0  4G13G 2G 6G19
  23303052.4544    -267381.87445
  20031141.048   -19294939.997 8 -14908093.35024
  20735895.110   -19531139.478 7 -15061012.77523
  21967765.3454    5475468.60446   4284919.27361
 91  4 25 22 24 59.9970000  0  4G13G 2G 6G19
  23290341.220     -334165.938 3
  20029777.2354  -19302105.26148 -14913676.66463
  20730185.626   -19561137.813 7 -15084388.05223
  21972872.2674    5502315.90546   4305839.21161
 91  4 25 22 25 14.9970000  0  4G13G 2G 6G19
  23277640.360     -400924.727 5
  20028426.0174  -19309208.53448 -14919211.67264
  20724484.345   -19591100.848 7 -15107735.82323
  21977993.1814    5529224.22546   4326806.69461
 91  4 25 22 25 29.9970000  0  4G13G 2G 6G19
  23264943.767     -467653.162 5
  20027087.368   -19316245.114 8 -14924694.70724
  20718789.892   -19621023.412 7 -15131052.06223
  21983124.9624    5556198.40246   4347825.50261
 91  4 25 22 25 44.9970000  0  4G13G 2G 6G19
  23252243.509     -534351.148 3        -0.36831
  20025759.829   -19323215.320 8 -14930126.02524
  20713102.454   -19650905.726 7 -15154336.93523
  21988272.7514    5583238.29446   4368895.51061
 91  4 25 22 25 59.9970000  0  4G13G 2G 6G19
  23239559.0954    -601026.92545    -51955.21961
  20024445.3144  -19330127.68848 -14935512.27664
  20707423.720   -19680756.082 7 -15177596.90823
  21993431.0954    5610335.21046   4390009.95061
 91  4 25 22 26 14.9970000  0  4G13G 2G 6G19
  23226878.2594    -667675.36545   -103888.91261
  20023142.024   -19336977.880 8 -14940850.07824
  20701749.767   -19710569.767 7 -15200828.30423
  21998597.6424    5637493.76546   4411172.42561
 91  4 25 22 26 29.9970000  0  4G13G 2G 6G19
  23214200.5484    -734296.83644   -155801.52461
  20021850.0014  -19343766.53048 -14946139.92363
  20696083.548   -19740347.097 7 -15224031.37823
  22003777.7824    5664713.44146   4432382.52361
 91  4 25 22 26 44.9970000  0  4G13G 2G 6G19
  23201525.048     -800891.530 4   -207693.33421
  20020569.0954  -19350494.18148 -14951382.24264
  20690424.439   -19770088.446 7 -15247206.40523
  22008970.243     5691993.615 6   4453639.76621
 91  4 25 22 26 59.9970000  0  4G13G 2G 6G19
  23188856.5954    -867458.23944   -259563.25061
  20019301.4234  -19357160.23548 -14956576.56264
  20684771.189   -19799792.935 7 -15270352.71323
  22014171.2594    5719334.97346   4474944.68861
 91  4 25 22 27 14.9970000  0  4G13G 2G 6G19
  23176196.985     -933998.593 5   -311412.68421
  20018043.618   -19363766.591 8 -14961724.35524
  20679125.196   -19829462.142 7 -15293471.53423
  22019385.5094    5746735.57546   4496295.76961
 91  4 25 22 27 29.9970000  0  4G13G 2G 6G19
  23163541.3924   -1000514.54845   -363243.09061
  20016796.173   -19370315.893 8 -14966827.69624
  20673485.189   -19859098.690 7 -15316564.90723
  22024610.4784    5774192.69846   4517690.89161
 91  4 25 22 27 44.9970000  0  4G13G 2G 6G19
  23150887.7124   -1067001.79545   -415051.19561
  20015562.5714  -19376804.63648 -14971883.84764
  20667853.892   -19888698.591 7 -15339629.71923
  22029847.735     5801710.226 6   4539133.07921
 91  4 25 22 27 59.9970000  0  4G13G 2G 6G19
  23138237.8064   -1133461.14545   -466837.46061
  20014339.493   -19383233.801 8 -14976893.57323
  20662228.446   -19918262.517 7 -15362666.50023
  22035096.5714    5829287.19446   4560621.58461
 91  4 25 22 28 14.9970000  0  4G13G 2G 6G19
  23125598.673    -1199890.305 5   -518600.26221
  20013127.259   -19389601.530 8 -14981855.42624
  20656609.064   -19947788.484 7 -15385673.70323
  22040353.2824    5856925.41346   4582157.82361
 91  4 25 22 28 29.9970000  0  4G13G 2G 6G19
  23112959.571    -1266292.113 5   -570341.75621
  20011926.939   -19395911.187 8 -14986772.02924
  20650998.2594  -19977279.46147 -15408653.64463
  22045621.9624    5884621.65446   4603739.28061
 91  4 25 22 28 44.9970000  0  4G13G 2G 6G19
  23100329.509    -1332662.071 5   -622058.43121
  20010738.0644  -19402158.78248 -14991640.27563
  20645391.689   -20006731.195 7 -15431603.00223
  22050908.642     5912380.108 6   4625369.20121
 91  4 25 22 28 59.9970000  0  4G13G 2G 6G19
  23087708.048    -1398997.217 5   -673748.01921
  20009561.540   -19408342.043 8 -14996458.38723
  20639795.462   -20036141.177 7 -15454519.82823
  22056203.7124    5940203.01546   4647049.35361
 91  4 25 22 29 14.9970000  0  4G13G 2G 6G19
  23075092.751    -1465301.190 5   -725413.27221
  20008396.110   -19414464.988 8 -15001229.49823
  20634206.485   -20065512.823 7 -15477406.78223
  22061507.9154    5968086.36646   4668776.61061
 91  4 25 22 29 29.9970000  0  4G13G 2G 6G19
  23062480.868    -1531572.471 5   -777053.07621
  20007242.657   -19420526.402 8 -15005952.66523
  20628624.267   -20094845.060 7 -15500263.02523
  22066823.8534    5996031.24346   4690551.79261
 91  4 25 22 29 44.9970000  0  4G13G 2G 6G19
  23049877.9074   -1597815.12645   -828670.56861
  20006100.493   -19426530.667 8 -15010631.30024
  20623048.587   -20124141.990 7 -15523091.75823
  22072156.290     6024033.523 6   4712371.70921
 91  4 25 22 29 59.9970000  0  4G13G 2G 6G19
  23037277.532    -1664025.114 5   -880262.57921
  20004968.657   -19432474.569 8 -15015262.89923
  20617483.454   -20153400.047 7 -15545890.19723
  22077494.4854    6052096.40646   4734238.85261
 91  4 25 22 30 14.9970000  0  4G13G 2G 6G19
  23024683.3294   -1730203.67345   -931830.14561
  20003848.634   -19438359.882 8 -15019848.84423
  20611920.728   -20182620.772 7 -15568659.54423
  22082847.774     6080218.336 6   4756151.99921
 91  4 25 22 30 29.9970000  0  4G13G 2G 6G19
  23012095.7824   -1796346.00745   -983369.48561
  20002741.2514  -19444182.13548 -15024385.65563
  20606369.493   -20211799.368 7 -15591396.06323
  22088206.821     6108403.861 6   4778114.70821
 91  4 25 22 30 44.9970000  0  4G13G 2G 6G19
  22999513.642    -1862458.338 4  -1034885.42421
  20001643.8844  -19449948.01348 -15028878.53764
  20600822.462   -20240942.134 7 -15614104.66723
  22093583.501     6136646.366 6   4800121.80721
 91  4 25 22 30 59.9970000  0  4G13G 2G 6G19
  22986938.892    -1928534.125 5  -1086372.89121
  20000558.2204  -19455651.43548 -15033322.75264
  20595285.165   -20270042.611 7 -15636780.31823
  22098968.337     6164952.006 6   4822178.10521
 91  4 25 22 31 14.9970000  0  4G13G 2G 6G19
  22974375.9314   -1994575.01845  -1137833.16961
  19999485.3604  -19461294.75148 -15037720.12964
  20589753.626   -20299103.115 7 -15659424.81523
  22104368.446     6193318.269 6   4844281.64121
 91  4 25 22 31 29.9970000  0  4G13G 2G 6G19
  22961812.9934   -2060582.35144  -1189267.29661
  19998422.7204  -19466879.72748 -15042072.04764
  20584232.235   -20328125.004 7 -15682039.22623
  22109778.4704    6221743.50045   4866431.13361
 91  4 25 22 31 44.9970000  0  4G13G 2G 6G19
  22949263.407    -2126554.039 5  -1240673.66021
  19997370.626   -19472404.363 8 -15046376.94924
  20578717.962   -20357106.235 7 -15704621.95523
  22115199.314     6250229.708 6   4888628.13321
 91  4 25 22 31 59.9970000  0  4G13G 2G 6G19
  22936712.110    -2192488.984 4  -1292051.41021
  19996330.6574  -19477868.22248 -15050634.49064
  20573209.689   -20386046.032 7 -15727172.39623
  22120630.9074    6278777.33146   4910873.00561
 91  4 25 22 32 14.9970000  0  4G13G 2G 6G19
  22924168.399    -2258389.517 4  -1343402.32121
  19995301.7204  -19483274.28048 -15054846.99264
  20567710.407   -20414946.944 7 -15749692.54323
  22126073.571     6307383.777 5   4933163.69021
 91  4 25 22 32 29.9970000  0  4G13G 2G 6G19
  22911637.3144   -2324255.75345  -1394726.51261
  19994284.6494  -19488623.03048 -15059014.84064
  20562218.814   -20443809.121 7 -15772182.49923
  22131530.626     6336048.485 5   4955499.78721
 91  4 25 22 32 44.9970000  0  4G13G 2G 6G19
  22899107.0094   -2390084.88244  -1446021.79661
  19993277.0644  -19493912.18448 -15063136.24864
  20556733.993   -20472630.116 7 -15794640.37323
  22136996.649     6364773.635 5   4977882.97921
 91  4 25 22 32 59.9970000  0  4G13G 2G 6G19
  22886587.454    -2455877.804 4  -1497288.87221
  19992281.946   -19499142.983 8 -15067212.18324
  20551257.603   -20501411.033 7 -15817067.01423
  22142473.321     6393558.003 6   5000312.31221
 91  4 25 22 33 14.9970000  0  4G13G 2G 6G19
  22874078.665    -2521631.062 5  -1548525.03621
  19991297.845   -19504312.590 8 -15071240.43924
  20545787.892   -20530148.625 7 -15839459.89823
  22147962.118     6422404.563 5   5022790.11321
 91  4 25 22 33 29.9970000  0  4G13G 2G 6G19
  22861570.8144   -2587344.68545  -1599730.32561
  19990326.0714  -19509421.37648 -15075221.29864
  20540327.204   -20558843.109 7 -15861819.19223
  22153464.0094    6451312.93745   5045316.07261
 91  4 25 22 33 44.9970000  0  4G13G 2G 6G19
  22849070.970    -2653022.468 4  -1650907.69021
  19989365.071   -19514473.553 8 -15079158.04724
  20534875.454   -20587498.204 7 -15884147.78423
  22158975.173     6480278.964 5   5067886.96321
 91  4 25 22 33 59.9970000  0  4G13G 2G 6G19
  22836582.884    -2718661.687 5  -1702054.99921
  19988414.985   -19519466.983 8 -15083049.01924
  20529430.642   -20616111.492 7 -15906443.80523
  22164497.0714    6509304.89745   5090504.52461
 91  4 25 22 34 14.9970000  0  4G13G 2G 6G19
  22824102.8144   -2784259.60945  -1753170.09861
  19987475.9934  -19524399.60148 -15086892.60864
  20523994.704   -20644680.689 7 -15928705.46723
  22170035.040     6538393.058 5   5113170.58321
 91  4 25 22 34 29.9970000  0  4G13G 2G 6G19
  22811625.642    -2849818.146 5  -1804254.55121
  19986549.087   -19529273.933 8 -15090690.77624
  20518563.939   -20673208.050 7 -15950934.52823
  22175578.978     6567540.848 5   5135883.10121
 91  4 25 22 34 44.9970000  0  4G13G 2G 6G19
  22799154.0874   -2915338.15945  -1855308.96061
  19985632.689   -19534091.045 8 -15094444.35524
  20513143.728   -20701694.326 7 -15973131.58123
  22181138.8064    6596747.22445   5158641.27561
 91  4 25 22 34 59.9970000  0  4G13G 2G 6G19
  22786696.4854   -2980819.55945  -1906333.29261
  19984725.3604  -19538851.31048 -15098153.64364
  20507731.189   -20730139.615 7 -15995296.69323
  22186705.376     6626011.902 5   5181444.86921
 91  4 25 22 35 14.9970000  0  4G13G 2G 6G19
  22774243.4314   -3046262.80445  -1957327.88161
  19983830.259   -19543555.531 8 -15101819.26124
  20502324.454   -20758544.443 7 -16017430.28323
  22192286.8684    6655334.02045   5204293.23561
 91  4 25 22 35 29.9970000  0  4G13G 2G 6G19
  22761794.282    -3111670.821 5  -2008295.08021
  19982945.610   -19548207.348 8 -15105444.03924
  20496928.095   -20786912.204 7 -16039534.98223
  22197877.3844    6684709.94445   5227183.52661
 91  4 25 22 35 44.9970000  0  4G13G 2G 6G19
  22749354.5174   -3177037.57145  -2059230.02661
  19982071.9234  -19552800.98748 -15109023.48864
  20491537.837   -20815236.732 7 -16061605.99823
  22203480.907     6714145.670 5   5250120.40921
 91  4 25 22 35 59.9970000  0  4G13G 2G 6G19
  22736925.8454   -3242364.10345  -2110133.70361
  19981207.5954  -19557338.07348 -15112558.86764
  20486155.048   -20843519.441 7 -16083644.42823
  22209088.517     6743639.530 5   5273102.59521
 91  4 25 22 36 14.9970000  0  4G13G 2G 6G19
  22724504.0874   -3307649.55245  -2161005.30161
  19980355.4394  -19561818.18548 -15116049.85464
  20480782.024   -20871759.856 7 -16105649.90023
  22214715.1104    6773191.81845   5296130.31161
 91  4 25 22 36 29.9970000  0  4G13G 2G 6G19
  22712085.001    -3372892.983 5  -2211844.20021
  19979514.1104  -19566241.05548 -15119496.23764
  20475414.946   -20899957.006 7 -16127621.65523
  22220351.040     6802803.108 5   5319204.00421
 91  4 25 22 36 44.9970000  0  4G13G 2G 6G19
  22699680.1184   -3438096.10045  -2262651.63961
  19978682.782   -19570608.919 8 -15122899.75424
  20470058.306   -20928112.796 7 -16149561.18623
  22225997.4154    6832471.26345   5342322.01361
 91  4 25 22 36 59.9970000  0  4G13G 2G 6G19
  22687282.1734   -3503259.97045  -2313428.54261
  19977861.4314  -19574923.10948 -15126261.45364
  20464706.915   -20956228.425 7 -16171469.41723
  22231652.3764    6862194.96346   5365483.30761
 91  4 25 22 37 14.9970000  0  4G13G 2G 6G19
  22674889.095    -3568380.023 5  -2364171.26621
  19977050.8454  -19579179.46248 -15129578.08264
  20459365.446   -20984299.700 7 -16193343.09623
  22237319.9464    6891978.13946   5388690.94161
 91  4 25 22 37 29.9970000  0  4G13G 2G 6G19
  22662505.134    -3633458.041 5  -2414881.27121
  19976252.6494  -19583380.35248 -15132851.49564
  20454032.267   -21012328.578 7 -16215183.73723
  22242996.4784    6921818.50746   5411943.13261
 91  4 25 22 37 44.9970000  0  4G13G 2G 6G19
  22650129.056    -3698492.585 5  -2465557.38821
  19975463.2594  -19587525.02448 -15136081.09964
  20448705.087   -21040313.965 7 -16236990.49223
  22248686.915     6951717.089 5   5435240.68821
 91  4 25 22 37 59.9970000  0  4G13G 2G 6G19
  22637758.204    -3763485.392 5  -2516200.94421
  19974685.7124  -19591615.43448 -15139268.42364
  20443388.954   -21068257.371 7 -16258764.53223
  22254385.431     6981672.058 6   5458582.18421
 91  4 25 22 38 14.9970000  0  4G13G 2G 6G19
  22625397.0714   -3828429.64945  -2566806.70861
  19973919.2044  -19595644.91248 -15142408.27164
  20438080.704   -21096152.215 7 -16280500.73323
  22260101.1344    7011689.70645   5481972.51461
 91  4 25 22 38 29.9970000  0  4G13G 2G 6G19
  22613050.751    -3893318.267 5  -2617369.11521
  19973164.548   -19599607.242 8 -15145495.78724
  20432782.4854  -21123991.64547 -16302193.75763
  22265828.3924    7041776.51645   5505416.74261
 91  4 25 22 38 44.9970000  0  4G13G 2G 6G19
  22600713.2284   -3958155.58545  -2667891.56061
  19972421.8844  -19603507.48448 -15148534.92864
  20427495.3534  -21151780.46247 -16323847.33763
  22271565.5014    7071927.65745   5528911.10561
 91  4 25 22 38 59.9970000  0  5G13G 2G15G 6G19
  22588383.907    -4022942.243 5  -2718374.52421
  19971692.0244  -19607346.48348 -15151526.35164
  23427497.8924         -0.98555
  20422216.2204  -21179519.52047 -16345462.14863
  22277310.892     7102141.949 5   5552454.66121
 91  4 25 22 39 14.9970000  0  5G13G 2G15G 6G19
  22576065.056    -4087677.101 5  -2768817.09221
  19970972.8844  -19611123.38548 -15154469.38364
  23422479.0714     -26357.98544
  20416948.0244  -21207207.43447 -16367037.11063
  22283074.9704    7132420.23945   5576048.09361
 91  4 25 22 39 29.9970000  0  5G13G 2G15G 6G19
  22563758.235    -4152358.569 5  -2819218.07921
  19970266.6734  -19614836.90848 -15157363.03264
  23417483.5484     -52606.59345
  20411688.2514  -21234842.95647 -16388571.24663
  22288847.3604    7162764.06745   5599692.59861
 91  4 25 22 39 44.9970000  0  5G13G 2G15G 6G19
  22551459.5404   -4216983.29245  -2869574.85061
  19969572.0794  -19618484.63548 -15160205.40964
  23412512.899      -78743.824 5
  20406439.9394  -21262423.11247 -16410062.23663
  22294637.837     7193175.985 5   5623390.14721
 91  4 25 22 39 59.9970000  0  5G13G 2G15G 6G19
  22539172.189    -4281553.766 5  -2919889.35421
  19968889.7674  -19622069.36148 -15162998.69964
  23407556.3294    -104772.27745
  20401201.9154  -21289950.24047 -16431511.90763
  22300434.0794    7223653.10345   5647138.51261
 91  4 25 22 40 14.9970000  0  5G13G 2G15G 6G19
  22526896.4624   -4346065.93145  -2970158.42161
  19968219.7284  -19625587.69248 -15165740.24664
  23402626.220     -130688.068 5        -0.10631
  20395974.9854  -21317420.81447 -16452917.51163
  22306248.501     7254198.838 5   5670940.33921
 91  4 25 22 40 29.9970000  0  5G13G 2G15G 6G19
  22514628.962    -4410526.144 5  -3020386.99121
  19967563.0404  -19629046.25548 -15168435.22564
  23397713.149     -156497.548 5    -20111.38921
  20390755.5094  -21344841.15347 -16474283.97364
  22312072.751     7284806.602 5   5694790.49921
 91  4 25 22 40 44.9970000  0  5G13G 2G15G 6G19
  22502370.134    -4474932.816 5  -3070573.85821
  19966916.0094  -19632444.08048 -15171082.87664
  23392823.384     -182199.185 5    -40138.60621
  20385549.3454  -21372209.90447 -16495610.23464
  22317908.814     7315477.293 5   5718689.68821
 91  4 25 22 40 59.9970000  0  5G13G 2G15G 6G19
  22490124.962    -4539283.022 5  -3120716.73021
  19966281.0874  -19635778.71248 -15173681.28464
  23387956.9154    -207790.14945    -60079.57661
  20380349.6034  -21399524.32647 -16516894.16363
  22323754.0014    7346213.59245   5742640.01861
 91  4 25 22 41 14.9970000  0  5G13G 2G15G 6G19
  22477895.5174   -4603579.22345  -3170817.51461
  19965659.5324  -19639053.03548 -15176232.70164
  23383109.8684    -233273.02745    -79936.30761
  20375161.7284  -21426787.06647 -16538137.82263
  22329618.610     7377012.827 5   5766639.36821
 91  4 25 22 41 29.9970000  0  5G13G 2G15G 6G19
  22465669.7904   -4667821.04245  -3220875.93761
  19965047.0244  -19642267.04448 -15178737.11564
  23378279.7984    -258647.65745    -99708.75061
  20369984.9854  -21453997.92247 -16559341.05563
  22335488.3994    7407874.72945   5790687.56261
 91  4 25 22 41 44.9970000  0  5G13G 2G15G 6G19
  22453451.9624   -4732006.87045  -3270890.70661
  19964447.8844  -19645419.65048 -15181193.68564
  23373470.9394    -283912.71645   -119395.76361
  20364816.9394  -21481155.37847 -16580502.67063
  22341374.923     7438800.541 5   5814785.54521
 91  4 25 22 41 59.9970000  0  5G13G 2G15G 6G19
  22441251.0874   -4796135.58945  -3320860.99361
  19963858.1424  -19648509.91448 -15183601.67864
  23368681.103     -309066.801 5   -138996.31921
  20359659.3924  -21508258.51947 -16601621.96763
  22347272.2204    7469790.98945   5838933.90861
 91  4 25 22 42 14.9970000  0  5G13G 2G15G 6G19
  22429057.9704   -4860206.69645  -3370786.38761
  19963282.6494  -19651537.90448 -15185961.14064
  23363917.9234    -334109.76645   -158510.27961
  20354511.5484  -21535307.09347 -16622698.74664
  22353186.7044    7500845.97545   5863132.54761
 91  4 25 22 42 29.9970000  0  5G13G 2G15G 6G19
  22416874.626    -4924223.769 5  -3420669.68121
  19962717.3214  -19654507.74148 -15188275.29764
  23359172.618     -359045.112 5   -177940.40221
  20349373.8604  -21562304.70347 -16643735.80464
  22359105.8214    7531961.53745   5887378.41161
 91  4 25 22 42 44.9970000  0  5G13G 2G15G 6G19
  22404706.587    -4988183.501 5  -3470508.27721
  19962163.7204  -19657416.83748 -15190542.12264
  23354447.946     -383869.598 5   -197284.09921
  20344247.3844  -21589248.38047 -16664730.84164
  22365035.665     7563140.529 5   5911673.68821
 91  4 25 22 42 59.9970000  0  5G13G 2G15G 6G19
  22392541.4784   -5052085.26545  -3520301.72061
  19961621.5324  -19660264.97848 -15192761.45664
  23349747.3764    -408582.75145   -216541.07461
  20339130.3454  -21616137.59947 -16685683.44264
  22370981.798     7594383.017 5   5936018.43821
 91  4 25 22 43 14.9970000  0  5G13G 2G15G 6G19
  22380394.212    -5115930.066 5  -3570050.77721
  19961092.3294  -19663053.63748 -15194934.43364
  23345063.181     -433185.609 5   -235712.11321
  20334023.9314  -21642973.68147 -16706594.63464
  22376941.0954    7625687.58145   5960411.56461
 91  4 25 22 43 29.9970000  0  5G13G 2G15G 6G19
  22368260.564    -5179719.591 6  -3619756.76921
  19960571.1964  -19665784.88248 -15197062.67564
  23340406.321     -457680.149 5   -254798.73821
  20328927.6654  -21669758.41047 -16727465.81564
  22382906.9314    7657052.23045   5984851.51661
 91  4 25 22 43 44.9970000  0  5G13G 2G15G 6G19
  22356127.860    -5243450.127 5  -3669416.78521
  19960063.7744  -19668455.63148 -15199143.77664
  23335761.540     -482063.034 5   -273798.36521
  20323839.8994  -21696488.41747 -16748294.35264
  22388890.0014    7688480.05145   6009340.69061
 91  4 25 22 43 59.9970000  0  5G13G 2G15G 6G19
  22344013.376    -5307119.649 5  -3719029.26721
  19959565.5714  -19671064.13048 -15201176.37064
  23331144.8994    -506331.89645   -292709.11461
  20318763.1264  -21723161.63747 -16769078.63864
  22394885.337     7719972.849 5   6033880.48721
 91  4 25 22 44 14.9970000  0  5G13G 2G15G 6G19
  22331910.2984   -5370727.94146  -3768594.01261
  19959081.7354  -19673610.77448 -15203160.76864
  23326546.7044    -530486.88145   -311531.16561
  20313698.3684  -21749778.04747 -16789818.66164
  22400889.2594    7751530.31745   6058470.68861
 91  4 25 22 44 29.9970000  0  5G13G 2G15G 6G19
  22319811.2904   -5434271.50145  -3818108.32361
  19958609.4154  -19676092.53048 -15205094.59864
  23321971.2204    -554524.43245   -330261.70161
  20308645.0014  -21776334.28947 -16810511.79864
  22406904.439     7783155.514 5   6083113.65621
 91  4 25 22 44 44.9970000  0  5G13G 2G15G 6G19
  22307737.0014   -5497753.51846  -3867574.71261
  19958149.2744  -19678512.94348 -15206980.63164
  23317423.079     -578447.889 5   -348903.30621
  20303602.5014  -21802833.84147 -16831160.76164
  22412937.642     7814844.878 5   6107806.62721
 91  4 25 22 44 59.9970000  0  5G13G 2G15G 6G19
  22295665.814    -5561174.697 5  -3916993.66421
  19957700.1894  -19680873.15848 -15208819.75764
  23312889.2984    -602258.02445   -367456.62961
  20298569.7354  -21829277.44847 -16851766.13263
  22418977.8994    7846597.24445   6132548.70261
 91  4 25 22 45 14.9970000  0  5G13G 2G15G 6G19
  22283610.6424   -5624534.90246  -3966365.11061
  19957261.1264  -19683173.66748 -15210612.35664
  23308377.9704    -625954.94545   -385921.72361
  20293549.5174  -21855665.20147 -16872327.98264
  22425032.1264    7878412.09945   6157339.45061
 91  4 25 22 45 29.9970000  0  5G13G 2G15G 6G19
  22271565.5874   -5687832.84046  -4015688.03561
  19956835.9394  -19685413.71948 -15212357.84464
  23303894.478     -649537.461 4   -404297.68021
  20288538.8294  -21881996.16547 -16892845.57664
  22431098.423     7910290.358 5   6182179.61021
 91  4 25 22 45 44.9970000  0  5G13G 2G15G 6G19
  22259527.845    -5751071.381 5  -4064964.67321
  19956420.2284  -19687596.39648 -15214058.62964
  23299427.9314    -673008.35745   -422586.66961
  20283538.0404  -21908273.18347 -16913321.13964
  22437176.7744    7942228.64645   6207066.54461
 91  4 25 22 45 59.9970000  0  5G13G 2G15G 6G19
  22247507.4314   -5814246.46446  -4114191.86761
  19956015.5014  -19689718.05748 -15215711.87164
  23294985.978     -696363.664 5   -440785.56721
  20278548.899   -21934492.267 7 -16933751.55224
  22443267.649     7974230.707 5   6232003.16621
 91  4 25 22 46 14.9970000  0  5G13G 2G15G 6G19
  22235498.5954   -5877356.85346  -4163368.65261
  19955624.0874  -19691778.18148 -15217317.15564
  23290561.4854    -719602.48045   -458893.69561
  20273570.540   -21960652.539 7 -16954136.13624
  22449368.767     8006297.231 5   6256990.02821
 91  4 25 22 46 29.9970000  0  5G13G 2G15G 6G19
  22223497.2204   -5940407.07645  -4212498.57161
  19955243.1964  -19693781.59748 -15218878.25664
  23286156.353     -742729.247 5   -476914.50921
  20268602.3294  -21986758.57747 -16974478.46764
  22455482.384     8038423.244 5   6282023.23921
 91  4 25 22 46 44.9970000  0  5G13G 2G15G 6G19
  22211517.2674   -6003396.86846  -4261581.36961
  19954873.0244  -19695728.20948 -15220395.08664
  23281778.8144    -765743.67345   -494847.82861
  20263644.368   -22012810.183 7 -16994778.37524
  22461607.493     8070608.845 5   6307102.87221
 91  4 25 22 46 59.9970000  0  5G13G 2G15G 6G19
  22199538.4464   -6066323.19545  -4310614.74561
  19954513.2904  -19697615.72148 -15221865.87464
  23277419.9854    -788642.92045   -512691.35861
  20258699.095   -22038804.478 7 -17015033.62824
  22467740.892     8102856.683 5   6332231.00821
 91  4 25 22 47 14.9970000  0  5G13G 2G15G 6G19
  22187581.595    -6129185.972 6  -4359598.56821
  19954165.5324  -19699444.88248 -15223291.18264
  23273083.110     -811427.570 5   -530445.61321
  20253761.6654  -22064741.92147 -17035244.58764
  22473890.110     8135165.939 5   6357407.01121
 91  4 25 22 47 29.9970000  0  5G13G 2G15G 6G19
  22175627.696    -6191985.669 5  -4408533.26621
  19953828.2514  -19701216.17848 -15224671.40964
  23268771.2594    -834097.86645   -548110.75661
  20248837.1494  -22090622.95747 -17055411.58663
  22480048.6494    8167535.94045   6382630.35361
 91  4 25 22 47 44.9970000  0  5G13G 2G15G 6G19
  22163686.071    -6254721.831 5  -4457418.44921
  19953502.1964  -19702929.98148 -15226006.83664
  23264481.2354    -856653.40345   -565686.46061
  20243923.3064  -22116447.15547 -17075534.30564
  22486221.868     8199966.545 5   6407900.91021
 91  4 25 22 47 59.9970000  0  5G13G 2G15G 6G19
  22151764.8454   -6317386.34146  -4506247.79761
  19953189.3454  -19704578.43048 -15227291.34164
  23260214.0324    -879086.34345   -583166.64161
  20239022.0014  -22142206.82947 -17095606.73464
  22492406.0324    8232465.40245   6433224.65261
 91  4 25 22 48 14.9970000  0  5G13G 2G15G 6G19
  22139853.7044   -6379977.50146  -4555020.00661
  19952887.6424  -19706160.38648 -15228524.02864
  23255964.978     -901394.954 5   -600549.94021
  20234133.2204  -22167900.28747 -17115627.57064
  22498605.1034    8265033.91345   6458602.67361
 91  4 25 22 48 29.9970000  0  5G13G 2G15G 6G19
  22127956.4074   -6442495.96245  -4603735.53661
  19952599.4074  -19707676.67448 -15229705.54264
  23251742.501     -923580.123 5   -617837.05621
  20229255.939   -22193528.207 7 -17135597.33124
  22504815.431     8297671.106 5   6484034.20521
 91  4 25 22 48 44.9970000  0  5G13G 2G15G 6G19
  22116070.056    -6504954.504 6  -4652404.39521
  19952321.2124  -19709140.40548 -15230846.10564
  23247545.798     -945654.468 5   -635037.81321
  20224388.1494  -22219103.54247 -17155526.12564
  22511039.040     8330363.639 5   6509508.85521
 91  4 25 22 48 59.9970000  0  5G13G 2G15G 6G19
  22104196.970    -6567350.892 6  -4701024.85021
  19952052.0094  -19710550.11548 -15231944.57364
  23243365.5174    -967616.08345   -652150.72861
  20219533.3294  -22244624.32847 -17175412.41164
  22517269.407     8363113.255 5   6535028.00021
 91  4 25 22 49 14.9970000  0  5G13G 2G15G 6G19
  22092336.1344   -6629683.87946  -4749595.85061
  19951793.9394  -19711905.13448 -15233000.42264
  23239208.056     -989464.154 5   -669175.17021
  20214686.9394  -22270089.57747 -17195255.42064
  22523511.399     8395920.707 5   6560592.19621
 91  4 25 22 49 29.9970000  0  5G13G 2G15G 6G19
  22080482.5484   -6691958.92646  -4798121.74761
  19951546.8144  -19713211.38048 -15234018.26664
  23235069.7594   -1011204.14045   -686115.40061
  20209850.0794  -22295504.91747 -17215059.54864
  22529764.7124    8428779.99145   6586196.77961
 91  4 25 22 49 44.9970000  0  5G13G 2G15G 6G19
  22068648.704    -6754174.871 6  -4846601.55921
  19951305.4464  -19714468.17848 -15234997.57864
  23230953.6184   -1032834.78845   -702970.43261
  20205023.2514  -22320869.34947 -17234823.99864
  22536026.993     8461691.780 5   6611842.28121
 91  4 25 22 49 59.9970000  0  5G13G 2G15G 6G19
  22056817.806    -6816332.589 6  -4895036.01921
  19951077.0644  -19715676.56448 -15235939.16864
  23226860.3294   -1054357.16145   -719741.09061
  20200206.4314  -22346183.61647 -17254549.36464
  22542300.032     8494655.112 5   6637527.94821
 91  4 25 22 50 14.9970000  0  5G13G 2G15G 6G19
  22044996.790    -6878433.824 6  -4943426.45721
  19950856.2514  -19716838.68348 -15236844.70264
  23222781.2204   -1075773.07145   -736428.79461
  20195398.5874  -22371449.57647 -17274237.08564
  22548584.853     8527667.835 5   6663252.09421
 91  4 25 22 50 29.9970000  0  5G13G 2G15G 6G19
  22033189.4074   -6940475.70446  -4991770.64461
  19950642.8844  -19717952.51548 -15237712.61464
  23218730.642    -1097079.802 5   -753031.41821
  20190600.5794  -22396665.03347 -17293885.45764
  22554872.4464    8560731.87245   6689016.22961
 91  4 25 22 50 44.9970000  0  5G13G 2G15G 6G19
  22021399.493    -7002457.648 6  -5040068.13021
  19950441.470   -19719017.745 8 -15238542.65224
  23214696.4624   -1118277.04045   -769548.70361
  20185811.9934  -22421829.12147 -17313493.80264
  22561174.3064    8593847.58445   6714820.62261
 91  4 25 22 50 59.9970000  0  5G13G 2G15G 6G19
  22009617.7744   -7064383.95146  -5088322.24761
  19950245.7284  -19720039.15848 -15239338.54964
  23210684.0404   -1139369.12945   -785984.08761
  20181032.0324  -22446946.66747 -17333065.88164
  22567490.1264    8627010.03345   6740661.43361
 91  4 25 22 51 14.9970000  0  5G13G 2G15G 6G19
  21997839.6894   -7126255.12046  -5136533.42761
  19950059.4544  -19721017.76448 -15240101.08564
  23206685.4154   -1160356.88445   -802338.15561
  20176260.2744  -22472018.14747 -17352602.05964
  22573806.470     8660218.610 5   6766538.19721
 91  4 25 22 51 29.9970000  0  5G13G 2G15G 6G19
  21986070.939    -7188073.492 6  -5184703.44521
  19949880.6344  -19721956.24148 -15240832.35764
  23202709.3844   -1181242.63945   -818612.73661
  20171497.2434  -22497046.01047 -17372104.25264
  22580132.423     8693470.464 5   6792448.68921
 91  4 25 22 51 44.9970000  0  5G13G 2G15G 6G19
  21974320.993    -7249835.185 6  -5232829.29721
  19949712.470   -19722850.983 8 -15241529.54624
  23198759.439    -1202022.256 5   -834804.62521
  20166744.0014  -22522026.40447 -17391569.45764
  22586472.501     8726769.073 5   6818395.60421
 91  4 25 22 51 59.9970000  0  5G13G 2G15G 6G19
  21962581.2674   -7311539.27846  -5280910.25861
  19949548.7434  -19723701.67948 -15242192.41464
  23194827.603    -1222695.084 5   -850913.28921
  20161999.2434  -22546958.61947 -17410997.12164
  22592811.3144    8760114.82945   6844379.27261
 91  4 25 22 52 14.9970000  0  5G13G 2G15G 6G19
  21950850.399    -7373185.799 6  -5328946.36921
  19949395.892   -19724508.907 8 -15242821.41324
  23190908.0174   -1243261.39145   -866938.95261
  20157265.0794  -22571842.83447 -17430387.38364
  22599169.431     8793507.290 5   6870399.32321
 91  4 25 22 52 29.9970000  0  5G13G 2G15G 6G19
  21939131.8294   -7434774.15546  -5376937.14261
  19949250.2514  -19725272.45148 -15243416.37064
  23187015.493    -1263720.650 5   -882881.21321
  20152538.6734  -22596678.57547 -17449739.87164
  22605534.704     8826946.622 5   6896455.89521
 91  4 25 22 52 44.9970000  0  5G13G 2G15G 6G19
  21927421.235    -7496304.032 6  -5424882.36221
  19949112.6814  -19725992.44548 -15243977.39564
  23183144.071    -1284072.951 5   -898740.10621
  20147821.4234  -22621465.87447 -17469054.61464
  22611906.681     8860432.523 5   6922548.77021
 91  4 25 22 52 59.9970000  0  5G13G 2G15G 6G19
  21915720.368    -7557770.178 6  -5472777.91621
  19948987.7204  -19726664.27248 -15244500.88664
  23179293.0324   -1304313.06345   -914511.59661
  20143114.7434  -22646199.62047 -17488327.62764
  22618286.8764    8893969.79945   6948681.66061
 91  4 25 22 53 14.9970000  0  5G13G 2G15G 6G19
  21904039.524    -7619172.896 6  -5520624.05621
  19948868.079   -19727288.691 8 -15244987.43624
  23175464.728    -1324441.504 5   -930196.05821
  20138418.1034  -22670880.26147 -17507559.26164
  22624677.009     8927557.780 5   6974854.06921
 91  4 25 22 53 29.9970000  0  5G13G 2G15G 6G19
  21892365.8534   -7680515.23346  -5568423.11661
  19948758.3684  -19727869.01748 -15245439.62864
  23171654.259    -1344461.453 5   -945795.95521
  20133730.7044  -22695510.92847 -17526751.95064
  22631078.2594    8961192.89845   7001063.21861
 91  4 25 22 53 44.9970000  0  5G13G 2G15G 6G19
  21880706.6964   -7741794.29646  -5616172.90561
  19948656.6894  -19728403.00348 -15245855.71064
  23167862.837    -1364370.284 5   -961309.31821
  20129054.1424  -22720089.05547 -17545903.70164
  22637491.9704    8994877.43045   7027310.84661
 91  4 25 22 53 59.9970000  0  5G13G 2G15G 6G19
  21869059.782    -7803010.338 6  -5663873.57021
  19948560.8684  -19728891.16648 -15246236.08864
  23164096.8534   -1384168.32345   -976736.31961
  20124386.1494  -22744614.85547 -17565014.68364
  22643908.853     9028610.886 5   7053596.60121
 91  4 25 22 54 14.9970000  0  5G13G 2G15G 6G19
  21857419.4464   -7864161.79046  -5711523.91561
  19948478.8604  -19729332.06348 -15246579.63464
  23160350.6424   -1403853.83145   -992075.63661
  20119730.8764  -22769086.72447 -17584083.63564
  22650337.501     9062394.455 5   7079921.41721
 91  4 25 22 54 29.9970000  0  5G13G 2G15G 6G19
  21845792.2124   -7925257.02846  -5759130.45561
  19948402.5954  -19729734.83848 -15246893.47664
  23156621.806    -1423435.638 5  -1007334.16621
  20115082.2904  -22793513.30847 -17603117.30764
  22656776.4154    9096219.21845   7106278.33161
 91  4 25 22 54 44.9970000  0  5G13G 2G15G 6G19
  21834180.298    -7986289.105 6  -5806687.78821
  19948332.7044  -19730093.11848 -15247172.65364
  23152918.642    -1442906.799 5  -1022506.46921
  20110443.1814  -22817888.01147 -17622110.54764
  22663222.3844    9130091.47145   7132672.25261
 91  4 25 22 54 59.9970000  0  5G13G 2G15G 6G19
  21822577.9074   -8047258.23146  -5854196.06961
  19948271.7354  -19730407.57948 -15247417.67764
  23149238.7354   -1462267.56045  -1037592.72861
  20105813.9854  -22842211.07047 -17641063.54464
  22669672.9784    9164010.69745   7159102.76661
 91  4 25 22 55 14.9970000  0  5G13G 2G15G 6G19
  21810987.524    -8108166.368 6  -5901656.82521
  19948223.1184  -19730680.51248 -15247630.34764
  23145568.0714   -1481520.10245  -1052594.66961
  20101195.1264  -22866484.46447 -17659977.84764
  22676137.149     9197974.677 5   7185568.15821
 91  4 25 22 55 29.9970000  0  5G13G 2G15G 6G19
  21799407.782    -8169007.001 6  -5949064.97321
  19948181.3924  -19730905.97548 -15247806.02564
  23141928.306    -1500658.159 5  -1067507.42321
  20096587.3994  -22890702.01247 -17678848.63464
  22682609.439     9231989.306 5   7212073.02521
 91  4 25 22 55 44.9970000  0  5G13G 2G15G 6G19
  21787843.1574   -8229779.81646  -5996420.29461
  19948146.2354  -19731084.06948 -15247944.79764
  23138313.243    -1519681.619 5  -1082330.87221
  20091990.3684  -22914863.44447 -17697675.69564
  22689094.673     9266054.431 5   7238617.23021
 91  4 25 22 55 59.9970000  0  5G13G 2G15G 6G19
  21776294.3534   -8290484.13346  -6043722.23161
  19948119.1814  -19731214.43048
  23134714.0954   -1538589.89845  -1097064.57561
  20087402.8534  -22938968.37147 -17716458.72964
  22695586.064     9300170.234 5   7265200.90921
 91  4 25 22 56 14.9970000  0  5G13G 2G15G 6G19
  21764756.9464   -8351118.66946  -6090969.80261
  19948106.6034  -19731296.32248
  23131135.0874   -1557381.92645  -1111707.68961
  20082826.7044  -22963015.59547 -17735196.79764
  22702087.9544    9334337.39945   7291824.65161
 91  4 25 22 56 29.9970000  0  5G13G 2G15G 6G19
  21753231.2124   -8411683.45246  -6138163.01361
  19948098.5404  -19731330.03048
  23127580.439    -1576057.835 5  -1126260.30621
  20078261.3844  -22987005.26447 -17753890.01264
  22708601.243     9368555.622 5   7318488.16021
 91  4 25 22 56 44.9970000  0  5G13G 2G15G 6G19
  21741716.1894   -8472183.78846  -6185306.00961
  19948099.5954  -19731321.52148
  23124047.9544   -1594622.88045  -1140726.56561
  20073706.9784  -23010942.72947 -17772542.55264
  22715118.931     9402819.271 5   7345187.06121
 91  4 25 22 56 59.9970000  0  5G13G 2G15G 6G19
  21730213.954    -8532617.323 6  -6232396.95221
  19948109.8764  -19731268.76348
  23120535.1184   -1613075.00945  -1155104.79961
  20069161.5244  -23034825.75847 -17791152.67464
  22721652.0954    9437130.36645   7371922.93061
 91  4 25 22 57 14.9970000  0  5G13G 2G15G 6G19
  21718728.9704   -8592978.70046  -6279431.67161
  19948130.5244  -19731166.96548
  23117042.5324   -1631409.05145  -1169391.04261
  20064628.610   -23058649.194 7 -17809716.36624
  22728187.439     9471493.581 5   7398699.42321
 91  4 25 22 57 29.9970000  0  5G13G 2G15G 6G19
  21707253.579    -8653271.264 6  -6326412.76421
  19948156.2204  -19731020.07848
  23113582.274    -1649628.830 5  -1183588.25021
  20060105.2434  -23082416.80047 -17828236.55164
  22734736.9314    9505904.90045   7425513.39061
 91  4 25 22 57 44.9970000  0  5G13G 2G15G 6G19
  21695794.3994   -8713489.94546  -6373336.29961
  19948192.814   -19730823.047 8
  23110138.4154   -1667728.82845  -1197692.11261
  20055593.9154  -23106123.23047 -17846709.06564
  22741296.1964    9540369.36945   7452368.77661
 91  4 25 22 57 59.9970000  0  5G13G 2G15G 6G19
  21684352.634    -8773638.571 6  -6420205.24021
  19948240.8534  -19730580.24448 -15247552.17964
  23106712.064    -1685713.206 5  -1211705.89321
  20051093.0404  -23129772.70947 -17865137.20364
  22747862.5174    9574882.44045   7479262.05161
 91  4 25 22 58 14.9970000  0  5G13G 2G15G 6G19
  21672916.095    -8833713.410 6  -6467016.69021
  19948295.7514  -19730288.46848 -15247324.81764
  23103314.165    -1703578.273 5  -1225626.69521
  20046605.1344  -23153361.32547 -17883517.91764
  22754438.8454    9609447.45145   7506195.77461
 91  4 25 22 58 29.9970000  0  5G13G 2G15G 6G19
  21661497.6814   -8893718.08446  -6513773.47261
  19948362.7594  -19729951.60948 -15247062.32964
  23099940.7514   -1721327.79945  -1239457.50061
  20042127.6424  -23176893.00547 -17901854.26164
  22761027.4704    9644060.47545   7533166.93161
 91  4 25 22 58 44.9970000  0  5G13G 2G15G 6G19
  21650096.1894   -8953648.94346  -6560472.72861
  19948434.8214  -19729566.77748 -15246762.45964
  23096583.0014   -1738958.67345  -1253195.79961
  20037659.782   -23200364.490 7 -17920143.70224
  22767620.571     9678724.087 5   7560177.48221
 91  4 25 22 58 59.9970000  0  5G13G 2G15G 6G19
  21638703.7984   -9013512.78946  -6607119.76761
  19948514.9544  -19729141.06748 -15246430.73764
  23093250.868    -1756477.618 5  -1266846.91421
  20033204.306   -23223782.636 7 -17938391.58424
  22774225.8604    9713431.51345   7587222.19761
 91  4 25 22 59 14.9970000  0  5G13G 2G15G 6G19
  21627324.235    -9073306.043 6  -6653711.80521
  19948602.7434  -19728671.10148 -15246064.53064
  23089934.6344   -1773881.26245  -1280408.17961
  20028758.8994  -23247143.65247 -17956594.94564
  22780841.571     9748186.126 5   7614303.66921
 91  4 25 22 59 29.9970000  0  5G13G 2G15G 6G19
  21615959.853    -9133028.654 6  -6700248.80521
  19948700.9704  -19728157.33548 -15245664.19264
  23086646.9464   -1791169.72745  -1293879.67961
  20024323.6104  -23270447.77847 -17974753.97864
  22787463.0794    9782987.17945   7641421.32761
 91  4 25 22 59 44.9970000  0  5G13G 2G15G 6G19
  21604609.524    -9192680.014 6  -6746730.27821
  19948807.8844  -19727599.85748 -15245229.79564
  23083377.6104   -1808342.54645  -1307261.07461
  20019900.4544  -23293694.66847 -17992868.40864
  22794097.118     9817834.876 5   7668575.33021
 91  4 25 22 59 59.9970000  0  5G13G 2G15G 6G19
  21593271.5644   -9252260.33046  -6793156.38561
  19948920.5244  -19726999.07948 -15244761.65564
  23080131.821    -1825400.014 5  -1320552.61521
  20015487.7744  -23316884.47448 -18010938.36064
  22800735.1964    9852728.73745   7695765.30861
 91  4 25 23  0 14.9970000  0  5G13G 2G15G 6G19
  21581945.110    -9311767.795 6  -6839525.74321
  19949044.9934  -19726353.47748 -15244258.58964
  23076907.0014   -1842340.28145  -1333752.78861
  20011086.3294  -23340015.41748 -18028962.44764
  22807383.806     9887670.312 5   7722992.45821
 91  4 25 23  0 29.9970000  0  5G13G 2G15G 6G19
  21570635.618    -9371200.371 6  -6885836.73721
  19949176.6814  -19725661.73048 -15243719.56264
  23073707.001    -1859161.866 5  -1346860.48821
  20006695.689   -23363085.907 8 -18046939.42824
  22814042.5714    9922660.93545   7750257.83661
 91  4 25 23  0 44.9970000  0  5G13G 2G15G 6G19
  21559342.4074   -9430558.81946  -6932089.97361
  19949317.7594  -19724924.93748 -15243145.43764
  23070526.8214   -1875865.52845  -1359876.33361
  20002316.571   -23386096.744 7 -18064869.92424
  22820711.157     9957699.266 5   7777560.39121
 91  4 25 23  0 59.9970000  0  5G13G 2G15G 6G19
  21548059.7984   -9489843.71546  -6978285.89361
  19949466.4154  -19724144.26148 -15242537.11964
  23067371.610    -1892451.985 5  -1372800.82321
  19997948.9934  -23409048.65548 -18082754.50364
  22827385.173     9992784.073 5   7804899.14421
 91  4 25 23  1 14.9970000  0  5G13G 2G15G 6G19
  21536794.1814   -9549052.04146  -7024422.16061
  19949621.6574  -19723317.16148 -15241892.62464
  23064239.345    -1908918.616 5  -1385631.92921
  19993592.743   -23431938.832 7 -18100590.98024
  22834071.626    10027918.018 5   7832276.21321
 91  4 25 23  1 29.9970000  0  5G13G 2G15G 6G19
  21525542.673    -9608188.761 6  -7070502.61221
  19949788.0794  -19722449.09348 -15241216.20864
  23061129.790    -1925270.664 5  -1398373.76521
  19989247.571   -23454772.389 7 -18118383.33724
  22840768.4544   10063095.52545   7859687.20761
 91  4 25 23  1 44.9970000  0  5G13G 2G15G 6G19
  21514301.7434   -9667247.79746  -7116522.54361
  19949961.6964  -19721534.32948 -15240503.40664
  23058039.564    -1941501.964 5  -1411021.49921
  19984915.1654  -23477543.39147 -18136126.94363
  22847471.517    10098322.393 5   7887136.66521
 91  4 25 23  1 59.9970000  0  5G13G 2G15G 6G19
  21503076.040    -9726230.014 6  -7162482.61121
  19950143.9624  -19720574.18248 -15239755.24064
  23054972.024    -1957613.765 5  -1423576.14921
  19980593.392   -23500252.710 7 -18153822.49023
  22854181.415    10133597.121 5   7914623.41821
 91  4 25 23  2 14.9970000  0  5G13G 2G15G 6G19
  21491868.0874   -9785132.76446  -7208380.76961
  19950336.5564  -19719566.17548 -15238969.78264
  23051932.884    -1973603.215 5  -1436035.44221
  19976283.2354  -23522897.83447 -18171468.01564
  22860904.3294   10168922.27645   7942149.48161
 91  4 25 23  2 29.9970000  0  5G13G 2G15G 6G19
  21480672.532    -9843959.861 6  -7254219.95821
  19950535.3294  -19718514.46148 -15238150.26364
  23048910.696    -1989474.443 5  -1448402.61321
  19971986.7984  -23545482.50347 -18189066.43163
  22867635.353    10204293.701 5   7969711.58321
 91  4 25 23  2 44.9970000  0  5G13G 2G15G 6G19
  21469493.3534   -9902708.72846  -7299998.19961
  19950746.0484  -19717417.17948 -15237295.23464
  23045915.642    -2005225.107 5  -1460675.84621
  19967699.6814  -23568004.50447 -18206616.01363
  22874376.696    10239713.271 5   7997311.19921
 91  4 25 23  2 59.9970000  0  5G13G 2G15G 6G19
  21458331.4624   -9961380.41946  -7345716.30661
  19950962.7674  -19716275.86648 -15236405.90164
  23042941.9464   -2020856.26945  -1472855.94161
  19963425.157   -23590465.109 7 -18224117.75923
  22881121.181    10275179.443 5   8024947.14021
 91  4 25 23  3 14.9970000  0  5G13G 2G15G 6G19
  21447178.743   -10019971.651 6  -7391371.71521
  19951189.6264  -19715087.18748 -15235479.65364
  23039989.1344   -2036364.61245  -1484940.35061
  19959164.6494  -23612860.77447 -18241568.89964
  22887881.9074   10310695.17745   8052621.70761
 91  4 25 23  3 29.9970000  0  5G13G 2G15G 6G19
  21436043.5644  -10078483.34246  -7436965.14461
  19951423.6894  -19713852.81448 -15234517.80164
  23037056.8144   -2051751.27445  -1496929.96561
  19954914.743   -23635192.724 7 -18258970.39123
  22894652.7594   10346259.12045   8080333.82461
 91  4 25 23  3 44.9970000  0  5G13G 2G15G 6G19
  21424926.7824  -10136918.10846  -7482498.63361
  19951666.3924  -19712576.05348 -15233522.92064
  23034152.3374   -2067019.52745  -1508827.27761
  19950676.6104  -23657463.85147 -18276324.49064
  22901426.3064   10381867.92045   8108080.88761
 91  4 25 23  3 59.9970000  0  5G13G 2G15G 6G19
  21413818.8534  -10195272.30946  -7527969.34761
  19951917.6964  -19711253.28248 -15232492.18864
  23031270.0324   -2082165.61945  -1520629.39661
  19946450.4934  -23679670.40147 -18293628.26964
  22908210.6734   10417525.06745   8135865.64861
 91  4 25 23  4 14.9970000  0  5G13G 2G15G 6G19
  21402731.1574  -10253548.78746  -7573379.49361
  19952178.7044  -19709887.71948 -15231428.10864
  23028410.8994   -2097192.69345  -1532338.76361
  19942236.2904  -23701815.36547 -18310884.05564
  22915007.3994   10453227.31745   8163685.54461
 91  4 25 23  4 29.9970000  0  5G13G 2G15G 6G19
  21391654.1184  -10311747.23446  -7618728.82961
  19952445.7124  -19708479.64248 -15230330.90264
  23025574.2434   -2112100.55445  -1543955.28661
  19938035.3924  -23723898.63447 -18328091.76964
  22921805.5404   10488974.23245   8191540.23961
 91  4 25 23  4 44.9970000  0  5G13G 2G15G 6G19
  21380596.470   -10369865.058 6  -7664015.36021
  19952722.2204  -19707026.88748 -15229198.87964
  23022760.9154   -2126886.57945  -1555476.82561
  19933845.142   -23745917.850 7 -18345249.57523
  22928620.173    10524768.027 5   8219431.46621
 91  4 25 23  4 59.9970000  0  5G13G 2G15G 6G19
  21369553.0954  -10427903.60746  -7709240.10961
  19953007.4074  -19705531.21948 -15228033.42464
  23019971.001    -2141552.398 5  -1566904.72521
  19929665.9624  -23767874.42247 -18362358.56464
  22935441.0014   10560606.86945   8247357.79961
 91  4 25 23  5 14.9970000  0  5G13G 2G15G 6G19
  21358521.9234  -10485857.50346  -7754398.90061
  19953300.4624  -19703987.94348 -15226830.86864
  23017202.7904   -2156093.21145  -1578235.19561
  19925500.3454  -23789763.21147 -18379414.73464
  22942269.243    10596495.620 4   8275323.01421
 91  4 25 23  5 29.9970000  0  5G13G 2G15G 6G19
  21347509.4314  -10543728.03146  -7799492.71961
  19953603.5794  -19702398.51848 -15225592.34864
  23014458.235    -2170510.334 5  -1589469.29121
  19921348.7594  -23811585.54747 -18396419.12364
  22949103.001    10632432.602 4   8303325.80721
 91  4 25 23  5 44.9970000  0  5G13G 2G15G 6G19
  21336514.0014  -10601517.23446  -7844523.18061
  19953914.3684  -19700765.35048 -15224319.74864
  23011739.4074   -2184805.78245  -1600608.56561
  19917207.6734  -23833343.42747 -18413373.28564
  22955957.017    10668415.307 4   8331364.23621
 91  4 25 23  5 59.9970000  0  5G13G 2G15G 6G19
  21325534.4784  -10659221.16446  -7889487.19261
  19954234.7594  -19699085.04648 -15223010.41664
  23009042.8764   -2198975.73545  -1611650.08961
  19913080.798   -23855033.171 7 -18430274.35924
  22962811.2204   10704447.21144   8359441.00861
 91  4 25 23  6 14.9970000  0  5G13G 2G15G 6G19
  21314568.4394  -10716840.63246  -7934385.39361
  19954563.0644  -19697358.59348 -15221665.12464
  23006370.3604   -2213021.07245  -1622594.49161
  19908966.3374  -23876655.51247 -18447122.90764
  22969678.454    10740527.411 4   8387555.38521
 91  4 25 23  6 29.9970000  0  5G13G 2G15G 6G19
  21303620.5714  -10774375.99446  -7979218.05261
  19954900.0484  -19695586.79248 -15220284.49665
  23003722.204    -2226942.459 5  -1633442.29721
  19904862.9934  -23898210.86047 -18463919.25464
  22976551.3764   10776654.99545   8415706.70661
 91  4 25 23  6 44.9970000  0  5G13G 2G15G 6G19
  21292687.0014  -10831830.73446  -8023987.88961
  19955244.9624  -19693773.50248 -15218871.54164
  23001096.157    -2240743.546 5  -1644196.35921
  19900773.2984  -23919702.96147 -18480666.31664
  22983435.931    10812826.017 5   8443891.87621
 91  4 25 23  6 59.9970000  0  5G13G 2G15G 6G19
  21281769.1344  -10889203.13246  -8068693.56061
  19955599.1494  -19691917.66348 -15217425.42864
  22998494.329    -2254423.122 5  -1654855.77521
  19896696.7284  -23941130.43747 -18497363.02064
  22990327.1814   10849041.39945   8472111.61761
 91  4 25 23  7 14.9970000  0  5G13G 2G15G 6G19
  21270868.3994  -10946488.54746  -8113331.44961
  19955961.0324  -19690014.79448 -15215942.66664
  22995908.829    -2267976.385 5  -1665416.71021
  19892632.9154  -23962488.42947 -18514005.58164
  22997229.610    10885305.473 5   8500369.31421
 91  4 25 23  7 29.9970000  0  5G13G 2G15G 6G19
  21259983.290   -11003687.351 6  -8157901.86621
  19956331.6184  -19688066.11348 -15214424.21064
  22993359.7284   -2281404.10045  -1675879.83761
  19888581.6424  -23983777.64647 -18530594.55564
  23004136.8454   10921617.28945   8528664.19161
 91  4 25 23  7 44.9970000  0  5G13G 2G15G 6G19
  21249114.9624  -11060799.68846  -8202404.88761
  19956710.1264  -19686072.00548 -15212870.35564
  22990828.5954   -2294706.67745  -1686245.45661
  19884543.3844  -24004998.39047 -18547130.17164
  23011056.634    10957976.460 5   8556995.97221
 91  4 25 23  7 59.9970000  0  5G13G 2G15G 6G19
  21238263.142   -11117823.929 6  -8246839.27521
  19957098.3604  -19684031.17348 -15211280.09364
  22988319.9624   -2307882.62745  -1696512.42461
  19880518.134   -24026149.110 7 -18563611.22424
  23017984.8604   10994383.77845   8585365.26161
 91  4 25 23  8 14.9970000  0  5G13G 2G15G 6G19
  21227425.9464  -11174763.48746  -8291207.67561
  19957494.5794  -19681947.28148 -15209656.27664
  22985839.9314   -2320934.99845  -1706683.08561
  19876506.4784  -24047233.03047 -18580040.22564
  23024922.9154   11030835.81245   8613769.41261
 91  4 25 23  8 29.9970000  0  5G13G 2G15G 6G19
  21216609.4854  -11231618.87146  -8335510.48461
  19957899.1494  -19679821.37948 -15207999.72764
  22983376.0794   -2333864.95545  -1716758.35961
  19872506.0404  -24068250.98747 -18596417.82264
  23031865.735    11067331.539 5   8642207.59221
 91  4 25 23  8 44.9970000  0  5G13G 2G15G 6G19
  21205805.946   -11288387.204 6  -8379745.46221
  19958312.7594  -19677651.06348 -15206308.56764
  22980937.6034   -2346670.04145  -1726736.33761
  19868519.9314  -24089200.38047 -18612741.99964
  23038820.884    11103873.106 5   8670681.49921
 91  4 25 23  8 59.9970000  0  5G13G 2G15G 6G19
  21195019.954   -11345063.481 6  -8423908.71221
  19958735.2354  -19675431.84248 -15204579.30365
  22978526.7434   -2359345.27945  -1736613.13761
  19864546.1574  -24110076.18347 -18629008.82964
  23045784.384    11140465.230 5   8699194.80921
 91  4 25 23  9 14.9970000  0  5G13G 2G15G 6G19
  21184251.9394  -11401654.16946  -8468005.26961
  19959164.6424  -19673170.60348 -15202817.29264
  22976136.0014   -2371897.25745  -1746393.90761
  19860587.1574  -24130885.16947 -18645223.59964
  23052756.415    11177100.779 5   8727741.94621
 91  4 25 23  9 29.9970000  0  5G13G 2G15G 6G19
  21173502.142   -11458159.368 6  -8512035.21621
  19959603.6424  -19670867.39948 -15201022.58564
  22973769.321    -2384326.123 5  -1756078.71721
  19856640.626   -24151627.192 7 -18661386.18724
  23059732.024    11213779.603 5   8756322.81321
 91  4 25 23  9 44.9970000  0  5G13G 2G15G 6G19
  21162762.720   -11514576.317 6  -8555996.39321
  19960049.8454  -19668520.07848 -15199193.50064
  22971429.3144   -2396629.40145  -1765665.68061
  19852706.5174  -24172299.65747 -18677494.57464
  23066724.5174   11250503.89845   8784939.14361
 91  4 25 23  9 59.9970000  0  5G13G 2G15G 6G19
  21152048.7744  -11570902.39846  -8599886.76461
  19960505.9934  -19666126.30348 -15197328.21864
  22969113.6814   -2408804.65845  -1775152.88261
  19848786.743   -24192899.940 7 -18693546.71624
  23073722.0564   11287275.96644   8813592.63761
 91  4 25 23 10 14.9970000  0  5G13G 2G15G 6G19
  21141343.282   -11627144.015 6  -8643711.32921
  19960968.5244  -19663692.82648 -15195431.99864
  22966824.6964   -2420858.04445  -1784545.11161
  19844878.6894  -24213434.47847 -18709547.63064
  23080725.907    11324088.986 4   8842278.08421
 91  4 25 23 10 29.9970000  0  5G13G 2G15G 6G19
  21130658.071   -11683293.698 6  -8687464.24821
  19961439.9464  -19661212.87248 -15193499.56064
  22964553.9704   -2432782.91445  -1793837.20161
  19840985.267   -24233896.284 7 -18725491.86724
  23087740.142    11360949.519 4   8871000.53921
 91  4 25 23 10 44.9970000  0  5G13G 2G15G 6G19
  21119988.579   -11739352.373 6  -8731146.25721
  19961922.1034  -19658687.67848 -15191531.87365
  22962308.1344   -2444580.39245  -1803030.04061
  19837104.8994  -24254286.20947 -18741380.09464
  23094762.618    11397856.482 4   8899759.16021
 91  4 25 23 10 59.9970000  0  5G13G 2G15G 6G19
  21109338.728   -11795318.313 6  -8774756.00721
  19962411.5874  -19656115.91948 -15189527.90064
  22960086.0714   -2456249.11145  -1812122.53861
  19833238.6344  -24274602.70147 -18757211.09964
  23101795.212    11434811.091 4   8928554.91821
 91  4 25 23 11 14.9970000  0  5G13G 2G15G 6G19
  21098707.696   -11851189.074 6  -8818291.58621
  19962909.8454  -19653495.42448 -15187485.94865
  22957891.0714   -2467786.25645  -1821112.50361
  19829386.181   -24294843.153 7 -18772982.84724
  23108835.399    11471815.440 4   8957389.45321
 91  4 25 23 11 29.9970000  0  5G13G 2G15G 6G19
  21088095.540   -11906963.275 6  -8861751.92821
  19963417.6184  -19650825.34748 -15185405.36364
  22955721.3994   -2479190.93845  -1829999.25261
  19825550.2044  -24315006.50547 -18788694.52364
  23115887.790    11508870.477 4   8986263.47121
 91  4 25 23 11 44.9970000  0  5G13G 2G15G 6G19
  21077499.868   -11962640.428 6  -8905136.64621
  19963934.3374  -19648105.52748 -15183286.01664
  22953572.009    -2490462.820 5  -1838782.54521
  19821728.1424  -24335092.40247 -18804345.84464
  23122948.642    11545976.093 3   9015176.90121
 91  4 25 23 11 59.9970000  0  5G13G 2G15G 6G19
  21066922.798   -12018222.893 6  -8948447.58121
  19964462.3064  -19645338.86748 -15181130.17364
  22951452.9704   -2501604.43645  -1847464.30461
  19817919.9934  -24355103.20547 -18819938.64964
  23130020.282    11583129.420 3   9044127.50321
 91  4 25 23 12 14.9970000  0  5G13G 2G15G 6G19
  21056364.048   -12073708.166 6  -8991682.78621
  19964998.5564  -19642523.24748 -15178936.17665
  22949354.009    -2512613.425 5  -1856042.73221
  19814126.1574  -24375036.64447 -18835471.17064
  23137098.673    11620332.586 3   9073116.92821
 91  4 25 23 12 29.9970000  0  5G13G 2G15G 6G19
  21045823.681   -12129096.376 6  -9034842.35721
  19965543.2354  -19639659.24548 -15176704.48064
  22947287.6894   -2523490.25145  -1864518.17761
  19810347.2514  -24394892.81647 -18850943.48264
  23144189.3374   11657584.90243   9102144.65461
 91  4 25 23 12 44.9970000  0  5G13G 2G15G 6G19
  21035300.946   -12184386.712 6  -9077925.65521
  19966096.2204  -19636746.42648 -15174434.74365
  22945243.0714   -2534234.67745  -1872890.45161
  19806583.9624  -24414671.29147 -18866355.25664
  23151286.728    11694886.678 3   9131210.93421
 91  4 25 23 12 59.9970000  0  5G13G 2G15G 6G19
  21024799.907   -12239574.003 6  -9120928.66821
  19966661.6734  -19633779.78448 -15172123.06664
  22943223.118    -2544841.183 5  -1881155.29321
  19802836.8144  -24434366.75647 -18881702.34164
  23158396.1034   11732243.03244   9160319.75961
 91  4 25 23 13 14.9970000  0  5G13G 2G15G 6G19
  21014318.774   -12294661.571 6  -9163853.96921
  19967235.6034  -19630762.93248 -15169772.26964
  22941236.1814   -2555313.09445  -1889315.20061
  19799102.9784  -24453982.44047 -18896987.26364
  23165514.9934   11769650.11843   9189468.08461
 91  4 25 23 13 29.9970000  0  5G13G 2G15G 6G19
  21003852.759   -12349649.017 6  -9206701.25221
  19967817.7594  -19627696.01548 -15167382.45564
  22939268.0324   -2565650.67345  -1897370.44661
  19795386.3604  -24473518.20147 -18912209.90364
  23172642.032    11807107.736 4   9218655.79021
 91  4 25 23 13 44.9970000  0  5G13G 2G15G 6G19
  20993406.962   -12404541.151 6  -9249474.27021
  19968410.3374  -19624584.34248 -15164957.76864
  22937327.2354   -2575858.86145  -1905324.88361
  19791683.3764  -24492979.15247 -18927374.25064
  23179779.0094   11844610.46044   9247878.67861
 91  4 25 23 13 59.9970000  0  5G13G 2G15G 6G19
  20982982.626   -12459331.440 6  -9292167.92421
  19969012.1494  -19621421.54948 -15162493.24765
  22935407.9234   -2585931.33745  -1913173.55961
  19787993.6574  -24512358.58747 -18942475.07764
  23186922.282    11882164.662 4   9277141.65421
 91  4 25 23 14 14.9970000  0  5G13G 2G15G 6G19
  20972575.087   -12514024.466 6  -9334785.79121
  19969624.1184  -19618212.66848 -15159992.81364
  22933519.1104   -2595872.87345  -1920920.20961
  19784321.8064  -24531661.24147 -18957516.07764
  23194081.0954   11919765.20544   9306440.74261
 91  4 25 23 14 29.9970000  0  5G13G 2G15G 6G19
  20962185.228   -12568617.397 6  -9377325.66521
  19970244.0244  -19614955.17648 -15157454.49864
  22931655.9544   -2605680.53845  -1928562.51861
  19780663.6894  -24550884.22247 -18972494.99464
  23201248.2354   11957414.53844   9335777.83061
 91  4 25 23 14 44.9970000  0  5G13G 2G15G 6G19
  20951817.985   -12623106.977 6  -9419784.99421
  19970872.1734  -19611646.09848 -15154875.99064
  22929813.6264   -2615351.22045  -1936098.12961
  19777020.454   -24570024.487 7 -18987409.46024
  23208417.7354   11995115.56644   9365155.24961
 91  4 25 23 14 59.9970000  0  5G13G 2G15G 6G19
  20941466.321   -12677495.775 6  -9462165.80721
  19971511.8374  -19608288.63048 -15152259.77864
  22927998.6654   -2624887.83345  -1943529.24761
  19773394.4704  -24589084.60547 -19002261.46864
  23215601.587    12032865.205 4   9394570.51221
 91  4 25 23 15 14.9970000  0  5G13G 2G15G 6G19
  20931136.384   -12731783.455 6  -9504467.81821
  19972159.7984  -19604882.87248 -15149605.93464
  22926209.806    -2634290.356 5  -1950855.89221
  19769782.915   -24608064.471 7 -19017050.94924
  23222792.8374   12070663.20944   9424023.46761
 91  4 25 23 15 29.9970000  0  5G13G 2G15G 6G19
  20920824.095   -12785967.679 6  -9546689.21521
  19972816.9934  -19601426.91348 -15146912.97164
  22924442.8454   -2643556.75245  -1958076.44961
  19766186.9784  -24626961.88947 -19031776.18164
  23229996.642    12108511.421 4   9453515.56721
 91  4 25 23 15 44.9970000  0  5G13G 2G15G 6G19
  20910532.5714  -12840050.73346  -9588831.79161
  19973483.9704  -19597923.26848 -15144182.84864
  22922703.7594   -2652689.52245  -1965192.91761
  19762605.407   -24645779.236 7 -19046439.02424
  23237206.2124   12146407.12243   9483044.65761
 91  4 25 23 15 59.9970000  0  5G13G 2G15G 6G19
  20900260.134   -12894031.969 6  -9630895.01621
  19974160.0954  -19594372.02948 -15141415.64264
  22920991.954    -2661688.599 5  -1972205.16821
  19759040.634   -24664516.195 7 -19061039.22524
  23244433.149    12184350.227 3   9512610.66121
 91  4 25 23 16 14.9970000  0  5G13G 2G15G 6G19
  20890008.8844  -12947909.91846  -9672877.76361
  19974846.2984  -19590771.72048 -15138610.19764
  22919305.1184   -2670552.32845  -1979111.95661
  19755490.3924  -24683171.09147 -19075575.47564
  23251658.767    12222342.008 3   9542214.62221
 91  4 25 23 16 29.9970000  0  5G13G 2G15G 6G19
  20879774.0564  -13001690.55746  -9714784.68761
  19975538.5094  -19587128.74448 -15135771.50564
  22917642.056    -2679287.012 5  -1985918.20721
  19751954.5794  -24701750.01047 -19090052.52964
  23258893.399    12260376.039 4   9571851.49521
 91  4 25 23 16 44.9960000  0  5G13G 2G15G 6G19
  20869558.5514  -13055365.55146  -9756609.28761
  19976240.6994  -19583439.13348 -15132896.47564
  22916003.8014   -2687887.57145  -1992619.93761
  19748435.1684  -24720247.25847 -19104465.94264
  23266142.6134   12298454.03044   9601522.63761
 91  4 25 23 16 59.9960000  0  5G13G 2G15G 6G19
  20859365.3634  -13108940.29346  -9798355.77261
  19976952.6764  -19579700.75548 -15129983.44765
  22914393.7544   -2696353.02345  -1999216.38361
  19744929.4814  -24738663.24547 -19118816.03164
  23273393.7774   12336582.74143   9631233.28961
 91  4 25 23 17 14.9960000  0  5G13G 2G15G 6G19
  20849188.4654  -13162411.96746  -9840021.94261
  19977671.4344  -19575915.10448 -15127033.58465
  22912808.0594   -2704684.36145  -2005708.34961
  19741441.723   -24756997.645 7 -19133102.55324
  23280662.816    12374758.210 3   9660980.39521
 91  4 25 23 17 29.9960000  0  5G13G 2G15G 6G19
  20839033.7704  -13215781.23146  -9881608.31961
  19978401.9104  -19572083.12748 -15124047.62064
  22911252.012    -2712882.266 5  -2012096.32721
  19737968.3484  -24775251.34847 -19147326.18664
  23287936.3714   12412979.40843   9690763.10461
 91  4 25 23 17 44.9960000  0  5G13G 2G15G 6G19
  20828896.6134  -13269046.01646  -9923113.28361
  19979140.2704  -19568202.81448 -15121023.99365
  22909717.918    -2720944.727 5  -2018378.76121
  19734509.426   -24793422.017 7 -19161485.12624
  23295219.613    12451248.080 3   9720582.83021
 91  4 25 23 17 59.9960000  0  5G13G 2G15G 6G19
  20818782.637   -13322206.249 6  -9964536.77421
  19979886.6914  -19564274.59648 -15117963.03365
  22908208.5744   -2728871.91645  -2024555.78961
  19731068.5744  -24811509.79747 -19175579.47664
  23302510.691    12489563.904 3   9750439.28821
 91  4 25 23 18 14.9960000  0  5G13G 2G15G 6G19
  20808685.8484  -13375258.53346 -10005876.15361
  19980644.2704  -19560295.66748 -15114862.56165
  22906728.3014   -2736660.65245  -2030624.93761
  19727642.8714  -24829511.59147 -19189606.82364
  23309811.926    12527929.599 3   9780334.60621
 91  4 25 23 18 29.9960000  0  5G13G 2G15G 6G19
  20798610.8794  -13428207.46046 -10047134.99161
  19981410.5274  -19556271.08048 -15111726.51264
  22905269.1994   -2744316.08945  -2036590.20661
  19724231.7704  -24847432.08447 -19203570.81163
  23317118.606    12566340.010 4   9810264.76421
 91  4 25 23 18 44.9960000  0  5G13G 2G15G 6G19
  20788554.5984  -13481050.64446 -10088311.43861
  19982185.3794  -19552198.73248 -15108553.25064
  22903841.606    -2751835.962 5  -2042449.86421
  19720836.8634  -24865268.91847 -19217469.61564
  23324437.2384   12604797.02043   9840231.24661
 91  4 25 23 18 59.9960000  0  4G13G 2G15G 6
  20778517.1374  -13533787.20446 -10129404.79561
  19982970.0434  -19548078.00948 -15105342.29165
  22902436.9024   -2759219.37145  -2048203.15061
  19717460.1214  -24883021.06847 -19231302.43363
 91  4 25 23 19 14.9960000  0  4G13G 2G15G 6
  20768502.7854  -13586420.47246 -10170417.67261
  19983761.1994  -19543912.90448 -15102096.74565
  22901055.059    -2766470.042 5  -2053853.04421
  19714098.4104  -24900692.38147 -19245072.25863
 91  4 25 23 19 29.9960000  0  4G13G 2G15G 6
  20758507.629   -13638944.777 6 -10211345.62921
  19984564.0044  -19539697.90248 -15098812.32064
  22899697.590    -2773582.557 5  -2059395.25721
  19710751.082   -24918277.077 7 -19258774.59323
 91  4 25 23 19 44.9960000  0  4G13G 2G15G 6
  20748532.4964  -13691365.84946 -10252193.15161
  19985374.1914  -19535438.99048 -15095493.68065
  22898370.9654   -2780562.97145  -2064834.55061
  19707419.418   -24935780.893 7 -19272413.90423
 91  4 25 23 19 59.9960000  0  4G13G 2G15G 6
  20738575.8164  -13743684.06646 -10292960.53661
  19986193.6764  -19531136.92148 -15092141.41465
  22897066.3324   -2787411.74645  -2070171.25561
  19704103.8874  -24953204.27847 -19285990.54163
 91  4 25 23 20 14.9960000  0  4G13G 2G15G 6
  20728639.5984  -13795895.47846 -10333644.68961
  19987021.7154  -19526788.06748 -15088752.68864
  22895786.1214   -2794125.00845  -2075402.37961
  19700803.012   -24970543.171 7 -19299501.34223
 91  4 25 23 20 29.9960000  0  4G13G 2G15G 6
  20718725.8014  -13847998.24646 -10374244.18361
  19987858.4734  -19522390.93948 -15085326.34864
  22894535.168    -2800701.266 5  -2080526.71621
  19697521.215   -24987796.014 7 -19312945.08823
 91  4 25 23 20 44.9960000  0  4G13G 2G15G 6
  20708830.9414  -13899995.31246 -10414761.31061
  19988703.8404  -19517949.23248 -15081865.27165
  22893310.9654   -2807143.92745  -2085546.98761
  19694253.606   -25004965.979 7 -19326324.25623
 91  4 25 23 20 59.9960000  0  4G13G 2G15G 6
  20698956.2854  -13951886.19146 -10455195.70361
  19989556.6374  -19513462.57148 -15078369.16764
  22892109.113    -2813452.393 5  -2090462.65621
  19691002.1374  -25022052.64347 -19339638.51463
 91  4 25 23 21 14.9960000  0  4G13G 2G15G 6
  20689101.1294  -14003669.46846 -10495546.24361
  19990419.5824  -19508929.70248 -15074837.05665
  22890935.2384   -2819625.50545  -2095272.88761
  19687767.270   -25039054.403 7 -19352886.61423
 91  4 25 23 21 29.9960000  0  4G13G 2G15G 6
  20679268.3244  -14055346.10446 -10535813.68961
  19991290.1994  -19504352.04148 -15071270.04264
  22889786.4264   -2825664.62845  -2099978.68661
  19684546.9264  -25055972.50447 -19366069.52263
 91  4 25 23 21 44.9960000  0  4G13G 2G15G 6
  20669454.8094  -14106916.48846 -10575998.33861
  19992169.6214  -19499730.29948 -15067668.68164
  22888664.426    -2831570.217 5  -2104580.45721
  19681345.246   -25072807.206 7 -19379187.44423
 91  4 25 23 21 59.9960000  0  4G13G 2G15G 6
  20659662.4734  -14158379.60946 -10616099.41461
  19993058.1524  -19495063.76748 -15064032.41864
  22887564.9734   -2837341.35145  -2109077.45661
  19678156.121   -25089557.563 7 -19392239.64723
 91  4 25 23 22 14.9960000  0  4G13G 2G15G 6
  20649891.1604  -14209730.35446 -10656112.92361
  19993955.0664  -19490347.88748 -15060357.70364
  22886493.3714   -2842973.24645  -2113465.95361
  19674985.957   -25106218.535 7 -19405222.19923
 91  4 25 23 22 29.9960000  0  4G13G 2G15G 6
  20640139.6214  -14260974.43646 -10696043.30861
  19994860.0594  -19485588.55048 -15056649.12564
  22885445.762    -2848471.918 5  -2117750.64921
  19671832.4344  -25122795.97747 -19418139.66063
 91  4 25 23 22 44.9960000  0  4G13G 2G15G 6
  20630409.4654  -14312108.30747 -10735887.82361
  19995774.6214  -19480782.64548 -15052904.26464
  22884427.0354   -2853834.25345  -2121929.09561
  19668694.340   -25139286.478 7 -19430989.37524
 91  4 25 23 22 59.9960000  0  4G13G 2G15G 6
  20620699.9184  -14363132.38147 -10775646.78761
  19996699.0594  -19475931.05048 -15049123.80164
  22883431.129    -2859060.476 5  -2126001.48221
  19665571.715   -25155690.592 7 -19443771.78024
 91  4 25 23 23 14.9960000  0  4G13G 2G15G 6
  20611010.0824  -14414048.29247 -10815321.46461
  19997630.2544  -19471035.50948 -15045309.09564
  22882458.2544   -2864152.59845  -2129969.36261
  19662465.410   -25172009.813 7 -19456488.03123
 91  4 25 23 23 29.9960000  0  4G13G 2G15G 6
  20601341.4654  -14464859.05447 -10854914.21061
  19998569.5354  -19466099.46648 -15041462.82664
  22881518.660    -2869113.875 5  -2133835.29421
  19659376.457   -25188247.451 7 -19469140.72023
 91  4 25 23 23 44.9960000  0  4G13G 2G15G 6
  20591691.2704  -14515559.70047 -10894421.14761
  19999516.7704  -19461118.33448 -15037581.42464
  22880604.3714   -2873939.74545  -2137595.72361
  19656304.168   -25204398.519 7 -19481725.94823
 91  4 25 23 23 59.9960000  0  4G13G 2G15G 6
  20582066.4964  -14566152.34647 -10933843.93161
  20000473.3244  -19456094.38948 -15033666.66364
  22879708.465    -2878632.511 5  -2141252.42921
  19653245.356   -25220465.107 7 -19494245.34623
 91  4 25 23 24 14.9960000  0  4G13G 2G15G 6
  20572458.684   -14616636.056 7 -10973181.82821
  20001437.7464  -19451027.36948 -15029718.33564
  22878841.7234   -2883191.42645  -2144804.84261
  19650203.746   -25236446.462 7 -19506698.33224
 91  4 25 23 24 29.9960000  0  4G13G 2G15G 6
  20562873.7934  -14667008.24447 -11012432.83161
  20002410.9024  -19445914.70448 -15025734.43964
  22877998.9964   -2887613.84545  -2148250.89361
  19647180.473   -25252339.880 7 -19519082.80024
 91  4 25 23 24 44.9960000  0  4G13G 2G15G 6
  20553309.254   -14717269.724 7 -11051597.56521
  20003392.7234  -19440757.58348 -15021715.90464
  22877186.074    -2891901.211 5  -2151591.69921
  19644171.559   -25268146.226 7 -19531399.41224
 91  4 25 23 24 59.9960000  0  4G13G 2G15G 6
  20543765.809   -14767419.271 7 -11090675.08321
  20004381.8634  -19435555.29648 -15017662.17164
  22876392.910    -2896052.535 5  -2154826.51321
  19641180.949   -25283864.543 7 -19543647.43124
 91  4 25 23 25 14.9960000  0  4G13G 2G15G 6
  20534241.996   -14817461.401 7 -11129668.89621
  20005380.4344  -19430312.53648 -15013576.90064
  22875629.231    -2900072.123 5  -2157958.65421
  19638204.738   -25299499.316 7 -19555830.35224
 91  4 25 23 25 29.9960000  0  4G13G 2G15G 6
  20524740.762   -14867391.796 7 -11168575.64021
  20006385.5514  -19425025.07848 -15009456.80064
  22874889.4814   -2903955.93545  -2160985.00061
  19635247.949   -25315046.028 7 -19567944.65924
 91  4 25 23 25 44.9960000  0  4G13G 2G15G 6
  20515260.9654  -14917210.44447 -11207395.31461
  20007400.7774  -19419693.72748 -15005302.50164
  22874179.1214   -2907704.55545  -2163906.02961
  19632305.684   -25330505.143 7 -19579990.70424
 91  4 25 23 25 59.9960000  0  4G13G 2G15G 6
  20505801.863   -14966920.534 7 -11246130.39621
  20008421.6134  -19414321.85048 -15001116.62364
  22873484.4184   -2911321.48545  -2166724.42061
  19629380.566   -25345879.893 7 -19591971.01024
 91  4 25 23 26 14.9960000  0  4G13G 2G15G 6
  20496363.426   -15016522.929 7 -11284781.55621
  20009453.1994  -19408910.59248 -14996900.05464
  22872825.699    -2914807.627 5  -2169440.88621
  19626469.184   -25361170.988 7 -19603886.12824
 91  4 25 23 26 29.9960000  0  4G13G 2G15G 6
  20486943.613   -15066015.021 7 -11323346.77121
  20010489.7544  -19403457.68348 -14992651.03164
  22872187.6294   -2918160.72545  -2172053.69761
  19623577.879   -25376375.997 7 -19615734.17224
 91  4 25 23 26 44.9960000  0  4G13G 2G15G 6
  20477546.3244  -15115397.66247 -11361826.69461
  20011535.6684  -19397964.27648 -14988370.45564
  22871576.441    -2921381.726 5  -2174563.56721
  19620699.027   -25391495.761 7 -19627515.79324
 91  4 25 23 26 59.9960000  0  4G13G 2G15G 6
  20468170.7154  -15164665.00347 -11400216.77061
  20012590.2234  -19392424.77348 -14984053.96264
  22870986.9884   -2924465.10745  -2176966.19361
  19617839.895   -25406524.389 7 -19639226.38924
 91  4 25 23 27 14.9960000  0  4G13G 2G15G 6
  20458818.7854  -15213819.14447 -11438518.64261
  20013651.7074  -19386841.66848 -14979703.49264
  22870428.629    -2927413.282 5  -2179263.50221
  19614996.715   -25421464.197 7 -19650867.78624
 91  4 25 23 27 29.9960000  0  4G13G 2G15G 6
  20449486.863   -15262859.725 7 -11476732.03221
  20014723.3404  -19381215.02848 -14975319.09864
  22869891.2774   -2930225.86245  -2181455.12061
  19612170.324   -25436314.820 7 -19662439.68224
 91  4 25 23 27 44.9960000  0  4G13G 2G15G 6
  20440174.777   -15311788.347 7 -11514858.18021
  20015800.6844  -19375546.48348 -14970902.04564
  22869380.527    -2932904.716 5  -2183542.53521
  19609360.777   -25451077.798 7 -19673943.28424
 91  4 25 23 27 59.9960000  0  4G13G 2G15G 6
  20430885.504   -15360601.905 7 -11552894.66521
  20016888.1914  -19369833.13448 -14966450.08264
  22868898.9104   -2935446.89745  -2185523.47261
  19606569.832   -25465749.968 7 -19685376.12624
 91  4 25 23 28 14.9960000  0  4G13G 2G15G 6
  20421617.707   -15409302.988 7 -11590843.51221
  20017982.7934  -19364078.29548 -14961965.79464
  22868439.1844   -2937855.42345  -2187400.27561
  19603795.121   -25480334.236 7 -19696740.47224
 91  4 25 23 28 29.9960000  0  4G13G 2G15G 6
  20412371.113   -15457892.724 7 -11628705.59221
  20019085.9964  -19358283.41348 -14957450.29964
  22868005.074    -2940131.824 5  -2189174.09221
  19601034.441   -25494831.753 7 -19708037.22824
 91  4 25 23 28 44.9960000  0  4G13G 2G15G 6
  20403147.004   -15506370.217 7 -11666480.21521
  20020195.9494  -19352447.78448 -14952903.05264
  22867599.3244   -2942275.33545  -2190844.36161
  19598292.262   -25509241.715 7 -19719265.74424
 91  4 25 23 28 59.9960000  0  4G13G 2G15G 6
  20393943.512   -15554731.986 7 -11704164.65721
  20021315.5594  -19346568.37748 -14948321.69264
  22867220.207    -2944282.568 5  -2192408.45721
  19595567.574   -25523560.717 7 -19730423.39124
 91  4 25 23 29 14.9960000  0  4G13G 2G15G 6
  20384762.598   -15602980.125 7 -11741760.56421
  20022442.5274  -19340647.36648 -14943707.91564
  22866860.7154   -2946156.07045  -2193868.32961
  19592859.887   -25537790.883 7 -19741511.81224
 91  4 25 23 29 29.9960000  0  4G13G 2G15G 6
  20375604.301   -15651115.900 7 -11779268.91021
  20023576.9964  -19334686.44248 -14939063.03964
  22866529.2384   -2947897.31045  -2195225.15361
  19590167.996   -25551933.335 7 -19752531.88624
 91  4 25 23 29 44.9960000  0  4G13G 2G15G 6
  20366464.676   -15699137.627 7 -11816688.38721
  20024719.5204  -19328684.11248 -14934385.89564
  22866222.402    -2949504.551 5  -2196477.54921
  19587494.473   -25565986.504 7 -19763482.38723
 91  4 25 23 29 59.9960000  0  4G13G 2G15G 6
  20357346.668   -15747044.808 7 -11854018.61021
  20025868.0744  -19322640.19848 -14929676.35164
  22865945.1374   -2950977.40545  -2197625.24761
  19584837.004   -25579949.878 7 -19774362.91224
 91  4 25 23 30 14.9960000  0  4G13G 2G15G 6
  20348253.934   -15794837.812 7 -11891259.87521
  20027027.4264  -19316555.30548 -14924934.87564
  22865688.324    -2952316.718 5  -2198668.87821
  19582197.879   -25593823.867 7 -19785173.79224
 91  4 25 23 30 29.9960000  0  4G13G 2G15G 6
  20339180.379   -15842515.579 7 -11928411.32621
  20028194.0744  -19310428.88948 -14920161.04364
  22865456.324    -2953521.871 5  -2199607.97421
  19579573.809   -25607607.515 7 -19795914.27523
 91  4 25 23 30 44.9960000  0  4G13G 2G15G 6
  20330128.332   -15890077.652 7 -11965472.63521
  20029366.9734  -19304260.87648 -14915354.80064
  22865253.840    -2954592.729 5  -2200442.43021
  19576967.504   -25621300.567 7 -19806584.16623
 91  4 25 23 30 59.9960000  0  4G13G 2G15G 6
  20321101.035   -15937524.162 7 -12002443.89421
  20030547.8564  -19298051.58548 -14910516.38864
  22865079.4654   -2955529.68145  -2201172.50961
  19574379.324   -25634903.154 7 -19817183.56523
 91  4 25 23 31 14.9960000  0  4G13G 2G15G 6
  20312094.543   -15984853.465 7 -12039323.82121
  20031736.7934  -19291799.46948 -14905644.60764
  22864917.934    -2956331.222 5  -2201797.11121
  19571808.863   -25648413.584 7 -19827711.14723
 91  4 25 23 31 29.9960000  0  4G13G 2G15G 6
  20303109.965   -16032067.039 7 -12076113.57021
  20032934.6374  -19285506.47648 -14900740.97364
  22864797.2234   -2956998.98645  -2202317.45661
  19569256.379   -25661833.345 7 -19838168.08523
 91  4 25 23 31 44.9960000  0  4G13G 2G15G 6
  20294147.973   -16079161.738 7 -12112810.69321
  20034140.6524  -19279169.78348 -14895803.28664
  22864694.5044   -2957529.99045  -2202731.21161
  19566719.293   -25675159.440 7 -19848552.03223
 91  4 25 23 31 59.9960000  0  4G13G 2G15G 6
  20285209.059   -16126137.982 7 -12149415.50721
  20035356.5904  -19272790.10948 -14890832.10964
  22864621.176    -2957924.980 5  -2203039.02821
  19564200.754   -25688392.284 7 -19858863.31723
 91  4 25 23 32 14.9960000  0  4G13G 2G15G 6
  20276293.598   -16172988.910 7 -12185922.67621
  20036578.9184  -19266360.93848 -14885822.36064
  22864573.934    -2958177.437 5  -2203235.76421
  19561702.481   -25701525.165 7 -19869096.70323
 91  4 25 23 32 29.9960000  0  4G13G 2G15G 6
  20267400.809   -16219722.383 7 -12222338.31621
  20037809.6844  -19259890.37748 -14880780.36364
  22864548.6914   -2958295.59845
  19559221.731   -25714565.970 7 -19879258.34623
 91  4 25 23 32 44.9960000  0  4G13G 2G15G 6
  20258529.020   -16266337.958 7 -12258662.09621
  20039049.5824  -19253378.26348 -14875705.98464
  22864549.6214   -2958278.89545
  19556756.137   -25727514.084 7 -19889347.76523
 91  4 25 23 32 59.9960000  0  4G13G 2G15G 6
  20249681.606   -16312832.348 7 -12294891.44321
  20040296.1294  -19246821.41948 -14870596.75364
  22864583.2774   -2958124.15845
  19554312.137   -25740366.326 7 -19899362.47723
 91  4 25 23 33 14.9960000  0  4G13G 2G15G 6
  20240856.652   -16359206.485 7 -12331027.08521
  20041552.7464  -19240221.08448 -14865453.63364
  22864640.527    -2957832.879 5
  19551883.004   -25753123.658 7 -19909303.23323
 91  4 25 23 33 29.9960000  0  4G13G 2G15G 6
  20232054.926   -16405461.183 7 -12367069.65921
  20042816.6454  -19233578.49948 -14860277.58364
  22864717.395    -2957406.402 5  -2202634.99621
  19549474.277   -25765787.109 7 -19919170.83423
 91  4 25 23 33 44.9960000  0  4G13G 2G15G 6
  20223276.512   -16451592.062 7 -12403015.75521
  20044089.5984  -19226889.60748 -14855065.45464
  22864827.848    -2956840.403 5  -2202193.95921
  19547083.231   -25778352.200 7 -19928961.79123
 91  4 25 23 33 59.9960000  0  4G13G 2G15G 6
  20214521.215   -16497600.924 7 -12438866.75521
  20045371.7624  -19220156.61148 -14849818.95964
  22864963.0514   -2956136.73545  -2201645.67561
  19544710.340   -25790820.776 7 -19938677.54623
 91  4 25 23 34 14.9960000  0  4G13G 2G15G 6
  20205789.238   -16543487.302 7 -12474622.33121
  20046660.5664  -19213379.11448 -14844537.78464
  22865119.0354   -2955295.26745  -2200989.98861
  19542356.004   -25803192.377 7 -19948317.73223
 91  4 25 23 34 29.9960000  0  4G13G 2G15G 6
  20197080.356   -16589256.168 7 -12510286.33121
  20047957.5124  -19206562.38948 -14839226.04864
  22865303.668    -2954321.305 5  -2200231.07021
  19540019.793   -25815472.043 7 -19957886.27823
 91  4 25 23 34 44.9960000  0  4G13G 2G15G 6
  20188392.918   -16634903.982 7 -12545856.00821
  20049263.5204  -19199703.43048 -14833881.39364
  22865516.4814   -2953211.49345  -2199366.29161
  19537700.246   -25827656.290 7 -19967380.47823
 91  4 25 23 34 59.9960000  0  4G13G 2G15G 6
  20179729.371   -16680431.157 7 -12581331.68121
  20050575.4494  -19192802.84848 -14828504.30764
  22865756.7234   -2951966.75145  -2198396.37361
  19535399.707   -25839745.620 7 -19976800.71323
 91  4 25 23 35 14.9960000  0  4G13G 2G15G 6
  20171087.590   -16725839.121 7 -12616714.45921
  20051896.6294  -19185862.03348 -14823095.87464
  22866013.731    -2950588.540 5  -2197322.45121
  19533117.762   -25851741.325 7 -19986147.99523
 91  4 25 23 35 29.9960000  0  4G13G 2G15G 6
  20162470.691   -16771125.490 7 -12652002.49621
  20053225.2074  -19178878.84048 -14817654.41864
  22866306.3874   -2949074.54245  -2196142.72861
  19530851.566   -25863641.093 7 -19995420.51823
 91  4 25 23 35 44.9960000  0  4G13G 2G15G 6
  20153875.082   -16816291.904 7 -12687197.05721
  20054562.9414  -19171855.36448 -14812181.57664
  22866614.7774   -2947426.85145  -2194858.83161
  19528604.707   -25875446.616 7 -20004619.60723
 91  4 25 23 35 59.9960000  0  4G13G 2G15G 6
  20145305.207   -16861333.595 7 -12722294.43421
  20055907.6294  -19164787.15948 -14806673.87764
  22866962.934    -2945640.977 5  -2193467.25221
  19526378.754   -25887153.117 7 -20013741.53523
 91  4 25 23 36 14.9960000  0  4G13G 2G15G 6
  20136758.410   -16906249.498 7 -12757293.79521
  20057260.2934  -19157673.07248 -14801130.42864
  22867326.027    -2943715.761 5  -2191967.10021
  19524169.941   -25898759.390 7 -20022785.36223
 91  4 25 23 36 29.9960000  0  4G13G 2G15G 6
  20128234.5124  -16951043.72747 -12792198.34561
  20058623.0514  -19150517.78148 -14795554.87264
  22867714.3324   -2941655.89045  -2190362.04061
  19521980.754   -25910269.821 7 -20031754.51123
 91  4 25 23 36 44.9960000  0  4G13G 2G15G 6
  20119733.324   -16995719.912 7 -12827010.91221
  20059990.8874  -19143325.37048 -14789950.38864
  22868134.856    -2939465.354 5  -2188655.13421
  19519807.160   -25921688.100 7 -20040651.85223
 91  4 25 23 36 59.9960000  0  4G13G 2G15G 6
  20111252.754   -17040274.679 7 -12861728.86921
  20061367.3244  -19136092.83648 -14784314.64064
  22868577.4964   -2937140.78545  -2186843.80061
  19517652.902   -25933010.929 7 -20049474.82023
 91  4 25 23 37 14.9960000  0  4G13G 2G15G 6
  20102797.535   -17084708.206 7 -12896352.34722
  20062750.8714  -19128820.39948 -14778647.79964
  22869045.176    -2934682.835 5  -2184928.52821
  19515516.504   -25944238.501 7 -20058223.55823
 91  4 25 23 37 29.9960000  0  4G13G 2G15G 6
  20094364.395   -17129022.552 7 -12930882.95821
  20064141.7704  -19121510.25748 -14772951.57364
  22869536.473    -2932093.604 5  -2182910.97921
  19513397.004   -25955372.731 7 -20066899.56523
 91  4 25 23 37 44.9960000  0  4G13G 2G15G 6
  20085955.6454  -17173213.75247 -12965317.61361
  20065541.2384  -19114158.72048 -14767223.09864
  22870054.5744   -2929369.42245  -2180788.24861
  19511297.051   -25966409.654 7 -20075499.74723
 91  4 25 23 37 59.9960000  0  4G13G 2G15G 6
  20077569.981   -17217285.790 7 -12999659.41121
  20066947.4494  -19106770.01748 -14761465.65864
  22870600.012    -2926514.457 5  -2178563.61721
  19509215.059   -25977353.226 7 -20084027.19123
 91  4 25 23 38 14.9960000  0  4G13G 2G15G 6
  20069206.543   -17261233.473 7 -13033904.31422
  20068361.6134  -19099339.28248 -14755675.46864
  22871171.1524   -2923524.05245  -2176233.45361
  19507150.816   -25988198.371 7 -20092477.93523
 91  4 25 23 38 29.9960000  0  4G13G 2G15G 6
  20060867.629   -17305057.019 7 -13068052.48322
  20069783.0664  -19091867.02148 -14749852.92064
  22871759.332    -2920398.550 5  -2173798.02021
  19505104.481   -25998945.334 7 -20100852.17723
 91  4 25 23 38 44.9960000  0  4G13G 2G15G 6
  20052550.309   -17348757.187 7 -13102104.51122
  20071213.9734  -19084353.94748 -14743998.57064
  22872379.371    -2917138.684 5  -2171257.88221
  19503077.645   -26009594.696 7 -20109150.36623
 91  4 25 23 38 59.9960000  0  4G13G 2G15G 6
  20044258.027   -17392334.138 7 -13136060.53322
  20072649.9264  -19076800.67548 -14738112.89964
  22873025.1214   -2913745.03145  -2168613.49561
  19501070.309   -26020147.060 7 -20117372.97123
 91  4 25 23 39 14.9960000  0  4G13G 2G15G 6
  20035988.941   -17435788.010 7 -13169920.64822
  20074095.6604  -19069207.76148 -14732196.33564
  22873697.4024   -2910218.19045  -2165865.31161
  19499081.262   -26030602.327 7 -20125519.91523
 91  4 25 23 39 29.9960000  0  4G13G 2G15G 6
  20027743.770   -17479115.564 7 -13203682.33321
  20075549.1134  -19061572.26548 -14726246.59264
  22874395.215    -2906555.091 5  -2163010.98721
  19497109.621   -26040957.408 7 -20133588.79323
 91  4 25 23 39 44.9960000  0  4G13G 2G15G 6
  20019521.871   -17522318.457 7 -13237346.87821
  20077008.2314  -19053896.01748 -14720265.09364
  22875122.090    -2902757.733 5  -2160052.01921
  19495158.801   -26051213.969 7 -20141580.90223
 91  4 25 23 39 59.9960000  0  4G13G 2G15G 6
  20011326.332   -17565394.281 7 -13270912.41222
  20078477.4734  -19046176.59348 -14714249.95164
  22875863.8014   -2898823.90545  -2156986.72761
  19493226.160   -26061369.383 7 -20149494.19323
 91  4 25 23 40 14.9960000  0  4G13G 2G15G 6
  20003151.832   -17608345.028 7 -13304380.47922
  20079954.5744  -19038416.28548 -14708202.95964
  22876642.4494   -2894755.68045  -2153816.69561
  19491310.793   -26071425.776 7 -20157330.32323
 91  4 25 23 40 29.9960000  0  4G13G 2G15G 6
  19995003.3564  -17651169.14547 -13337749.88062
  20081438.7934  -19030614.22448 -14702123.42864
  22877442.301    -2890551.945 5  -2150541.08121
  19489418.863   -26081381.712 7 -20165088.18423
 91  4 25 23 40 44.9960000  0  4G13G 2G15G 6
  19986876.652   -17693871.002 7 -13371024.00522
  20082931.7704  -19022774.48348 -14696014.53464
  22878265.434    -2886217.188 5  -2147163.36321
  19487540.926   -26091241.460 7 -20172771.08623
 91  4 25 23 40 59.9960000  0  4G13G 2G15G 6
  19978775.777   -17736443.849 7 -13404197.60822
  20084431.2464  -19014890.65148 -14689871.28564
  22879111.9414   -2881744.97145  -2143678.53861
  19485686.426   -26100998.191 7 -20180373.71723
 91  4 25 23 41 14.9960000  0  4G13G 2G15G 6
  19970700.481   -17778889.961 7 -13437272.45722
  20085939.4654  -19006965.32448 -14683695.70164
  22879997.027    -2877137.823 5  -2140088.57021
  19483846.582   -26110654.287 7 -20187897.93123
 91  4 25 23 41 29.9960000  0  4G13G 2G15G 6
  19962646.504   -17821208.528 7 -13470247.91922
  20087455.8404  -18998998.13948 -14677487.50764
  22880901.7314   -2872395.49645  -2136393.28661
  19482028.824   -26120209.232 7 -20195343.32623
 91  4 25 23 41 44.9960000  0  4G13G 2G15G 6
  19954616.832   -17863400.380 7 -13503124.63922
  20088978.8874  -18990989.97448 -14671247.37664
  22881823.1844   -2867518.77945  -2132593.24361
  19480230.738   -26129663.538 7 -20202710.30323
 91  4 25 23 41 59.9960000  0  4G13G 2G15G 6
  19946612.043   -17905464.925 7 -13535902.16722
  20090510.7854  -18982940.42048 -14664974.99564
  22882780.4024   -2862507.17945  -2128688.13661
  19478449.676   -26139016.747 7 -20209998.50123
 91  4 25 23 42 14.9960000  0  4G13G 2G15G 6
  19938633.176   -17947401.189 7 -13568579.73321
  20092050.6374  -18974848.78848 -14658669.83064
  22883757.9574   -2857360.13145  -2124677.45261
  19476688.949   -26148267.698 7 -20217207.01523
 91  4 25 23 42 29.9960000  0  4G13G 2G15G 6
  19930675.590   -17989211.204 7 -13601158.92222
  20093598.1374  -18966717.48648 -14652333.75064
  22884761.0204   -2852079.98445  -2120563.08061
  19474948.277   -26157418.745 7 -20224337.68623
 91  4 25 23 42 44.9960000  0  4G13G 2G15G 6
  19922742.871   -18030894.239 7 -13633639.16922
  20095153.2314  -18958545.87348 -14645966.26264
  22885791.238    -2846666.372 5  -2116344.71421
  19473227.582   -26166469.136 7 -20231389.92523
 91  4 25 23 42 59.9960000  0  4G13G 2G15G 6
  19914836.9264  -18072449.39147 -13666019.76262
  20096715.5274  -18950333.29548 -14639566.84964
  22886843.7704   -2841118.79245  -2112021.94761
  19471523.887   -26175417.912 7 -20238362.97623
 91  4 25 23 43 14.9960000  0  4G13G 2G15G 6
  19906953.559   -18113876.444 7 -13698300.54322
  20098286.2074  -18942079.68548 -14633135.46564
  22887935.738    -2835436.807 5  -2107594.44421
  19469838.762   -26184264.787 7 -20245256.62723
 91  4 25 23 43 29.9960000  0  4G13G 2G15G 6
  19899096.5274  -18155169.50147 -13730476.91562
  20099866.8164  -18933779.28548 -14626667.61964
  22889031.746    -2829614.882 5  -2103057.91021
  19468175.606   -26193003.725 7 -20252066.17423
 91  4 25 23 43 44.9960000  0  4G13G 2G15G 6
  19891262.449   -18196335.104 7 -13762553.96522
  20101453.9024  -18925439.09248 -14620168.76964
  22890173.418    -2823659.841 5  -2098417.63521
  19466532.371   -26201641.610 7 -20258796.97623
 91  4 25 23 43 59.9960000  0  4G13G 2G15G 6
  19883452.3634  -18237373.27647 -13794531.71862
  20103048.5824  -18917059.24548 -14613639.02064
  22891328.449    -2817572.201 5  -2093674.05221
  19464907.262   -26210178.269 7 -20265448.90523
 91  4 25 23 44 14.9960000  0  4G13G 2G15G 6
  19875668.238   -18278275.621 7 -13826403.63722
  20104651.3564  -18908631.54248 -14607071.98164
  22892518.5664   -2811343.63145  -2088820.62161
  19463303.395   -26218605.269 7 -20272015.38123
 91  4 25 23 44 29.9960000  0  4G13G 2G15G 6
  19867910.8404  -18319046.63047 -13858173.21462
  20106263.2934  -18900160.98948 -14600471.55164
  22893720.449    -2804978.980 5  -2083861.19021
  19461721.238   -26226927.337 7 -20278500.08923
 91  4 25 23 44 44.9960000  0  4G13G 2G15G 6
  19860175.7384  -18359690.77447 -13889843.93562
  20107882.0984  -18891652.13548 -14593841.27964
  22894962.715    -2798483.301 5  -2078799.63121
  19460157.910   -26235148.867 7 -20284906.46323
 91  4 25 23 44 59.9960000  0  4G13G 2G15G 6
  19852465.2544  -18400206.43747 -13921414.54962
  20109509.0904  -18883103.44348 -14587179.96164
  22896226.6524   -2791854.91445  -2073634.67761
  19458611.363   -26243268.181 7 -20291233.18523
 91  4 25 23 45 14.9960000  0  4G13G 2G15G 6
  19844781.5354  -18440592.73547 -13952884.35362
  20111144.5354  -18874514.31148 -14580487.13264
  22897510.223    -2785093.141 5  -2068365.77221
  19457085.731   -26251284.373 7 -20297479.55523
 91  4 25 23 45 29.9960000  0  4G13G 2G15G 6
  19837119.9184  -18480847.74247 -13984251.84862
  20112786.7774  -18865882.96048 -14573761.40964
  22898821.7464   -2778196.17745  -2062991.54961
  19455580.676   -26259195.580 7 -20303644.11323
 91  4 25 23 45 44.9960000  0  4G13G 2G15G 6
  19829486.1994  -18520967.62047 -14015514.05562
  20114437.0204  -18857205.82748 -14567000.00264
  22900158.410    -2771160.867 5  -2057509.50521
  19454095.863   -26266997.921 7 -20309723.84423
 91  4 25 23 45 59.9960000  0  4G13G 2G15G 6
  19821877.4734  -18560954.13447 -14046672.33762
  20116096.9884  -18848484.82948 -14560204.42864
  22901524.129    -2763988.752 5  -2051920.86521
  19452631.4734  -26274693.01947 -20315720.00963
 91  4 25 23 46 14.9960000  0  4G13G 2G15G 6
  19814293.0594  -18600803.76747 -14077723.96562
  20117766.7314  -18839716.56348 -14553372.01264
  22902920.543    -2756676.840 5  -2046223.30121
  19451186.762   -26282277.334 7 -20321629.85123
 91  4 25 23 46 29.9960000  0  4G13G 2G15G 6
  19806736.426   -18640517.300 7 -14108669.53422
  20119443.0434  -18830902.07448 -14546503.58664
  22904335.1994   -2749226.06745  -2040417.53961
  19449766.301   -26289751.913 7 -20327454.18623
 91  4 25 23 46 44.9960000  0  4G13G 2G15G 6
  19799204.2544  -18680096.96847 -14139510.79562
  20121129.4494  -18822043.78048 -14539601.01764
  22905783.731    -2741639.103 5  -2034505.63721
  19448363.191   -26297118.886 7 -20333194.66823
 91  4 25 23 46 59.9960000  0  4G13G 2G15G 6
  19791698.1604  -18719542.11747 -14170247.23762
  20122823.3244  -18813141.21748 -14532663.95564
  22907248.6294   -2733915.46445  -2028487.23761
  19446981.785   -26304377.409 7 -20338850.64623
 91  4 25 23 47 14.9960000  0  4G13G 2G15G 6
  19784215.8484  -18758859.93547 -14200884.45962
  20124524.4654  -18804201.69748 -14525698.09564
  22908740.5124   -2726062.68945  -2022368.20261
  19445620.559   -26311534.784 7 -20344427.80623
 91  4 25 23 47 29.9960000  0  4G13G 2G15G 6
  19776758.1844  -18798044.89047 -14231418.15262
  20126232.6994  -18795219.98448 -14518699.36364
  22910265.4964   -2718075.41045  -2016144.37461
  19444278.996   -26318585.421 7 -20349921.79323
 91  4 25 23 47 44.9960000  0  4G13G 2G15G 6
  19769327.316   -18837096.718 7 -14261848.11722
  20127950.129   -18786196.182 8 -14511667.82723
  22911809.6524   -2709953.71045  -2009815.82061
  19442957.6064  -26325529.31547 -20355332.61563
 91  4 25 23 47 59.9960000  0  4G13G 2G15G 6
  19761919.8634  -18876022.09447 -14292179.55662
  20129675.1374  -18777137.00348 -14504608.73864
  22913381.7934   -2701704.28945  -2003387.72261
  19441654.7704  -26332373.01547 -20360665.36963
 91  4 25 23 48 14.9960000  0  4G13G 2G15G 6
  19754538.4344  -18914817.38047 -14322409.60862
  20131404.8954  -18768039.28248 -14497519.60164
  22914972.0984   -2693324.18645  -1996857.78361
  19440372.598   -26339112.999 7 -20365917.29023
 91  4 25 23 48 29.9960000  0  4G13G 2G15G 6
  19747180.8094  -18953486.37047 -14352541.25762
  20133142.4884  -18758906.72348 -14490403.31964
  22916594.1064   -2684817.12045  -1990228.93161
  19439108.535   -26345752.858 7 -20371091.19123
 91  4 25 23 48 44.9960000  0  4G13G 2G15G 6
  19739845.8324  -18992026.63447 -14382572.59562
  20134888.7314  -18749736.72748 -14483257.86063
  22918234.4104   -2676180.80845  -1983499.36461
  19437865.6064  -26352289.94147 -20376185.00863
 91  4 25 23 48 59.9960000  0  4G13G 2G15G 6
  19732535.0514  -19030437.63647 -14412503.21162
  20136641.1844  -18740529.43648 -14476083.34564
  22919901.832    -2667415.556 5  -1976669.34321
  19436640.0744  -26358723.97547 -20381198.52963
 91  4 25 23 49 14.9960000  0  4G13G 2G15G 6
  19725250.6454  -19068721.49147 -14442334.75062
  20138398.8324  -18731287.10148 -14468881.52463
  22921600.113    -2658523.538 5  -1969740.51421
  19435435.816   -26365057.078 7 -20386133.40423
 91  4 25 23 49 29.9960000  0  4G13G 2G15G 6
  19717990.2154  -19106876.36247 -14472065.78562
  20140165.8564  -18722008.00148 -14461651.05264
  22923317.8794   -2649502.75645  -1962711.34561
  19434248.707   -26371287.357 7 -20390988.15123
 91  4 25 23 49 44.9960000  0  4G13G 2G15G 6
  19710753.7234  -19144903.39247 -14501697.20362
  20141936.9814  -18712693.41448 -14454392.92663
  22925054.066    -2640354.562 5  -1955582.91821
  19433083.184   -26377415.803 7 -20395763.54923
 91  4 25 23 49 59.9960000  0  4G13G 2G15G 6
  19703542.8714  -19182800.40347 -14531227.31062
  20143718.0204  -18703341.50148
  22926817.348    -2631077.350 5
  19431937.6844  -26383440.43547 -20400458.05963
 91  4 25 23 50 14.9960000  0  4G13G 2G15G 6
  19696355.5354  -19220567.23447 -14560655.97262
  20145504.8634  -18693952.03748
  22928605.934    -2621671.093 5
  19430809.9104  -26389360.95947 -20405071.44263
 91  4 25 23 50 29.9960000  0  4G13G 2G15G 6
  19689196.1214  -19258199.31847 -14589979.64162
  20147298.8094  -18684520.73848 -14432440.17163
  22930423.043    -2612131.540 5
  19429704.3404  -26395172.86647 -20409600.19363
 91  4 25 23 50 44.9960000  0  4G13G 2G15G 6
  19682058.6064  -19295696.67447 -14619198.32462
  20149100.4494  -18675047.89548 -14425058.72863
  22932266.184    -2602459.048 5
  19428619.9184  -26400876.06347 -20414044.23363
 91  4 25 23 50 59.9960000  0  4G13G 2G15G 6
  19674950.0044  -19333057.26247 -14648310.44462
  20150911.1844  -18665531.78948 -14417643.57263
  22934134.441    -2592651.968 5
  19427555.7464  -26406468.80747 -20418402.20763
 91  4 25 23 51 14.9960000  0  3G13G 2G 6
  19667865.1294  -19370283.62647 -14677317.96562
  20152729.7544  -18655975.21448 -14410196.88463
  19426513.145   -26411953.696 7 -20422676.13223
 91  4 25 23 51 29.9960000  0  3G13G 2G 6
  19660808.5744  -19407372.40147 -14706218.27662
  20154558.332   -18646374.563 8 -14402715.84423
  19425488.4024  -26417326.92947 -20426863.06263
 91  4 25 23 51 44.9960000  0  3G13G 2G 6
  19653777.7384  -19444320.26847 -14735008.78762
  20156392.6524  -18636726.54448 -14395197.89963
  19424488.8324  -26422585.10447 -20430960.33363
 91  4 25 23 51 59.9960000  0  3G13G 2G 6
  19646772.5354  -19481127.06347 -14763689.37262
  20158238.6764  -18627031.23448 -14387643.10263
  19423510.1214  -26427728.09047 -20434967.84763
 91  4 25 23 52 14.9960000  0  3G13G 2G 6
  19639796.1684  -19517790.50647 -14792258.25962
  20160093.1064  -18617286.91448 -14380050.12263
  19422552.5664  -26432753.89847 -20438884.04963
 91  4 25 23 52 29.9960000  0  3G13G 2G 6
  19632845.7464  -19554312.60047 -14820716.99962
  20161956.0434  -18607495.62148 -14372420.53663
  19421619.6454  -26437664.24847 -20442710.28863
 91  4 25 23 52 44.9960000  0  3G13G 2G 6
  19625922.9574  -19590691.43647 -14849064.11562
  20163829.4884  -18597655.62548 -14364753.00063
  19420706.6524  -26442457.45647 -20446445.24463
 91  4 25 23 52 59.9960000  0  3G13G 2G 6
  19619027.1454  -19626928.72047 -14877300.92862
  20165709.5984  -18587768.80948 -14357048.97763
  19419817.5354  -26447134.99747 -20450090.07263
 91  4 25 23 53 14.9960000  0  3G13G 2G 6
  19612159.5354  -19663022.65547 -14905426.03862
  20167601.7544  -18577833.35648 -14349307.05963
  19418948.566   -26451695.057 7 -20453643.35723
 91  4 25 23 53 29.9960000  0  3G13G 2G 6
  19605317.5124  -19698973.31347 -14933439.50762
  20169500.1134  -18567849.53648 -14341527.45463
  19418103.668   -26456137.708 7 -20457105.14923
 91  4 25 23 53 44.9960000  0  3G13G 2G 6
  19598504.0124  -19734780.41347 -14961341.11262
  20171409.3954  -18557816.89748 -14333709.81063
  19417280.9654  -26460462.47547 -20460475.08663
 91  4 25 23 53 59.9960000  0  3G13G 2G 6
  19591717.3874  -19770444.85047 -14989131.55562
  20173328.3014  -18547736.76548 -14325855.15963
  19416479.785   -26464670.405 7 -20463753.98123
 91  4 25 23 54 14.9960000  0  3G13G 2G 6
  19584957.5904  -19805965.49547 -15016809.94862
  20175255.0124  -18537608.49048 -14317962.99163
  19415701.793   -26468760.552 7 -20466941.09823
 91  4 25 23 54 29.9960000  0  3G13G 2G 6
  19578226.3564  -19841345.19047 -15044378.51262
  20177191.0044  -18527434.84348 -14310035.47263
  19414944.746   -26472735.607 7 -20470038.53323
 91  4 25 23 54 44.9960000  0  3G13G 2G 6
  19571519.0904  -19876584.48447 -15071837.66962
  20179134.9264  -18517216.41448 -14302073.05363
  19414209.363   -26476595.999 7 -20473046.61523
 91  4 25 23 54 59.9960000  0  3G13G 2G 6
  19564840.4494  -19911682.89747 -15099187.05162
  20181088.9734  -18506952.90848 -14294075.51363
  19413498.629   -26480341.249 7 -20475964.97923
 91  4 25 23 55 14.9960000  0  3G13G 2G 6
  19558189.051   -19946639.827 7 -15126426.18522
  20183049.9814  -18496644.19648 -14286042.74963
  19412807.4024  -26483970.97447 -20478793.32963
 91  4 25 23 55 29.9960000  0  3G13G 2G 6
  19551561.3714  -19981456.19047 -15153555.79462
  20185020.3094  -18486290.93748 -14277975.26763
  19412138.824   -26487485.758 7 -20481532.10423
 91  4 25 23 55 44.9960000  0  3G13G 2G 6
  19544964.9104  -20016131.33847 -15180575.35562
  20186998.6064  -18475892.64648 -14269872.70363
  19411491.090   -26490884.789 7 -20484180.69023
 91  4 25 23 55 59.9960000  0  3G13G 2G 6
  19538393.0904  -20050665.09147 -15207484.74762
  20188986.0514  -18465449.49848 -14261735.18263
  19410867.0904  -26494168.09847 -20486739.10163
 91  4 25 23 56 14.9960000  0  3G13G 2G 6
  19531848.2934  -20085060.14647 -15234286.05862
  20190981.1844  -18454964.09248 -14253564.73363
  19410263.723   -26497338.235 7 -20489209.32523
 91  4 25 23 56 29.9960000  0  3G13G 2G 6
  19525328.4574  -20119318.67247 -15260980.98562
  20192984.5044  -18444438.88648 -14245363.27263
  19409680.9964  -26500397.41747 -20491593.09263
 91  4 25 23 56 44.9960000  0  3G13G 2G 6
  19518835.6294  -20153439.57247 -15287568.67062
  20194995.5824  -18433872.97748 -14237130.09363
  19409120.020   -26503344.574 7 -20493889.56723
 91  4 25 23 56 59.9960000  0  3G13G 2G 6
  19512369.1134  -20187418.27847 -15314045.55262
  20197014.5124  -18423261.63748 -14228861.51863
  19408581.2464  -26506174.75547 -20496094.89063
 91  4 25 23 57 14.9960000  0  3G13G 2G 6
  19505929.8324  -20221259.37547 -15340415.20962
  20199041.8094  -18412609.53848 -14220561.18063
  19408064.8324  -26508892.84447 -20498212.87563
 91  4 25 23 57 29.9960000  0  3G13G 2G 6
  19499514.8634  -20254965.61247 -15366679.78562
  20201075.9964  -18401919.78148 -14212231.50163
  19407567.7854  -26511501.59847 -20500245.66063
 91  4 25 23 57 44.9960000  0  3G13G 2G 6
  19493127.777   -20288534.360 7 -15392837.22522
  20203117.2074  -18391190.18248 -14203870.77363
  19407093.4734  -26513998.63047 -20502191.39063
 91  4 25 23 57 59.9960000  0  3G13G 2G 6
  19486766.3564  -20321965.70247 -15418887.59261
  20205166.0204  -18380420.39048 -14195478.72963
  19406640.0044  -26516383.46847 -20504049.69663
 91  4 25 23 58 14.9960000  0  3G13G 2G 6
  19480430.191   -20355259.292 7 -15444830.62222
  20207223.5354  -18369610.45148 -14187055.40363
  19406205.684   -26518655.943 7 -20505820.44023
 91  4 25 23 58 29.9960000  0  3G13G 2G 6
  19474120.301   -20388417.893 7 -15470668.46922
  20209288.2544  -18358763.30548 -14178603.08063
  19405795.8324  -26520818.81647 -20507505.78763
 91  4 25 23 58 44.9960000  0  3G13G 2G 6
  19467837.613   -20421438.352 7 -15496398.67322
  20211359.5124  -18347875.89548 -14170119.38463
  19405403.8324  -26522868.76947 -20509103.14263
 91  4 25 23 58 59.9960000  0  3G13G 2G 6
  19461579.3634  -20454317.91947 -15522019.08662
  20213441.4414  -18336945.36048 -14161602.08263
  19405037.418   -26524802.908 7 -20510610.25023
 91  4 25 23 59 14.9960000  0  3G13G 2G 6
  19455350.332   -20487054.460 7 -15547528.05622
  20215528.5744  -18325969.81348 -14153049.71463
  19404691.965   -26526619.199 7 -20512025.53523
 91  4 25 23 59 29.9960000  0  3G13G 2G 6
  19449147.887   -20519649.396 7 -15572926.68222
  20217627.2074  -18314950.75348 -14144463.43763
  19404367.7314  -26528319.04047 -20513350.07663
 91  4 25 23 59 44.9960000  0  3G13G 2G 6
  19442971.856   -20552101.905 7 -15598214.32622
  20219730.3244  -18303887.64148 -14135842.82763
  19404066.9884  -26529901.61147 -20514583.24063
 91  4 25 23 59 59.9960000  0  3G13G 2G 6
  19436822.1524  -20584414.20347 -15623392.71162
  20221844.1684  -18292782.78248 -14127189.69063
  19403788.1374  -26531369.19547 -20515726.80363
 91  4 26  0  0 14.9960000  0  3G13G 2G 6
  19430700.988   -20616585.954 7 -15648461.58622
  20223964.8404  -18281636.04448 -14118503.92163
  19403530.5514  -26532721.52347 -20516780.55462
 91  4 26  0  0 29.9960000  0  3G13G 2G 6
  19424605.074   -20648617.882 7 -15673421.50622
  20226094.4024  -18270448.05448 -14109786.00563
  19403294.2314  -26533959.15447 -20517744.93863
 91  4 26  0  0 44.9960000  0  3G13G 2G 6
  19418535.504   -20680508.922 7 -15698271.64322
  20228230.2854  -18259217.89048 -14101035.22463
  19403079.9884  -26535080.89547 -20518619.00863
 91  4 26  0  0 59.9960000  0  3G13G 2G 6
  19412493.762   -20712260.553 7 -15723013.15022
  20230376.9494  -18247947.05448 -14092252.75363
  19402889.7774  -26536087.92547 -20519403.70763
 91  4 26  0  1 14.9960000  0  3G13G 2G 6
  19406479.0664  -20743871.30247 -15747644.87262
  20232529.2074  -18236634.30448 -14083437.61663
  19402718.8794  -26536978.95547 -20520098.00863
 91  4 26  0  1 29.9960000  0  3G13G 2G 6
  19400491.2464  -20775336.23947 -15772162.98062
  20234690.9494  -18225274.67848 -14074585.95863
  19402571.3564  -26537748.98347 -20520698.01863
 91  4 26  0  1 44.9960000  0  3G13G 2G 6
  19394529.9734  -20806665.43847 -15796575.31862
  20236858.4024  -18213878.31048 -14065705.67263
  19402447.8404  -26538407.94547 -20521211.48963
 91  4 26  0  1 59.9960000  0  3G13G 2G 6
  19388594.4964  -20837858.17247 -15820881.31862
  20239033.9414  -18202444.40748 -14056796.13663
  19402342.5664  -26538955.09947 -20521637.83863
 91  4 26  0  2 14.9960000  0  3G13G 2G 6
  19382685.2934  -20868908.08247 -15845076.02762
  20241217.9814  -18190966.94548 -14047852.65363
  19402262.2314  -26539383.98647 -20521972.02663
 91  4 26  0  2 29.9960000  0  3G13G 2G 6
  19376802.8794  -20899822.89947 -15869165.46862
  20243409.0824  -18179453.70348 -14038881.29163
  19402200.5204  -26539702.51047 -20522220.21863
 91  4 26  0  2 44.9960000  0  3G13G 2G 6
  19370945.285   -20930599.538 7 -15893147.23922
  20245609.3164  -18167901.52248 -14029879.58963
  19402161.3794  -26539907.25947 -20522379.75363
 91  4 26  0  2 59.9960000  0  3G13G 2G 6
  19365115.3014  -20961238.72447 -15917021.90162
  20247813.2074  -18156311.41348 -14020848.33263
  19402145.8634  -26539999.12547
 91  4 26  0  3 14.9960000  0  3G13G 2G 6
  19359310.5204  -20991744.56147 -15940792.65662
  20250025.7774  -18144687.82748 -14011790.98763
  19402148.9814  -26539982.30747
 91  4 26  0  3 29.9960000  0  3G13G 2G 6
  19353531.2074  -21022118.35247 -15964460.51962
  20252244.0434  -18133031.90048 -14002708.44463
  19402171.3164  -26539857.85847
 91  4 26  0  3 44.9960000  0  3G13G 2G 6
  19347776.8954  -21052357.57747 -15988023.52462
  20254468.4184  -18121341.47448 -13993599.01863
  19402217.207   -26539623.551 7
 91  4 26  0  3 59.9960000  0  3G13G 2G 6
  19342047.1524  -21082464.41647 -16011483.37062
  20256698.3634  -18109618.44648 -13984464.18463
  19402281.1844  -26539281.24347
 91  4 26  0  4 14.9960000  0  3G13G 2G 6
  19336343.3794  -21112438.08947 -16034839.45362
  20258936.2234  -18097861.88448 -13975303.22463
  19402369.262   -26538829.800 7 -20521540.12323
 91  4 26  0  4 29.9960000  0  3G13G 2G 6
  19330664.410   -21142278.785 7 -16058091.91622
  20261179.7384  -18086072.34448 -13966116.56663
  19402473.4264  -26538269.68447 -20521103.66263
 91  4 26  0  4 44.9960000  0  3G13G 2G 6
  19325011.426   -21171987.002 7 -16081241.15322
  20263429.7544  -18074250.67948 -13956904.87763
  19402600.1064  -26537601.40847 -20520582.92362
 91  4 26  0  4 59.9960000  0  3G13G 2G 6
  19319384.4184  -21201562.27647 -16104286.79762
  20265684.8014  -18062396.29448 -13947667.69663
  19402747.3014  -26536824.52147 -20519977.54363
 91  4 26  0  5 14.9960000  0  3G13G 2G 6
  19313780.613   -21231001.463 7 -16127226.39722
  20267946.6914  -18050506.11048 -13938402.61463
  19402919.2384  -26535935.63247 -20519284.89663
 91  4 26  0  5 29.9960000  0  3G13G 2G 6
  19308204.059   -21260310.012 7 -16150064.20622
  20270215.9494  -18038585.65248 -13929113.94563
  19403107.684   -26534940.218 7 -20518509.24222
 91  4 26  0  5 44.9960000  0  3G13G 2G 6
  19302651.934   -21289488.429 7 -16172800.60722
  20272489.6134  -18026635.34748 -13919802.02263
  19403317.926   -26533838.699 7 -20517650.90323
 91  4 26  0  5 59.9960000  0  3G13G 2G 6
  19297124.426   -21318536.877 7 -16195435.74322
  20274769.5744  -18014655.47147 -13910467.05563
  19403547.4344  -26532631.02047 -20516709.84662
 91  4 26  0  6 14.9960000  0  3G13G 2G 6
  19291620.496   -21347451.543 7 -16217966.62622
  20277055.4184  -18002642.48947 -13901106.29463
  19403798.231   -26531313.623 7 -20515683.29723
 91  4 26  0  6 29.9960000  0  3G13G 2G 6
  19286144.301   -21376233.993 7 -16240394.49122
  20279348.7314  -17990597.91847 -13891720.92263
  19404070.199   -26529887.812 7 -20514572.26423
 91  4 26  0  6 44.9960000  0  3G13G 2G 6
  19280692.426   -21404884.049 7 -16262719.18622
  20281645.9184  -17978521.71647 -13882310.89563
  19404360.7074  -26528353.55247 -20513376.72963
 91  4 26  0  6 59.9960000  0  3G13G 2G 6
  19275265.348   -21433402.316 7 -16284941.19422
  20283949.0044  -17966414.44447 -13872876.66363
  19404672.7074  -26526711.24647 -20512097.00462
 91  4 26  0  7 14.9960000  0  3G13G 2G 6
  19269864.684   -21461788.862 7 -16307060.55722
  20286259.6294  -17954276.31747 -13863418.39063
  19405006.6294  -26524961.05847 -20510733.21463
 91  4 26  0  7 29.9960000  0  3G13G 2G 6
  19264487.004   -21490042.692 7 -16329076.50922
  20288574.7624  -17942106.25047 -13853935.23063
  19405360.5984  -26523101.68047 -20509284.34363
 91  4 26  0  7 44.9960000  0  3G13G 2G 6
  19259135.559   -21518165.594 7 -16350990.43722
  20290897.598   -17929905.966 7 -13844428.52223
  19405735.0594  -26521134.88147 -20507751.76263
 91  4 26  0  7 59.9960000  0  3G13G 2G 6
  19253809.738   -21546152.929 7 -16372798.72922
  20293226.0514  -17917671.11447 -13834894.87863
  19406129.5514  -26519056.05647 -20506131.88963
 91  4 26  0  8 14.9960000  0  3G13G 2G 6
  19248509.332   -21574006.734 7 -16394502.97422
  20295559.5044  -17905403.60147 -13825335.78363
  19406546.7774  -26516867.07947 -20504426.18963
 91  4 26  0  8 29.9960000  0  3G13G 2G 6
  19243233.879   -21601729.445 7 -16416105.06222
  20297900.3794  -17893106.13547 -13815753.35363
  19406982.2314  -26514570.48947 -20502636.62963
 91  4 26  0  8 44.9960000  0  3G13G 2G 6
  19237984.668   -21629319.191 7 -16437603.54922
  20300245.7624  -17880776.82047 -13806146.10163
  19407442.6604  -26512164.35447 -20500761.71363
 91  4 26  0  8 59.9960000  0  3G13G 2G 6
  19232760.184   -21656769.881 7 -16458993.67522
  20302600.0434  -17868409.60647 -13796509.32063
  19407921.7544  -26509642.34047 -20498796.50163
 91  4 26  0  9 14.9960000  0  3G13G 2G 6
  19227562.840   -21684080.259 7 -16480274.47022
  20304961.2934  -17856003.06347 -13786841.88563
  19408423.2154  -26507003.26947 -20496740.07563
